[[{"header":{"parameterUnit":"m.s-1","parameterCategory":1,"la1":30.6,"la2":29.2853,"lo1":-89.7004,"lo2":-87.6739,"dy":0.0162,"dx":0.0183,"nx":112,"ny":82,"refTime":"2024-07-09T06:00:00:Z","depth":0,"parameterNumber":2,"parameterNumberName":"U-component_of_WINDS"},"data":[0.0,0.0,0.0,0.0,0.0,0.0,0.0,0.0,0.0,0.0,0.0,0.0,0.0,0.0,0.0,0.0,0.0,0.0,0.0,0.0,0.0,0.0,0.0,0.0,0.0,0.0,0.0,0.0,0.0,0.0,0.0,0.0,0.0,0.0,0.0,0.0,0.0,0.0,0.0,0.0,0.0,0.0,0.0,0.0,0.0,0.0,0.0,0.0,0.0,0.0,0.0,0.0,0.0,0.0,0.0,0.0,0.0,0.0,0.0,0.0,0.0,0.0,0.0,0.0,0.0,0.0,0.0,0.0,0.0,0.0,0.0,0.0,0.0,0.0,0.0,0.0,0.0,0.0,0.0,0.0,0.0,0.0,0.0,0.0,0.0,0.0,0.0,0.0,0.0,0.0,0.0,-2.4186,-2.6477,-2.798,-2.8083,-2.7759,-2.6,-2.242,0.0,0.0,0.0,0.0,0.0,0.0,0.0,0.0,0.0,0.0,0.0,0.0,0.0,0.0,0.0,0.0,0.0,0.0,0.0,0.0,0.0,0.0,0.0,0.0,0.0,0.0,0.0,0.0,0.0,0.0,0.0,0.0,0.0,0.0,0.0,0.0,0.0,0.0,0.0,0.0,0.0,0.0,0.0,0.0,0.0,0.0,0.0,0.0,0.0,0.0,0.0,0.0,0.0,0.0,0.0,0.0,0.0,0.0,0.0,0.0,0.0,0.0,0.0,0.0,0.0,0.0,0.0,0.0,0.0,0.0,0.0,0.0,0.0,0.0,0.0,0.0,0.0,0.0,0.0,0.0,0.0,0.0,0.0,0.0,0.0,0.0,0.0,0.0,0.0,0.0,0.0,0.0,0.0,0.0,0.0,0.0,0.0,0.0,0.0,0.0,0.0,0.0,0.0,0.0,-2.3912,-2.709,-2.7279,-2.7416,-2.8049,-2.7284,-2.5461,-2.2386,0.0,0.0,0.0,0.0,0.0,0.0,0.0,0.0,0.0,0.0,0.0,0.0,0.0,0.0,0.0,0.0,0.0,0.0,0.0,0.0,0.0,0.0,0.0,0.0,0.0,0.0,0.0,0.0,0.0,0.0,0.0,0.0,0.0,0.0,0.0,0.0,0.0,0.0,0.0,0.0,0.0,0.0,0.0,0.0,0.0,0.0,0.0,0.0,0.0,0.0,0.0,0.0,0.0,0.0,0.0,0.0,0.0,0.0,0.0,0.0,0.0,0.0,0.0,0.0,0.0,0.0,0.0,0.0,0.0,0.0,0.0,0.0,0.0,0.0,0.0,0.0,0.0,0.0,0.0,0.0,0.0,0.0,0.0,0.0,0.0,0.0,0.0,0.0,0.0,0.0,0.0,0.0,0.0,0.0,0.0,0.0,0.0,0.0,0.0,0.0,0.0,0.0,0.0,-2.2231,-2.3968,-2.6962,-2.686,-2.6689,-2.7043,-2.6652,-2.5113,-2.217,-2.0478,0.0,0.0,0.0,0.0,0.0,0.0,0.0,0.0,0.0,0.0,0.0,0.0,0.0,0.0,0.0,0.0,0.0,0.0,0.0,0.0,0.0,0.0,0.0,0.0,0.0,0.0,0.0,0.0,0.0,0.0,0.0,0.0,0.0,0.0,0.0,0.0,0.0,0.0,0.0,0.0,0.0,0.0,0.0,0.0,0.0,0.0,0.0,0.0,0.0,0.0,0.0,0.0,0.0,0.0,0.0,0.0,0.0,0.0,0.0,0.0,0.0,0.0,0.0,0.0,0.0,0.0,0.0,0.0,0.0,0.0,0.0,0.0,0.0,0.0,0.0,0.0,0.0,0.0,0.0,0.0,0.0,0.0,0.0,0.0,0.0,0.0,0.0,0.0,0.0,0.0,0.0,0.0,0.0,0.0,0.0,0.0,0.0,0.0,0.0,0.0,0.0,0.0,-2.3746,-2.4398,-2.6301,-2.631,-2.6202,-2.6202,-2.5722,-2.4398,-2.1947,-1.9942,0.0,0.0,0.0,0.0,0.0,0.0,0.0,0.0,0.0,0.0,0.0,0.0,0.0,0.0,0.0,0.0,0.0,0.0,0.0,0.0,0.0,0.0,0.0,0.0,0.0,0.0,0.0,0.0,0.0,0.0,0.0,0.0,0.0,0.0,0.0,0.0,0.0,0.0,0.0,0.0,0.0,0.0,0.0,0.0,0.0,0.0,0.0,0.0,0.0,0.0,0.0,0.0,0.0,0.0,0.0,0.0,0.0,0.0,0.0,0.0,0.0,0.0,0.0,0.0,0.0,0.0,0.0,0.0,0.0,0.0,0.0,0.0,0.0,0.0,0.0,0.0,0.0,0.0,0.0,0.0,0.0,0.0,0.0,0.0,0.0,0.0,0.0,0.0,0.0,0.0,0.0,0.0,0.0,0.0,0.0,0.0,0.0,0.0,0.0,0.0,0.0,0.0,-2.443,-2.6038,-2.6205,-2.6203,-2.6202,-2.6202,-2.4315,-2.2742,-2.1862,-1.853,0.0,0.0,0.0,0.0,0.0,0.0,0.0,0.0,0.0,0.0,0.0,0.0,0.0,0.0,0.0,0.0,0.0,0.0,0.0,0.0,0.0,0.0,0.0,0.0,0.0,0.0,0.0,0.0,0.0,0.0,0.0,0.0,0.0,0.0,0.0,0.0,0.0,0.0,0.0,0.0,0.0,0.0,0.0,0.0,0.0,0.0,0.0,0.0,0.0,0.0,0.0,0.0,0.0,0.0,0.0,0.0,0.0,0.0,0.0,0.0,0.0,0.0,0.0,0.0,0.0,0.0,0.0,0.0,0.0,0.0,0.0,0.0,0.0,0.0,0.0,0.0,0.0,0.0,0.0,0.0,0.0,0.0,0.0,0.0,0.0,0.0,0.0,0.0,0.0,0.0,0.0,0.0,0.0,0.0,0.0,0.0,0.0,0.0,0.0,0.0,0.0,0.0,-2.2937,-2.4679,0.0,-2.6202,-2.6202,-2.6202,-2.5027,-2.3371,-2.1249,0.0,0.0,0.0,0.0,0.0,0.0,0.0,0.0,0.0,0.0,0.0,0.0,0.0,0.0,0.0,0.0,0.0,0.0,0.0,0.0,0.0,0.0,0.0,0.0,0.0,0.0,0.0,0.0,0.0,0.0,0.0,0.0,0.0,0.0,0.0,0.0,0.0,0.0,0.0,0.0,0.0,0.0,0.0,0.0,0.0,0.0,0.0,0.0,0.0,0.0,0.0,0.0,0.0,0.0,0.0,0.0,0.0,0.0,0.0,0.0,0.0,0.0,0.0,0.0,0.0,0.0,0.0,0.0,0.0,0.0,0.0,0.0,0.0,0.0,0.0,0.0,0.0,0.0,0.0,0.0,0.0,0.0,0.0,0.0,0.0,0.0,0.0,0.0,0.0,0.0,0.0,0.0,0.0,0.0,0.0,0.0,0.0,0.0,0.0,0.0,0.0,0.0,-2.0387,-2.2409,-2.4265,0.0,-2.6202,-2.6202,-2.6202,-2.4878,-2.3089,-2.0834,0.0,0.0,0.0,0.0,0.0,0.0,0.0,0.0,0.0,0.0,0.0,0.0,0.0,0.0,0.0,0.0,0.0,0.0,0.0,0.0,0.0,0.0,0.0,0.0,0.0,0.0,0.0,0.0,0.0,0.0,0.0,0.0,0.0,0.0,0.0,0.0,0.0,0.0,0.0,0.0,0.0,0.0,0.0,0.0,0.0,0.0,0.0,0.0,0.0,0.0,0.0,0.0,0.0,0.0,0.0,0.0,0.0,0.0,0.0,0.0,0.0,0.0,0.0,0.0,0.0,0.0,0.0,0.0,0.0,0.0,0.0,0.0,0.0,0.0,0.0,0.0,0.0,0.0,0.0,0.0,0.0,0.0,0.0,0.0,0.0,0.0,0.0,0.0,0.0,0.0,0.0,0.0,0.0,0.0,0.0,0.0,0.0,0.0,0.0,0.0,0.0,0.0,-2.0503,-2.3255,-2.5375,-2.6119,-2.6202,-2.6202,-2.6185,-2.3503,-2.1497,0.0,0.0,0.0,0.0,0.0,0.0,0.0,0.0,0.0,0.0,0.0,0.0,0.0,0.0,0.0,0.0,0.0,0.0,0.0,0.0,0.0,0.0,0.0,0.0,0.0,0.0,0.0,0.0,0.0,0.0,0.0,0.0,0.0,0.0,0.0,0.0,0.0,0.0,0.0,0.0,0.0,0.0,0.0,0.0,0.0,0.0,0.0,0.0,0.0,0.0,0.0,0.0,0.0,0.0,0.0,0.0,0.0,0.0,0.0,0.0,0.0,0.0,0.0,0.0,0.0,0.0,0.0,0.0,0.0,0.0,0.0,0.0,0.0,0.0,0.0,0.0,0.0,0.0,0.0,0.0,0.0,0.0,0.0,0.0,0.0,0.0,0.0,0.0,0.0,0.0,0.0,0.0,0.0,0.0,0.0,0.0,0.0,0.0,0.0,0.0,0.0,0.0,0.0,-1.973,-2.251,-2.4812,-2.6071,-2.6202,-2.5987,-2.5475,-2.4149,-2.2145,-1.9329,0.0,0.0,0.0,0.0,0.0,0.0,0.0,0.0,0.0,0.0,0.0,0.0,0.0,0.0,0.0,0.0,0.0,0.0,0.0,0.0,0.0,0.0,0.0,0.0,0.0,0.0,0.0,0.0,0.0,0.0,0.0,0.0,0.0,0.0,0.0,0.0,0.0,0.0,0.0,0.0,0.0,0.0,0.0,0.0,0.0,0.0,0.0,0.0,0.0,0.0,0.0,0.0,0.0,0.0,0.0,0.0,0.0,0.0,0.0,0.0,0.0,0.0,0.0,0.0,0.0,0.0,0.0,0.0,0.0,0.0,0.0,0.0,0.0,0.0,0.0,0.0,0.0,0.0,0.0,0.0,0.0,0.0,0.0,0.0,0.0,0.0,0.0,0.0,0.0,0.0,0.0,0.0,0.0,0.0,0.0,0.0,0.0,0.0,0.0,0.0,0.0,0.0,-1.9813,-2.2361,-2.458,-2.6036,-2.6202,-2.5887,-2.5176,-2.4431,-2.2544,-1.9138,0.0,0.0,0.0,0.0,0.0,0.0,0.0,0.0,0.0,0.0,0.0,0.0,0.0,0.0,0.0,0.0,0.0,0.0,0.0,0.0,0.0,0.0,0.0,0.0,0.0,0.0,0.0,0.0,0.0,0.0,0.0,0.0,0.0,0.0,0.0,0.0,0.0,0.0,0.0,0.0,0.0,0.0,0.0,0.0,0.0,0.0,0.0,0.0,0.0,0.0,0.0,0.0,0.0,0.0,0.0,0.0,0.0,0.0,0.0,0.0,0.0,0.0,0.0,0.0,0.0,0.0,0.0,0.0,0.0,0.0,0.0,0.0,0.0,0.0,0.0,0.0,0.0,0.0,0.0,0.0,0.0,0.0,0.0,0.0,0.0,0.0,0.0,0.0,0.0,0.0,0.0,0.0,0.0,0.0,0.0,0.0,0.0,0.0,0.0,0.0,0.0,0.0,-2.042,-2.2626,-2.458,-2.6036,-2.6202,-2.5871,-2.5077,-2.4381,-2.2726,-1.9796,0.0,0.0,0.0,0.0,0.0,0.0,0.0,0.0,0.0,0.0,0.0,0.0,0.0,0.0,0.0,0.0,0.0,0.0,0.0,0.0,0.0,0.0,0.0,0.0,0.0,0.0,0.0,0.0,0.0,0.0,0.0,0.0,0.0,0.0,0.0,0.0,0.0,0.0,0.0,0.0,0.0,0.0,0.0,0.0,0.0,0.0,0.0,0.0,0.0,0.0,0.0,0.0,0.0,0.0,0.0,0.0,0.0,0.0,0.0,0.0,-2.0173,0.0,0.0,0.0,0.0,0.0,0.0,0.0,0.0,0.0,0.0,0.0,0.0,0.0,0.0,0.0,0.0,0.0,0.0,0.0,0.0,0.0,0.0,0.0,0.0,0.0,0.0,0.0,0.0,0.0,0.0,0.0,0.0,0.0,0.0,0.0,0.0,0.0,0.0,0.0,0.0,0.0,-2.042,-2.2626,-2.458,-2.6036,-2.6202,-2.5656,-2.4348,-2.41,-2.2726,-1.9796,0.0,0.0,0.0,0.0,0.0,0.0,0.0,0.0,0.0,0.0,0.0,0.0,0.0,0.0,0.0,0.0,0.0,0.0,0.0,0.0,0.0,0.0,0.0,0.0,0.0,0.0,0.0,0.0,0.0,0.0,0.0,0.0,0.0,0.0,0.0,0.0,0.0,0.0,0.0,0.0,0.0,0.0,0.0,0.0,0.0,0.0,0.0,0.0,0.0,0.0,0.0,0.0,0.0,0.0,0.0,0.0,0.0,0.0,0.0,0.0,0.0,-2.164,0.0,0.0,0.0,0.0,0.0,0.0,0.0,0.0,0.0,0.0,0.0,0.0,0.0,0.0,0.0,0.0,0.0,0.0,0.0,0.0,0.0,0.0,0.0,0.0,0.0,0.0,0.0,0.0,0.0,0.0,0.0,0.0,0.0,0.0,0.0,0.0,0.0,0.0,0.0,0.0,-2.1398,-2.3073,-2.458,-2.6036,-2.5871,-2.5226,-2.41,-2.3669,-2.2526,-2.0274,-1.9449,0.0,0.0,0.0,0.0,0.0,0.0,0.0,0.0,0.0,0.0,0.0,0.0,0.0,0.0,0.0,0.0,0.0,0.0,0.0,0.0,0.0,0.0,0.0,0.0,0.0,0.0,0.0,0.0,0.0,0.0,0.0,0.0,0.0,0.0,0.0,0.0,0.0,0.0,0.0,0.0,0.0,0.0,0.0,0.0,0.0,0.0,0.0,0.0,0.0,0.0,0.0,0.0,0.0,-2.7483,-2.8558,-3.0948,-2.9771,-2.9518,-2.9802,-2.6005,-2.4762,-2.5262,0.0,0.0,0.0,0.0,0.0,0.0,0.0,0.0,0.0,0.0,0.0,0.0,0.0,0.0,0.0,0.0,0.0,0.0,0.0,0.0,0.0,0.0,0.0,0.0,0.0,-2.2869,-2.2484,0.0,0.0,0.0,0.0,0.0,0.0,0.0,0.0,0.0,0.0,0.0,0.0,-2.246,-2.3537,-2.458,-2.6036,-2.554,-2.4812,-2.4067,-2.3321,-2.2343,-2.0984,-2.0207,-1.92,0.0,0.0,0.0,0.0,0.0,0.0,0.0,0.0,0.0,0.0,0.0,0.0,0.0,0.0,0.0,0.0,0.0,0.0,0.0,0.0,0.0,0.0,0.0,0.0,0.0,0.0,0.0,0.0,0.0,0.0,0.0,0.0,-1.7543,-1.9125,0.0,0.0,0.0,0.0,0.0,0.0,0.0,0.0,0.0,0.0,0.0,0.0,0.0,0.0,-2.823,-2.96,-3.0037,-2.9538,-3.0799,-3.1256,-3.1034,-3.1492,-3.1401,-3.0853,-3.0912,0.0,-2.7007,-2.6005,0.0,0.0,0.0,0.0,0.0,0.0,0.0,0.0,0.0,0.0,0.0,0.0,0.0,0.0,0.0,0.0,0.0,0.0,0.0,0.0,0.0,0.0,-2.4894,-2.4364,-2.407,-2.3751,0.0,-2.112,-1.9118,-1.8373,0.0,0.0,0.0,0.0,0.0,0.0,0.0,0.0,-2.2592,-2.3537,-2.458,-2.6036,-2.554,-2.4812,-2.4067,-2.3321,-2.2526,-2.1713,-2.0967,-2.0119,-1.9192,-1.766,0.0,0.0,0.0,0.0,0.0,0.0,0.0,0.0,0.0,0.0,0.0,0.0,0.0,0.0,0.0,0.0,0.0,0.0,0.0,0.0,0.0,0.0,0.0,0.0,0.0,0.0,0.0,0.0,0.0,-1.7656,-1.9144,-2.0333,-2.0577,-2.0446,0.0,0.0,0.0,0.0,0.0,0.0,0.0,0.0,0.0,-2.951,-2.909,-2.9266,-3.0197,-3.089,-3.145,-3.1818,-3.2542,-3.3158,-3.3701,-3.3592,-3.3357,-3.2995,-3.2433,-3.1401,-2.997,-2.8238,-2.6681,-2.5215,0.0,0.0,0.0,0.0,-2.3161,-2.3596,-2.4491,-2.4817,0.0,0.0,0.0,0.0,0.0,0.0,0.0,0.0,0.0,0.0,0.0,0.0,0.0,-2.5546,-2.543,-2.5178,-2.4713,-2.3587,-2.2229,0.0,-2.0108,-1.9426,-1.7855,0.0,0.0,0.0,0.0,0.0,-2.3189,-2.3802,-2.4414,-2.5475,-2.4928,-2.4183,-2.3437,-2.2631,-2.204,-2.1711,-2.1277,-2.068,-1.989,-1.8769,-1.7319,0.0,0.0,0.0,0.0,0.0,0.0,0.0,0.0,0.0,0.0,0.0,0.0,0.0,0.0,0.0,0.0,0.0,0.0,0.0,0.0,0.0,0.0,0.0,0.0,0.0,0.0,0.0,0.0,-1.9388,-2.0821,-2.1835,-2.2717,-2.2905,0.0,0.0,0.0,0.0,0.0,0.0,-2.8312,-2.8316,-2.9627,-3.265,-3.1825,-3.182,-3.2843,-3.283,-3.3227,-3.4027,-3.4226,-3.4842,-3.5786,-3.5385,-3.4987,-3.4537,-3.3556,-3.2886,-3.2343,-3.012,-2.8726,-2.7906,-2.6693,-2.578,-2.5183,-2.595,-2.6222,-2.6421,-2.7834,-2.8196,-2.7881,-2.7144,0.0,-2.5194,-2.378,0.0,0.0,0.0,0.0,-2.4271,-2.559,-2.5847,-2.5849,-2.6248,-2.6312,-2.6109,-2.5525,-2.5243,-2.4564,0.0,-2.2361,-2.1831,-2.0194,0.0,0.0,0.0,0.0,-2.1087,-2.3669,-2.3835,-2.4149,-2.5259,-2.4381,-2.3554,-2.3142,-2.2175,-2.1589,-2.1528,-2.1388,-2.1051,-2.0456,-1.9657,-1.8543,-1.7056,0.0,0.0,0.0,0.0,0.0,0.0,0.0,0.0,0.0,0.0,0.0,0.0,0.0,0.0,0.0,0.0,0.0,0.0,0.0,0.0,0.0,0.0,0.0,0.0,0.0,0.0,0.0,0.0,0.0,-2.4332,-2.5278,0.0,0.0,0.0,0.0,-2.7844,-2.8107,-2.9242,-3.171,-3.1832,-3.2901,-3.5237,-3.4511,-3.5031,-3.697,-3.7006,-3.6541,-3.5677,-3.6435,-3.6453,-3.5822,-3.6544,-3.6053,-3.4627,-3.5315,-3.4751,-3.3212,-3.1564,-3.0418,-2.9676,-2.9585,-2.9065,-2.8455,-2.9259,-2.9567,-2.9676,-3.0527,-3.0328,-2.9676,-2.9626,-2.8545,-2.7199,-2.6859,-2.6034,0.0,0.0,-2.5904,-2.5741,-2.6828,-2.6774,-2.6452,-2.6468,-2.6345,-2.6203,-2.6152,-2.559,-2.4862,0.0,-2.3884,-2.3851,-2.3735,0.0,-2.2692,-2.2725,-2.2129,-2.2245,-2.3802,-2.3388,-2.3768,-2.5921,-2.4232,-2.3158,-2.3621,-2.2391,-2.1528,-2.1341,-2.1325,-2.123,-2.1055,-2.0334,-1.9221,-1.7681,-1.6228,0.0,0.0,0.0,0.0,0.0,0.0,0.0,0.0,0.0,0.0,0.0,0.0,0.0,0.0,0.0,0.0,0.0,0.0,0.0,0.0,0.0,0.0,0.0,0.0,0.0,0.0,0.0,0.0,-2.6896,-2.8303,0.0,0.0,-2.8387,-2.9054,-2.9936,-3.048,-3.1879,-3.4414,-3.3892,-3.4885,-3.7858,-3.6837,-3.6838,-3.812,-3.7437,-3.693,-3.6562,-3.6345,-3.6091,-3.5804,-3.6109,-3.591,-3.5388,-3.5677,-3.546,-3.4899,-3.4335,-3.2995,-3.1288,-3.0781,-3.04,-3.0188,-3.0473,-3.0581,-3.0618,-3.0908,-3.0817,-3.0491,-2.9965,-2.9273,-2.8506,-2.7893,-2.7169,-2.6606,-2.6883,-2.6642,-2.6386,-2.6724,-2.6691,-2.652,-2.6399,-2.6312,-2.6241,-2.6203,-2.5987,-2.5722,-2.5475,-2.4646,-2.4,-2.4,-2.3785,-2.3603,-2.3603,-2.3388,-2.357,-2.458,-2.4481,-2.463,-2.5407,-2.4365,-2.3456,-2.3096,-2.2035,-2.1341,-2.1183,-2.1039,-2.0958,-2.0909,-2.0242,-1.9402,-1.8362,-1.6957,-1.5327,0.0,0.0,0.0,0.0,0.0,0.0,0.0,0.0,0.0,0.0,0.0,0.0,0.0,0.0,0.0,0.0,0.0,0.0,0.0,0.0,0.0,0.0,0.0,0.0,0.0,0.0,-2.7317,-2.8679,-3.0293,-3.111,-3.0565,-3.126,-3.2095,-3.2931,-3.3494,-3.4639,-3.661,-3.6045,-3.6652,-3.8803,-3.8002,-3.7868,-3.8559,-3.7874,-3.7457,-3.7393,-3.6852,-3.6616,-3.6616,-3.6616,-3.6472,-3.62,-3.62,-3.591,-3.5406,-3.5677,-3.4715,-3.2958,-3.2415,-3.2053,-3.1799,-3.1799,-3.1799,-3.1799,-3.1799,-3.1618,-3.1324,-3.0781,-3.0279,-2.9729,-2.8963,-2.8453,-2.8116,-2.8004,-2.7553,-2.7097,-2.7182,-2.6894,-2.652,-2.6399,-2.6312,-2.6241,-2.6203,-2.6202,-2.6202,-2.6202,-2.5407,-2.4746,-2.4746,-2.4547,-2.4381,-2.4381,-2.4166,-2.4265,-2.5011,-2.4878,-2.4928,-2.5425,-2.4597,-2.3736,-2.3096,-2.2199,-2.1504,-2.1119,-2.0909,-2.0794,-2.0794,-2.0162,-1.9436,-1.8709,-1.732,-1.588,-1.4413,0.0,0.0,0.0,0.0,0.0,0.0,0.0,0.0,0.0,0.0,0.0,0.0,0.0,0.0,0.0,0.0,0.0,0.0,0.0,0.0,0.0,0.0,0.0,-2.4812,-2.6952,-2.8848,-2.9701,-3.1241,-3.2217,-3.2217,-3.3006,-3.4508,-3.6922,-3.711,-3.7437,-3.8263,-3.8288,-3.8222,-3.8074,-3.8048,-3.8215,-3.8564,-3.853,-3.8437,-3.8245,-3.8209,-3.8209,-3.8209,-3.8209,-3.7774,-3.7049,-3.7049,-3.6127,-3.4751,-3.5514,-3.5351,-3.4606,-3.4606,-3.4117,-3.3429,-3.3411,-3.3393,-3.3393,-3.3393,-3.2886,-3.2234,-3.2198,-3.1673,-3.0892,-3.0221,-2.9999,-2.9935,-2.959,-2.8682,-2.7912,-2.8266,-2.7436,-2.6502,-2.6485,-2.6345,-2.6202,-2.6202,-2.6202,-2.6202,-2.6202,-2.6202,-2.6202,-2.6202,-2.5624,-2.5143,-2.5143,-2.453,0.0,-2.5044,-2.4514,-2.4596,-2.6036,-2.4861,-2.3902,-2.3702,-2.2866,-2.2005,-2.1151,-2.0909,-2.0794,-2.0794,-2.0162,-1.9436,-1.8709,-1.7336,-1.5822,-1.42,0.0,0.0,0.0,0.0,0.0,0.0,0.0,0.0,0.0,0.0,0.0,0.0,0.0,0.0,0.0,0.0,0.0,0.0,0.0,0.0,0.0,0.0,-2.7384,-2.7384,-2.9523,-3.141,-3.2292,-3.3851,-3.4864,-3.4864,-3.5597,-3.6378,-3.7054,-3.711,-3.7437,-3.8263,-3.8166,-3.8592,-3.9708,-3.9424,-3.9551,-4.0227,-3.9518,-3.9128,-3.9061,-3.848,-3.8209,-3.8209,-3.8209,-3.8082,-3.7865,-3.7865,-3.7285,-3.6361,-3.6578,-3.5856,-3.4606,-3.4606,-3.4461,-3.4208,-3.3628,-3.3393,-3.3393,-3.3393,-3.3266,-3.2977,-3.2379,-3.1888,-3.136,-3.0609,-3.0236,-2.9927,-2.9255,-2.8668,-2.8097,-2.7481,-2.6894,-2.645,-2.631,-2.6239,-2.6202,-2.6202,-2.6202,-2.6202,-2.6202,-2.6202,-2.6202,-2.6202,-2.602,-2.5887,-2.5887,-2.5722,0.0,-2.5871,-2.5723,-2.5686,-2.5939,-2.4656,-2.3702,-2.35,-2.2247,-2.136,-2.1119,-2.0909,-2.0794,-2.0794,-2.0162,-1.9436,-1.8709,-1.7841,-1.7086,0.0,0.0,0.0,0.0,0.0,0.0,0.0,0.0,0.0,0.0,0.0,0.0,0.0,0.0,0.0,0.0,0.0,0.0,0.0,0.0,0.0,0.0,-2.8322,-3.0086,-3.0443,-3.1738,-3.31,-3.4301,-3.5315,-3.616,-3.6836,-3.7324,-3.7749,-3.8124,-3.8462,-3.8713,-3.8845,-3.8956,-3.9244,-3.9756,-3.9409,-3.9376,-3.9768,-3.92,-3.8915,-3.888,-3.8426,-3.8209,-3.8209,-3.8209,-3.8209,0.0,-3.8209,-3.7738,-3.6995,-3.6995,-3.6236,0.0,0.0,0.0,0.0,0.0,-3.3393,-3.3393,-3.3393,-3.3393,-3.3321,-3.285,-3.2585,-3.2295,-3.166,-3.1118,-3.0641,-3.0165,-2.9316,-2.8439,-2.7892,-2.7211,-2.6607,-2.638,-2.6257,-2.6202,-2.6202,-2.6202,-2.6202,-2.6202,0.0,0.0,-2.6202,-2.6202,-2.6202,-2.6202,-2.6202,-2.6202,-2.6202,-2.6202,-2.615,-2.6041,-2.4988,-2.4114,-2.3701,-2.2426,0.0,0.0,0.0,-2.0668,-2.0383,-2.0004,0.0,0.0,0.0,0.0,0.0,0.0,0.0,0.0,-1.6156,-1.6371,0.0,0.0,0.0,0.0,0.0,0.0,0.0,0.0,0.0,0.0,0.0,0.0,0.0,0.0,0.0,0.0,-3.0818,-3.2649,-3.3438,-3.3625,-3.4226,-3.5728,-3.5972,-3.6629,-3.815,-3.8469,-3.8901,-3.9683,-4.0478,-4.0609,-3.9908,0.0,0.0,0.0,0.0,-3.872,-3.8513,-3.8513,-3.846,-3.8354,-3.8354,-3.8299,-3.8209,-3.8209,-3.8209,-3.8209,-3.8209,-3.7738,-3.6995,-3.6995,-3.6472,-3.5587,-3.4881,-3.4117,-3.3393,-3.3393,-3.3393,-3.3393,-3.3393,0.0,0.0,-3.3393,-3.3393,-3.3316,-3.2972,-3.2306,-3.1645,-3.1556,-3.0242,-2.8838,-2.8752,-2.7837,-2.6856,-2.6572,-2.6345,-2.6203,-2.6203,-2.6203,-2.6202,-2.6202,-2.6202,-2.6202,-2.6202,-2.6202,-2.6202,-2.6202,-2.6202,-2.6202,-2.6202,-2.6202,-2.6169,-2.6052,0.0,0.0,-2.3918,-2.2932,-2.207,-2.1342,-2.099,-2.0526,-1.9941,-1.9909,-1.9909,-1.9909,-1.9909,-1.9981,-2.0112,-2.0637,-2.0699,-2.0262,-1.8477,-1.8245,0.0,0.0,0.0,0.0,0.0,0.0,0.0,0.0,0.0,0.0,0.0,0.0,0.0,0.0,0.0,-3.1091,-3.2912,-3.417,-3.4339,-3.4977,-3.554,-3.5859,-3.646,-3.7249,-3.8206,-3.9521,-4.0384,-4.0553,-4.131,-4.1704,-4.1535,-4.1478,0.0,-4.1146,-4.0888,-4.0638,-4.0381,-4.0381,-3.9972,-3.9187,0.0,0.0,-3.8209,-3.8209,-3.8209,-3.8209,-3.8209,-3.7738,-3.6995,-3.6995,-3.6127,-3.4824,-3.4645,-3.4117,-3.3393,-3.3393,-3.3393,-3.3393,-3.3393,-3.3393,-3.3393,-3.3393,-3.3393,-3.3396,-3.3319,-3.2726,0.0,-3.1299,-3.0187,-2.8994,-2.8017,-2.7423,-2.6972,-2.6589,-2.6399,-2.6294,-2.6294,-2.624,-2.6202,-2.6202,-2.6202,-2.6202,-2.6202,-2.6202,-2.6202,-2.6202,-2.6202,-2.6202,-2.6202,-2.6202,-2.59,-2.5149,-2.4935,-2.4311,-2.2981,-2.2475,-2.1972,-2.1342,-2.099,-2.0731,-2.0605,-2.0605,-2.0605,-2.0605,-2.0605,-2.0651,-2.0728,-2.0834,-2.1142,-2.1612,-2.0683,-2.0393,0.0,0.0,0.0,0.0,0.0,0.0,0.0,0.0,0.0,0.0,0.0,-2.7064,0.0,0.0,-3.1316,-3.2555,-3.4151,-3.524,-3.524,-3.5972,-3.6498,-3.6498,-3.6866,-3.7603,-3.8884,-4.0084,-4.0823,-4.0885,-4.2,-4.2455,-4.2023,-4.2188,-4.2126,-4.1702,-4.1305,-4.1034,-4.0903,-4.077,-4.0269,-3.9387,-3.9387,-3.8988,-3.8209,-3.8209,-3.8209,-3.8209,-3.8209,-3.7973,-3.7538,-3.6725,-3.5693,-3.457,-3.4172,-3.3755,-3.3393,-3.3393,-3.3393,-3.3393,-3.3393,-3.3393,-3.3393,-3.3393,-3.3393,-3.3393,-3.3393,-3.2832,-3.2035,-3.1234,-3.0292,-2.9245,-2.7947,-2.7439,-2.7162,-2.6623,-2.6416,-2.6295,-2.6276,-2.6221,-2.6202,-2.6202,-2.6202,-2.6202,-2.6202,-2.6202,-2.6202,-2.6202,-2.6202,-2.6202,-2.6202,-2.6202,-2.6017,-2.5549,-2.5171,-2.4608,-2.3767,-2.2748,-2.1983,-2.1614,-2.1099,-2.0794,-2.0794,-2.0794,-2.0794,-2.0794,-2.0663,-2.0547,-2.0458,-2.0941,-2.1302,-2.1511,-2.1794,-2.1953,0.0,0.0,0.0,0.0,0.0,0.0,0.0,0.0,-2.5431,-2.7768,-2.8844,-2.9786,-3.1137,-3.218,-3.3062,-3.3776,-3.5277,-3.631,-3.616,-3.6817,-3.7336,-3.7336,-3.7336,-3.7965,-3.9561,-4.0497,-4.108,-4.1192,-4.2647,-4.3238,-4.2511,-4.2955,-4.2911,-4.2263,-4.1767,-4.1511,-4.1445,-4.1175,-4.0636,-3.984,-3.9695,-3.9188,-3.8426,-3.8281,-3.8209,-3.8209,-3.8209,-3.8209,-3.8082,-3.6472,-3.5406,-3.4736,-3.3791,-3.3393,-3.3393,-3.3393,-3.3393,-3.3393,-3.3393,-3.3393,-3.3393,-3.3393,-3.3393,-3.3375,-3.3212,-3.2596,-3.1799,-3.0998,-3.0201,-2.9286,-2.8088,-2.7648,-2.7376,-2.6775,-2.6469,-2.6312,-2.6239,-2.6203,-2.6202,-2.6202,-2.6202,-2.6202,-2.6202,-2.6202,-2.6202,-2.6202,-2.6202,-2.6202,-2.6202,-2.6202,-2.6152,-2.5987,-2.5573,-2.5173,-2.4764,-2.3135,-2.2042,-2.1902,-2.1205,-2.0794,-2.0794,-2.0794,-2.0794,-2.0794,-2.0595,-2.0447,-2.0367,-2.1175,-2.1517,-2.1394,-2.2432,-2.2888,-2.1972,-2.1456,0.0,-2.398,-2.4493,-2.526,0.0,0.0,-2.9494,-3.1204,-3.2246,-3.2902,-3.3089,-3.4414,-3.5503,-3.5597,-3.6986,-3.7774,-3.7073,-3.7662,-3.8169,-3.8169,-3.8169,-3.8573,-3.9599,-4.1005,-4.1867,-4.1899,-4.3426,-4.4313,-4.4219,-4.428,-4.4285,-4.4191,-4.389,-4.3627,-4.3385,-4.3115,-4.2468,-4.1433,-4.0709,-4.0003,-3.9224,-3.8535,-3.8209,-3.8209,-3.8209,-3.8209,-3.8082,-3.6472,-3.575,-3.5514,-3.3991,-3.3393,-3.3393,-3.3393,-3.3393,-3.3393,-3.3393,-3.3393,-3.3393,-3.3393,-3.3393,-3.3266,-3.2542,-3.1763,-3.098,-3.0165,-2.9355,-2.8626,-2.8179,-2.7869,-2.7565,-2.7151,-2.6742,-2.6434,-2.6329,-2.624,-2.6202,-2.6202,-2.6202,-2.6202,-2.6202,-2.6202,-2.6202,-2.6202,-2.6202,-2.6202,-2.6202,-2.6202,-2.5937,-2.5292,-2.574,-2.5664,-2.4619,-2.3032,-2.2026,-2.182,-2.1157,-2.0794,-2.0794,-2.0794,-2.0794,-2.0794,-2.0778,-2.105,-2.1689,-2.1801,-2.214,-2.2685,-2.283,-2.2888,-2.3778,0.0,0.0,0.0,-2.628,-2.7282,-2.864,-2.9345,-3.0152,-3.1767,-3.2799,-3.355,-3.4001,-3.509,-3.5897,0.0,-3.7249,-3.8188,-3.785,-3.8094,-3.8324,-3.8413,-3.8348,-3.8667,-3.9618,-4.0666,-4.1556,-4.2196,-4.3205,-4.4035,-4.4587,-4.4537,-4.4501,-4.4501,-4.4094,-4.3809,-4.3695,-4.3285,-4.2614,-4.1705,-4.1361,-4.0782,-4.0021,-3.9242,-3.8644,-3.8209,-3.8209,-3.8209,-3.8082,-3.6472,-3.5804,-3.5641,-3.4027,-3.3393,-3.3393,-3.3393,-3.3393,-3.3393,-3.3393,-3.3393,-3.3393,-3.3393,-3.3393,-3.3339,-3.2995,-3.2651,-3.2125,-3.0871,-3.026,-2.9705,-2.8434,-2.7897,-2.758,-2.7099,-2.6742,-2.645,-2.6276,-2.6221,-2.6202,-2.6202,-2.6202,-2.6202,-2.6202,-2.6202,-2.6202,-2.6202,-2.6202,-2.6202,-2.6202,-2.6202,-2.607,-2.5772,-2.5535,-2.5197,-2.4728,-2.3084,-2.206,-2.1992,-2.124,-2.0794,-2.0794,-2.0794,-2.0794,-2.0794,-2.0662,-2.0822,-2.1315,-2.1549,-2.1913,-2.2374,-2.2751,-2.2888,-2.5318,0.0,0.0,-2.6805,-2.7577,-2.8519,-2.897,-2.9579,-3.049,-3.2123,-3.2968,-3.3644,-3.4451,-3.5315,0.0,-3.6179,-3.7399,-3.8375,-3.8619,-3.845,-3.843,-3.8768,-3.8545,-3.8715,-3.9618,-4.0402,-4.1274,-4.2274,-4.2957,-4.3713,-4.4608,-4.4551,-4.4501,-4.4501,-4.3986,-4.3695,-4.3695,-4.316,-4.2611,-4.2012,-4.1813,-4.1397,-4.08,-3.984,-3.8952,-3.8209,-3.8209,-3.8209,-3.81,-3.6707,-3.5985,-3.5659,-3.428,-3.361,-3.3393,-3.3393,-3.3393,-3.3393,-3.3393,-3.3393,-3.3393,-3.3393,-3.3393,-3.3357,-3.314,-3.3067,-3.2723,-3.1125,-3.0672,-3.0292,-2.8654,-2.8024,-2.7695,-2.7255,-2.6873,-2.6555,-2.6363,-2.6239,-2.6202,-2.6202,-2.6202,-2.6202,-2.6202,-2.6202,-2.6202,-2.6202,-2.6202,-2.6202,-2.6202,-2.6202,-2.6119,-2.5921,-2.5234,-2.4782,-2.4711,-2.3118,-2.2237,-2.2584,-2.1652,-2.1094,-2.1094,-2.1094,-2.1,-2.0794,-2.0596,-2.0725,-2.1178,-2.1464,-2.1828,-2.2265,-2.2707,-2.2888,0.0,0.0,-2.6683,-2.8161,-2.8454,-2.882,-3.0443,-3.0837,-3.1344,-3.3014,-3.3371,-3.3644,-3.4451,-3.5315,-3.616,-3.6941,-3.7756,-3.8601,-3.9439,-3.8826,-3.8619,-3.9458,-3.8926,-3.8807,0.0,-4.0486,-4.1323,-4.2152,-4.2951,-4.3728,-4.4458,-4.4501,-4.4501,-4.4501,-4.3986,-4.3695,-4.3695,-4.316,-4.2901,-4.2865,-4.2085,-4.1687,-4.1614,-4.0093,-3.8952,-3.8209,-3.8209,-3.8209,-3.8136,-3.7303,-3.649,-3.5713,-3.4881,-3.4099,-3.3393,-3.3393,-3.3393,-3.3393,-3.3393,-3.3393,-3.3393,-3.3393,-3.3393,-3.3248,-3.2469,-3.2234,-3.189,-3.0292,-2.9839,-2.9626,-2.8799,-2.8339,-2.8034,-2.7815,-2.7334,-2.684,-2.6623,-2.638,-2.6202,-2.6202,-2.6202,-2.6202,-2.6202,-2.6202,-2.6202,-2.6202,-2.6202,-2.6202,-2.6202,-2.6202,-2.5921,-2.5209,-2.4921,-2.4711,-2.4531,-2.3031,-2.2598,-2.3765,-2.2596,-2.1869,-2.1869,-2.1869,-2.1521,-2.081,-2.0794,-2.113,-2.187,-2.1866,-2.2235,-2.2859,-2.2888,-2.2888,0.0,0.0,-2.7941,-2.8368,-2.8874,-2.942,-2.9983,-3.0096,-3.0415,-3.1513,-3.1738,-3.1982,-3.278,-3.4095,-3.5315,-3.616,-3.7437,-3.8601,-3.9477,-3.8845,-3.8437,-3.8813,-3.8652,0.0,0.0,0.0,0.0,-4.1472,-4.2128,-4.2867,-4.3798,-4.4255,-4.4501,-4.4501,-4.3986,-4.3695,-4.3695,-4.316,-4.2901,-4.2901,-4.2629,-4.194,-4.089,-4.0383,-3.9423,-3.8209,-3.8209,-3.8209,-3.8136,-3.7339,-3.6526,-3.5713,-3.4899,-3.4117,-3.3393,-3.3393,-3.3393,-3.3393,-3.3393,-3.3393,-3.3393,-3.3393,-3.3393,-3.3357,-3.3085,-3.2995,-3.2651,-3.1053,-3.06,-3.0278,-2.8944,-2.8352,-2.8047,-2.7844,-2.7472,-2.7067,-2.6674,-2.6537,-2.6415,-2.6221,-2.6202,-2.6202,-2.6202,-2.6202,-2.6202,-2.6202,-2.6202,-2.6202,-2.6202,-2.6202,-2.5921,-2.5193,-2.4612,-2.4197,-2.3993,-2.2491,-2.2082,-2.3297,-2.2394,-2.2041,-2.255,-2.2566,-2.2455,-2.2202,-2.2202,-2.2428,-2.2893,-2.2661,-2.2789,-2.3238,-2.3008,-2.2888,0.0,-2.7637,-2.8707,-2.9184,-2.9495,-2.9777,-3.0058,-2.9908,-2.9852,-3.0359,-3.0462,-3.0715,-3.1523,-3.2555,-3.3851,-3.5615,-3.6779,-3.8056,-3.9777,-3.9032,-3.8662,-3.9649,-3.9309,0.0,0.0,0.0,0.0,-4.1579,-4.2171,-4.2904,-4.3804,-4.4274,-4.4501,-4.4501,-4.3986,-4.3695,-4.3695,-4.316,-4.2755,-4.2466,-4.2466,-4.1651,-4.0111,-4.0111,-3.9405,-3.8209,-3.8209,-3.8209,-3.8172,-3.7647,-3.6779,-3.575,-3.5225,-3.4371,-3.3393,-3.3393,-3.3393,-3.3393,-3.3393,-3.3393,-3.3393,-3.3393,-3.3393,-3.3393,-3.3393,-3.3194,-3.2705,-3.1379,-3.0799,-3.0273,-2.8944,-2.8435,-2.8233,-2.8003,-2.7698,-2.7382,-2.6974,-2.6742,-2.6554,-2.638,-2.6273,-2.6202,-2.6202,-2.6202,-2.6202,-2.6202,-2.6202,-2.6202,-2.6202,-2.6202,-2.5921,-2.5193,-2.4679,-2.4182,-2.3634,-2.2638,-2.2422,-2.3344,-2.2853,-2.2751,-2.3228,-2.3259,-2.3133,-2.2898,-2.2789,-2.2895,-2.3216,-2.2874,-2.2888,-2.3216,-2.3,-2.2888,-2.7274,-2.8092,-2.9076,-3.0537,-3.034,-2.9964,-3.0724,-3.0246,-2.9626,-2.9626,-2.9589,-2.9814,0.0,0.0,-3.1963,-3.524,-3.5878,-3.7099,-4.0347,-3.9427,-3.9333,0.0,0.0,0.0,0.0,0.0,0.0,-4.2477,0.0,-4.3723,-4.4416,-4.451,-4.4528,-4.4515,-4.3999,-4.3712,-4.3695,-4.316,-4.252,-4.1759,-4.1723,-4.0908,-3.946,-3.9405,-3.8952,-3.8209,-3.8209,-3.8209,-3.8209,-3.8172,-3.7214,-3.5804,-3.575,-3.4772,-3.3393,-3.3393,-3.3393,-3.3393,-3.3393,-3.3393,-3.3393,-3.3393,-3.3393,-3.3393,-3.3393,-3.2832,-3.2035,-3.1234,-3.0418,-2.9621,-2.8799,-2.86,-2.8536,-2.8255,-2.8021,-2.7745,-2.7465,-2.699,-2.664,-2.6623,-2.6398,-2.622,-2.6202,-2.6202,-2.6202,-2.6202,-2.6202,-2.6202,-2.6202,-2.6202,-2.5921,-2.5193,-2.511,-2.4642,-2.3544,-2.3413,-2.3562,-2.3923,-2.392,-2.392,-2.3951,-2.3951,-2.367,-2.3025,-2.2692,-2.2663,-2.298,-2.262,-2.2606,-2.2933,-2.2925,-2.2888,-2.8233,-2.928,-3.0406,-3.0809,-3.0743,-3.0649,-3.0856,-2.9786,-2.8735,-2.8735,-2.8247,-2.7899,-2.8106,0.0,0.0,-3.37,-3.5597,0.0,-4.0422,-4.044,0.0,0.0,0.0,-4.1973,-4.2506,-4.3121,0.0,0.0,-4.3554,-4.371,-4.3881,-4.4474,-4.4745,-4.4659,-4.4327,-4.3992,-4.3695,-4.316,-4.2792,-4.2592,-4.1976,-4.118,-4.0202,-3.9641,-3.8952,-3.8209,-3.8209,-3.8209,-3.8154,-3.7557,-3.6707,-3.5731,-3.5134,-3.4298,-3.3393,-3.3393,-3.3393,-3.3393,-3.3393,-3.3393,-3.3393,-3.3393,-3.3393,-3.3393,-3.3393,-3.2832,-3.2035,-3.1234,-3.0418,-2.9621,-2.8799,-2.86,-2.8536,-2.8255,-2.8146,-2.7979,-2.7494,-2.7294,-2.7136,-2.6941,-2.6674,-2.6433,-2.6221,-2.6202,-2.6202,-2.6202,-2.6202,-2.6202,-2.6202,-2.6202,-2.5921,-2.5193,-2.511,-2.4873,-2.4272,-2.372,-2.377,-2.4657,-2.4207,-2.416,-2.4701,-2.4717,-2.4638,-2.4464,-2.4131,-2.4003,-2.4097,-2.3462,-2.3193,-2.3268,-2.3023,-2.2888,-2.8508,-2.9681,-3.0987,-3.1344,-3.1156,-3.0893,-3.0893,-2.9598,-2.8209,-2.7486,-2.6979,0.0,0.0,0.0,0.0,0.0,0.0,0.0,-3.9858,-4.0572,-4.1299,0.0,-4.2891,0.0,-4.3653,-4.4157,-4.4467,0.0,-4.4311,-4.4225,-4.4225,-4.4649,-4.4877,-4.4783,-4.453,-4.414,-4.3609,-4.3267,-4.265,-4.1832,-4.1379,-4.0583,-3.9478,-3.9061,-3.8644,-3.8209,0.0,-3.8009,-3.7647,-3.7194,-3.6309,-3.5225,-3.4787,-3.4117,-3.3393,-3.3393,-3.3393,-3.3393,-3.3393,-3.3393,-3.3393,-3.3393,-3.3393,-3.3393,-3.3393,-3.2832,-3.2035,-3.1234,-3.0418,-2.9621,-2.8799,-2.86,-2.8549,-2.834,-2.8286,-2.816,-2.7751,-2.7554,-2.7402,-2.707,-2.6775,-2.6537,-2.6398,-2.6274,-2.6202,-2.6202,-2.6202,-2.6202,-2.6202,-2.6202,-2.6036,-2.5623,-2.5573,-2.5301,-2.4549,-2.4418,-2.44,-2.4515,-2.4428,-2.4574,-2.497,-2.5005,-2.5005,-2.5005,-2.4681,-2.4498,-2.4498,-2.3946,-2.3573,-2.3384,-2.3216,-2.3031,-2.8566,-2.9711,-3.1062,-3.1767,-3.1419,-3.0875,-3.0762,-2.9448,-2.7815,-2.6311,0.0,0.0,-2.5831,0.0,-2.8237,-3.1429,0.0,-3.5664,-3.9101,-4.0315,-4.1494,-4.3253,-4.3717,-4.4201,-4.4992,-4.5203,-4.5307,-4.5307,-4.5072,-4.4943,-4.4943,-4.4943,-4.4943,-4.4919,-4.4636,-4.419,-4.3621,-4.3297,-4.232,-4.0708,-4.0456,-3.9659,-3.8372,-3.8263,-3.8209,-3.8209,0.0,0.0,-3.6995,-3.6886,-3.5946,-3.4591,-3.448,-3.4009,-3.3393,-3.3393,-3.3393,-3.3393,-3.3393,-3.3393,-3.3393,-3.3393,-3.3393,-3.3393,-3.3393,-3.2832,-3.2035,-3.1234,-3.0418,-2.9621,-2.8799,-2.86,-2.8562,-2.8419,-2.8411,-2.8331,-2.8071,-2.7806,-2.7491,-2.7086,-2.6809,-2.6623,-2.6571,-2.6345,-2.6202,-2.6202,-2.6202,-2.6202,-2.6202,-2.6202,-2.6202,-2.6202,-2.6202,-2.5796,-2.4783,-2.5248,-2.5158,-2.4154,-2.4653,-2.5005,-2.5005,-2.5005,-2.5005,-2.5005,-2.4681,-2.4498,-2.4498,-2.4151,-2.3818,-2.3486,-2.3486,-2.3304,-2.9476,-3.0161,-3.0931,-3.1062,-3.1006,-3.0724,-3.0058,-2.8612,0.0,0.0,0.0,-2.4933,-2.4933,-2.6172,0.0,-3.0687,0.0,0.0,0.0,0.0,-4.155,0.0,0.0,0.0,0.0,0.0,0.0,0.0,0.0,0.0,-4.5224,-4.5224,-4.5181,-4.508,-4.4597,-4.4289,-4.4154,-4.2929,-4.2133,-4.1789,-4.0307,-3.9441,-3.9187,-3.8517,-3.8209,-3.8209,0.0,0.0,-3.6941,-3.6272,-3.5457,-3.4534,-3.3864,-3.352,-3.3393,-3.3393,-3.3393,-3.3393,-3.3393,-3.3393,-3.3393,-3.3393,-3.3393,-3.3393,-3.3393,-3.2832,-3.2035,-3.1234,-3.0418,-2.9621,-2.8799,-2.86,-2.8562,-2.8419,-2.8411,-2.8331,-2.8071,-2.7836,-2.7552,-2.7103,-2.6957,-2.6792,-2.6345,-2.6238,-2.6202,-2.6202,-2.6202,-2.6202,-2.6202,-2.6202,-2.6202,-2.6202,-2.6202,-2.6064,-2.5699,-2.5629,-2.5438,-2.508,-2.502,-2.5005,-2.5005,-2.5005,-2.5005,-2.5005,-2.4681,-2.4498,-2.4498,-2.4151,-2.3961,-2.3903,-2.3903,-2.3674,-2.957,-3.0283,-3.0893,-3.0893,-3.0593,-3.0058,-2.9204,0.0,0.0,0.0,0.0,-2.47,-2.47,0.0,0.0,0.0,0.0,0.0,0.0,0.0,0.0,0.0,0.0,0.0,0.0,0.0,0.0,0.0,0.0,0.0,-4.5307,-4.5307,-4.5275,-4.5203,-4.4445,-4.395,-4.3777,-4.2571,-4.164,-4.105,-4.0035,-3.9337,-3.8919,-3.8422,-3.8209,-3.8209,-3.8209,0.0,-3.6345,-3.5965,-3.508,-3.3936,-3.3556,-3.3393,-3.3393,-3.3393,-3.3393,-3.3339,-3.2922,-3.3049,-3.3339,-3.2904,-3.3067,-3.3393,-3.3393,-3.2832,-3.2035,-3.1234,-3.0418,-2.9621,-2.8799,-2.86,-2.8574,-2.851,-2.8445,-2.8358,-2.815,-2.7847,-2.7567,-2.7261,-2.699,-2.6708,-2.6451,-2.6292,-2.6202,-2.6202,-2.6202,-2.6202,-2.6202,-2.6202,-2.6202,-2.6202,-2.6202,-2.5949,-2.5375,-2.5234,-2.5051,-2.4753,-2.464,-2.4703,-2.4989,-2.5005,-2.5005,-2.5005,-2.4826,-2.4762,-2.4762,-2.4605,-2.4441,-2.4271,-2.4271,-2.4051,-2.972,-3.0546,-3.1119,-3.095,-3.0302,-2.942,-2.8378,-2.7035,0.0,0.0,0.0,-2.47,-2.47,0.0,0.0,0.0,0.0,0.0,0.0,0.0,0.0,0.0,0.0,0.0,0.0,0.0,0.0,0.0,0.0,0.0,-4.5029,-4.501,-4.4934,-4.4762,-4.3969,-4.3399,-4.3108,-4.2066,-4.1078,-4.017,-3.9743,-3.9179,-3.851,-3.8403,-3.8323,-3.8256,-3.8092,0.0,0.0,-3.5652,-3.4727,-3.3466,-3.3408,-3.3393,-3.3393,-3.3393,-3.3393,-3.3302,-3.2687,-3.2759,-3.3049,-3.2415,-3.2741,-3.3393,-3.3393,-3.2958,-3.2252,-3.127,-3.0545,-2.9839,-2.8853,-2.86,-2.86,-2.86,-2.8471,-2.8327,-2.8214,-2.789,-2.7567,-2.734,-2.6974,-2.6657,-2.652,-2.6345,-2.6202,-2.6202,-2.6202,-2.6202,-2.6202,-2.6053,-2.5954,-2.5954,-2.6103,-2.5834,-2.4935,-2.4782,-2.4523,-2.4053,-2.3962,-2.4169,-2.4732,-2.4764,-2.4843,-2.5005,-2.5005,-2.5005,-2.5005,-2.5005,-2.4866,-2.462,-2.462,-2.4421,-3.0574,-3.1391,-3.1804,-3.1081,-3.0302,-2.927,-2.7674,0.0,0.0,0.0,-2.47,-2.47,-2.47,0.0,0.0,0.0,0.0,0.0,0.0,0.0,0.0,0.0,0.0,0.0,0.0,0.0,0.0,0.0,0.0,0.0,0.0,-4.4121,-4.3777,-4.3042,-4.2815,-4.2647,-4.2472,-4.1293,-4.0595,-4.0356,-3.9423,-3.8817,-3.851,-3.8743,-3.8698,-3.8423,-3.7692,0.0,0.0,-3.515,-3.4291,-3.3643,-3.3466,-3.3393,-3.3393,-3.3393,-3.3393,-3.3393,-3.3321,-3.285,-3.2288,-3.2216,-3.2741,-3.3393,-3.3393,-3.3357,-3.2977,-3.1419,-3.0962,-3.0532,-2.8998,-2.86,-2.86,-2.86,-2.8388,-2.8232,-2.8201,-2.7933,-2.7567,-2.7117,-2.6989,-2.6808,-2.6328,-2.622,-2.6202,-2.6202,-2.6202,-2.6202,-2.6202,-2.5606,-2.5209,-2.5209,-2.5788,-2.5887,-2.5125,-2.4747,-2.4225,-2.3509,-2.3193,-2.3309,-2.3967,-2.3999,-2.4318,-2.5005,-2.5005,-2.5005,-2.5005,-2.5005,-2.4985,-2.4946,-2.4946,-2.4766,-2.9185,-3.0011,-3.0584,-3.0265,-2.9176,-2.8012,-2.7355,0.0,0.0,-2.4782,-2.47,-2.47,-2.47,-2.47,-2.4925,0.0,0.0,0.0,0.0,0.0,0.0,0.0,0.0,0.0,0.0,0.0,0.0,0.0,0.0,0.0,0.0,-4.3739,-4.3624,-4.2832,-4.2238,-4.1871,-4.1746,-4.0692,-4.0113,-3.9971,-3.9373,-3.9017,-3.8913,-3.8906,-3.8556,-3.7952,-3.7621,0.0,0.0,-3.5161,-3.4541,-3.3855,-3.3657,-3.3577,-3.3563,-3.3437,-3.3393,-3.3339,-3.285,-3.2469,-3.2125,-3.165,-3.2017,-3.2687,-3.2687,-3.2687,-3.2433,-3.1324,-3.0654,-3.0007,-2.8889,-2.86,-2.8574,-2.8497,-2.8393,-2.8273,-2.8109,-2.785,-2.7567,-2.7293,-2.7103,-2.6875,-2.6503,-2.645,-2.6398,-2.6221,-2.6202,-2.6202,-2.6202,-2.5937,-2.5755,-2.5755,-2.5243,-2.458,-2.3835,-2.3572,-2.3241,-2.2815,-2.2561,-2.2861,-2.3856,-2.3512,-2.3623,-2.4318,-2.4334,-2.4334,-2.4334,-2.478,-2.5005,-2.5005,-2.5005,-2.4926,-2.8191,-2.9204,-2.9945,-2.9439,-2.8425,-2.743,0.0,0.0,-2.47,-2.47,-2.47,-2.47,-2.47,-2.47,-2.47,0.0,-2.4914,-2.5871,-2.8088,0.0,0.0,0.0,0.0,0.0,0.0,0.0,0.0,0.0,0.0,0.0,0.0,-4.2947,-4.2889,-4.2087,-4.1476,-4.1083,-4.0954,-4.0249,-3.9826,-3.9705,-3.9446,-3.9283,-3.9197,-3.9133,-3.86,-3.7701,0.0,0.0,0.0,-3.4997,-3.4502,-3.3985,-3.378,-3.3657,-3.3591,-3.3452,-3.3393,-3.3321,-3.2741,-3.2234,-3.1745,-3.1166,-3.1234,-3.1487,-3.1487,-3.1818,-3.2035,-3.1234,-3.0255,-2.93,-2.8744,-2.86,-2.8562,-2.8419,-2.8367,-2.8273,-2.8056,-2.7806,-2.7582,-2.7434,-2.7263,-2.7022,-2.6759,-2.6725,-2.6657,-2.6468,-2.638,-2.6227,-2.6028,-2.5725,-2.5475,-2.5259,-2.41,-2.3321,-2.3222,-2.3078,-2.2851,-2.2508,-2.2505,-2.2863,-2.3668,-2.324,-2.319,-2.3607,-2.3607,-2.3699,-2.3904,-2.4413,-2.478,-2.5005,-2.5005,-2.5005,-2.8191,-2.9617,-3.0499,-2.882,-2.8388,-2.7965,0.0,-2.5335,-2.47,-2.47,-2.47,-2.47,-2.47,-2.47,-2.47,-2.47,-2.5429,0.0,0.0,0.0,0.0,0.0,0.0,0.0,0.0,0.0,0.0,0.0,0.0,0.0,0.0,-4.1514,-4.1151,-4.0339,-4.032,-4.0253,-4.0106,-3.9973,-3.9826,-3.9705,-3.9631,-3.9458,-3.921,-3.947,-3.9008,0.0,0.0,0.0,0.0,-3.4544,-3.3998,-3.3985,-3.378,-3.3577,-3.3393,-3.3393,-3.3393,-3.3393,-3.3393,-3.2343,-3.1016,-3.0998,-3.0473,-2.9821,-2.9821,-3.0944,-3.2035,-3.1234,-2.9862,-2.8618,-2.86,-2.86,-2.8562,-2.8419,-2.83,-2.816,-2.8025,-2.785,-2.7642,-2.745,-2.7404,-2.731,-2.7038,-2.6989,-2.6989,-2.6989,-2.6759,-2.632,-2.5596,-2.4629,-2.3735,-2.3007,-2.2261,-2.241,-2.3868,-2.3802,-2.3407,-2.2735,-2.3193,-2.3395,-2.32,-2.32,-2.3112,-2.2914,-2.2914,-2.3228,-2.3904,-2.3904,-2.4286,-2.5005,-2.5005,-2.5005,-2.6529,-2.7542,-2.8237,-2.7703,-2.7167,-2.6631,-2.6132,-2.5335,-2.47,-2.47,-2.47,-2.47,-2.47,-2.47,-2.5083,-2.6228,0.0,0.0,0.0,0.0,0.0,0.0,0.0,0.0,0.0,0.0,0.0,0.0,0.0,0.0,0.0,-4.1495,-4.1132,-4.032,-4.0301,-4.0291,-4.0234,-4.0015,-3.9878,-3.9826,-3.9668,-3.9289,-3.8719,-3.8797,0.0,0.0,0.0,0.0,0.0,-3.4714,-3.4397,-3.4197,-3.4136,-3.3895,-3.3532,-3.2999,-3.3047,-3.3321,-3.2777,-3.189,-3.0998,-3.0998,-3.0455,-2.9802,-2.9802,-3.0545,-3.1202,-3.0418,-2.9427,-2.86,-2.86,-2.86,-2.8562,-2.8419,-2.8367,-2.8273,-2.8056,-2.7954,-2.7853,-2.7627,-2.7615,-2.7522,-2.7308,-2.7261,-2.7198,-2.7022,-2.6924,-2.6537,-2.5612,-2.5211,-2.4678,-2.3752,-2.299,-2.2526,-2.2493,-2.2338,-2.2178,-2.1965,-2.1892,-2.2243,-2.3101,-2.2119,-2.2191,-2.3559,-2.3117,-2.3228,-2.3904,-2.4397,-2.4764,-2.5005,-2.5005,-2.5005,0.0,-2.5635,-2.6266,-2.6266,-2.6124,-2.5831,-2.5211,-2.4858,-2.4613,-2.4313,-2.4501,-2.47,-2.47,-2.47,-2.5037,-2.6097,0.0,0.0,0.0,0.0,0.0,0.0,0.0,0.0,0.0,0.0,0.0,0.0,0.0,0.0,0.0,0.0,-4.0826,-4.032,-4.0301,-4.0301,-4.0301,-4.0077,-3.9984,-3.9965,-3.9796,-3.9305,-3.8568,-3.8568,0.0,0.0,0.0,0.0,0.0,-3.4747,-3.455,-3.4293,-3.4293,-3.3914,-3.3293,-3.281,-3.261,-3.2546,-3.2038,-3.1288,-3.0545,-3.0545,-3.0002,-2.9355,-2.9355,-2.9898,-3.0382,-2.9572,-2.8993,-2.86,-2.86,-2.86,-2.8562,-2.8419,-2.8353,-2.8259,-2.8056,-2.794,-2.785,-2.773,-2.7701,-2.7657,-2.7539,-2.7509,-2.7463,-2.7291,-2.694,-2.6367,-2.5476,-2.5027,-2.4398,-2.3379,-2.2863,-2.2383,-2.1845,-2.1972,-2.2076,-2.2014,-2.2053,-2.239,-2.3117,-2.2216,-2.2288,-2.3496,-2.3119,-2.3228,-2.3904,-2.4638,-2.5005,-2.5005,-2.5005,-2.5005,0.0,-2.39,-2.4531,-2.4531,-2.5147,-2.5324,-2.3776,-2.3994,0.0,-2.3569,-2.405,-2.4632,-2.4681,-2.47,-2.4756,-2.4925,0.0,0.0,0.0,0.0,0.0,0.0,0.0,0.0,0.0,0.0,0.0,0.0,0.0,0.0,0.0,0.0,-4.0205,-4.0205,-4.0148,-4.0167,-4.0301,-4.0166,-4.0068,-4.0011,-3.9878,-3.9351,-3.8527,-3.8517,0.0,0.0,0.0,0.0,0.0,-3.4666,-3.4495,-3.4293,-3.4316,-3.3739,-3.2865,-3.2767,-3.2163,-3.138,-3.1271,-3.062,-2.9823,-2.9756,-2.9236,-2.8612,-2.86,-2.9119,-2.9567,-2.8799,-2.86,-2.86,-2.86,-2.86,-2.8562,-2.8432,-2.8313,-2.8191,-2.8039,-2.7864,-2.7716,-2.7701,-2.7701,-2.7701,-2.7701,-2.7701,-2.7683,-2.7631,-2.6827,-2.5932,-2.5131,-2.4193,-2.3215,-2.2209,-2.2082,-2.1996,-2.1827,-2.2427,-2.2762,-2.2653,-2.326,-2.3501,-2.3236,-2.3218,-2.3143,-2.304,-2.3056,-2.3372,-2.3967,-2.4669,-2.5005,-2.5005,-2.5005,-2.5005,-2.1316,0.0,-2.2867,-2.2867,-2.3018,-2.3074,0.0,-2.2736,-2.2811,0.0,0.0,0.0,0.0,0.0,0.0,0.0,0.0,0.0,0.0,0.0,0.0,0.0,0.0,0.0,0.0,0.0,0.0,0.0,0.0,0.0,0.0,0.0,-3.9317,-3.9317,-3.8667,-3.8954,-4.0282,-4.0166,-3.9764,-3.9098,-3.9024,-3.8236,-3.6853,-3.6804,0.0,0.0,0.0,0.0,-3.4788,-3.4768,-3.4561,-3.4316,-3.4473,-3.4193,-3.3586,-3.2521,-3.2253,-3.2256,-3.0986,-3.0373,-3.0068,-2.9338,-2.898,-2.881,-2.865,-2.8726,-2.8835,-2.8654,-2.86,-2.86,-2.86,-2.86,-2.8587,-2.8562,-2.8445,-2.8313,-2.8191,-2.8039,-2.7879,-2.773,-2.7701,-2.7701,-2.7701,-2.7701,-2.7508,-2.6932,-2.6661,-2.5946,-2.4382,-2.3846,-2.3213,-2.2223,-2.1955,-2.1855,-2.1796,-2.1961,-2.2062,-2.2001,-2.2586,-2.3063,-2.3343,-2.3253,-2.3606,-2.4499,-2.4495,-2.4574,-2.4748,-2.4906,-2.5005,-2.5005,-2.5005,-2.5005,-2.0333,-2.1365,-2.2398,-2.2755,-2.3168,-2.3405,-2.3028,0.0,0.0,0.0,0.0,0.0,0.0,0.0,0.0,0.0,0.0,0.0,0.0,0.0,0.0,0.0,0.0,0.0,0.0,0.0,0.0,0.0,0.0,0.0,0.0,0.0,-3.84,-3.84,-3.7941,-3.8151,-3.9107,-3.9051,-3.8756,-3.8299,-3.8261,-3.7585,-3.6394,-3.6348,-3.5901,0.0,0.0,0.0,-3.4927,-3.4759,-3.4647,-3.4548,-3.4199,-3.3708,-3.3094,-3.1885,-3.1368,-3.111,-3.0202,-2.9824,-2.9673,-2.9159,-2.8978,-2.8962,-2.8779,-2.8749,-2.8724,-2.8625,-2.86,-2.86,-2.86,-2.86,-2.8574,-2.8523,-2.8406,-2.8273,-2.8136,-2.7979,-2.7836,-2.773,-2.7701,-2.7596,-2.7262,-2.721,-2.6929,-2.6174,-2.577,-2.5158,-2.4035,-2.3501,-2.2949,-2.2172,-2.1996,-2.1913,-2.1796,-2.2096,-2.2279,-2.2219,-2.2521,-2.3047,-2.3866,-2.3754,-2.4084,-2.4989,-2.5005,-2.5005,-2.5005,-2.5005,-2.5005,-2.5005,-2.5005,-2.5005,-1.9951,-2.1121,-2.2436,-2.2987,-2.382,-2.4332,-2.3651,0.0,0.0,0.0,0.0,0.0,0.0,0.0,0.0,0.0,0.0,0.0,0.0,0.0,0.0,0.0,0.0,0.0,0.0,0.0,0.0,0.0,0.0,0.0,0.0,0.0,0.0,-3.7521,-3.7387,-3.7311,-3.7311,-3.7559,-3.7636,-3.7521,-3.7521,-3.7101,-3.6309,-3.6292,-3.5815,0.0,0.0,0.0,-3.4668,-3.4373,-3.4363,-3.4434,-3.3569,-3.2862,-3.2204,-3.1261,-3.0385,-2.963,-2.949,-2.9343,-2.918,-2.9158,-2.9148,-2.9123,-2.8957,-2.8905,-2.887,-2.8662,-2.86,-2.86,-2.86,-2.86,-2.8574,-2.8463,-2.8327,-2.8205,-2.8081,-2.7893,-2.7745,-2.7745,-2.773,-2.7473,-2.6721,-2.6598,-2.6297,-2.5366,-2.4695,-2.4169,-2.3815,-2.3211,-2.2689,-2.2403,-2.235,-2.2286,-2.2202,-2.2769,-2.3107,-2.3063,-2.3079,-2.3554,-2.4614,-2.4443,-2.4544,-2.5005,-2.5005,-2.5005,-2.5005,-2.5005,-2.5005,-2.5005,-2.5005,-2.5005,-2.0633,-2.1534,-2.2154,-2.1541,-2.2043,-2.2674,0.0,0.0,0.0,0.0,0.0,0.0,0.0,0.0,0.0,0.0,0.0,0.0,0.0,0.0,0.0,0.0,0.0,0.0,0.0,0.0,0.0,0.0,0.0,0.0,0.0,0.0,0.0,-3.6672,-3.5974,-3.5592,-3.5592,-3.6986,-3.7368,-3.6672,-3.6672,-3.6233,-3.5392,-3.5335,-3.4843,0.0,0.0,-3.3486,-3.2823,-3.275,-3.275,-3.2777,-3.2608,-3.2476,-3.2277,-3.1326,-3.0884,-3.065,-2.9908,-2.9636,-2.9579,-2.9412,-2.9353,-2.9291,-2.8991,-2.8905,-2.887,-2.8662,-2.86,-2.86,-2.86,-2.86,-2.8587,-2.8574,-2.8471,-2.8353,-2.834,-2.8136,-2.7954,-2.7954,-2.7821,-2.7473,-2.6721,-2.6598,-2.6121,-2.4677,-2.4361,-2.4032,-2.3315,-2.2989,-2.3015,-2.3549,-2.347,-2.3544,-2.3964,-2.4101,-2.4326,-2.4712,-2.4728,-2.4936,-2.541,-2.5064,-2.4914,-2.5005,-2.5005,-2.5005,-2.5005,-2.5005,-2.5005,-2.5005,-2.5005,-2.5005,-2.0258,-2.1309,-2.221,-2.1797,-2.3044,-2.4358,0.0,0.0,0.0,0.0,0.0,0.0,0.0,0.0,0.0,0.0,0.0,0.0,0.0,0.0,0.0,0.0,0.0,0.0,0.0,0.0,0.0,0.0,0.0,0.0,0.0,0.0,0.0,0.0,-3.5411,-3.5209,-3.5209,-3.5954,-3.6165,-3.5793,-3.5793,-3.5583,-3.5182,-3.4729,-3.4293,-3.3884,0.0,-3.2892,-3.2545,-3.2443,-3.246,-3.2507,-3.1958,-3.1779,-3.1699,-3.071,-3.0355,-3.0281,-2.9851,-2.9701,-2.9673,-2.9579,-2.9501,-2.9343,-2.9079,-2.895,-2.887,-2.8662,-2.86,-2.86,-2.86,-2.86,-2.8574,-2.8497,-2.8432,-2.8367,-2.8313,-2.8205,-2.8095,-2.8011,-2.7572,-2.694,-2.61,-2.563,-2.4976,-2.3821,-2.3646,-2.3485,-2.2992,-2.2855,-2.2885,-2.3106,-2.3419,-2.3542,-2.3396,-2.4094,-2.4735,-2.5077,-2.511,-2.5303,-2.5738,-2.4822,-2.4569,-2.5162,-2.4777,-2.4703,-2.5005,-2.5005,-2.5005,-2.5005,-2.5005,-2.5005,-1.997,-2.1028,-2.2105,-2.2515,0.0,-2.5873,0.0,0.0,0.0,0.0,0.0,0.0,0.0,0.0,0.0,0.0,0.0,0.0,0.0,0.0,0.0,0.0,0.0,0.0,0.0,0.0,0.0,0.0,0.0,0.0,0.0,0.0,0.0,0.0,-3.5209,-3.5209,-3.5209,-3.5018,-3.5018,-3.5209,-3.5018,-3.4923,-3.4885,-3.4063,-3.3586,-3.3375,-3.2648,-3.2256,-3.21,-3.1958,-3.1982,-3.2042,-3.1263,-3.0964,-3.0877,-3.0095,-2.979,-2.9764,-2.971,-2.9701,-2.9701,-2.9701,-2.9607,-2.9423,-2.9169,-2.9034,-2.891,-2.8675,-2.86,-2.86,-2.86,-2.86,-2.8574,-2.8471,-2.8463,-2.8419,-2.8327,-2.8273,-2.8219,-2.8067,-2.7359,-2.6511,-2.5569,-2.48,-2.4027,-2.3212,-2.3107,-2.3028,-2.2893,-2.2881,-2.2886,-2.293,-2.343,-2.3574,-2.3113,-2.4067,-2.4757,-2.4963,-2.4946,-2.5077,-2.5446,-2.4292,-2.4001,-2.4766,-2.434,-2.4249,-2.4495,-2.4669,-2.4653,-2.4495,-2.4495,-2.459,-2.0489,-2.0997,-2.1499,-2.3177,0.0,0.0,0.0,0.0,0.0,0.0,0.0,0.0,0.0,0.0,0.0,0.0,0.0,0.0,0.0,0.0,0.0,0.0,0.0,0.0,0.0,0.0,0.0,0.0,0.0,0.0,0.0,0.0,0.0,0.0,0.0,-3.5209,-3.5209,-3.4464,-3.4464,-3.519,-3.4445,-3.409,-3.4071,-3.3196,-3.2394,-3.1675,-3.161,-3.1114,-3.0376,-3.0362,-3.0369,-3.0376,-3.0312,-3.016,-2.9991,-2.9861,-2.9755,-2.9711,-2.9711,-2.9701,-2.9701,-2.9701,-2.9701,-2.9617,-2.9212,-2.9086,-2.9016,-2.8694,-2.86,-2.86,-2.86,-2.86,-2.8587,-2.8587,-2.8587,-2.8574,-2.8574,-2.8471,-2.834,-2.8201,-2.7441,-2.6511,-2.5569,-2.48,-2.4027,-2.3212,-2.3107,-2.3077,-2.3082,-2.3082,-2.3358,-2.4094,-2.4217,-2.4405,-2.4798,-2.469,-2.4626,-2.4632,-2.4463,-2.4292,-2.4149,-2.3735,-2.3427,-2.3257,-2.3716,-2.3623,-2.3056,-2.3686,-2.3654,-2.3056,-2.3056,-2.337,-1.9939,-2.0615,-2.1291,-2.253,0.0,0.0,0.0,0.0,0.0,0.0,0.0,0.0,0.0,0.0,0.0,0.0,0.0,0.0,0.0,0.0,0.0,0.0,0.0,0.0,0.0,0.0,0.0,0.0,0.0,0.0,0.0,0.0,0.0,0.0,0.0,-3.4197,-3.3654,-3.3329,-3.3329,-3.3635,-3.3329,-3.3196,-3.3158,-3.2336,-3.179,-3.1465,-3.093,-3.0491,-3.0211,-3.0211,-3.0211,-3.0204,-3.0161,-3.0083,-3.0007,-2.9859,-2.9782,-2.9765,-2.971,-2.9701,-2.9701,-2.9701,-2.9617,-2.9501,-2.9332,-2.9134,-2.895,-2.8815,-2.87,-2.86,-2.86,-2.86,-2.86,-2.86,-2.86,-2.86,-2.86,-2.8562,-2.8314,-2.7584,-2.6791,-2.5917,-2.4892,-2.4067,-2.3453,-2.3142,-2.3107,-2.3107,-2.3107,-2.3107,-2.3212,-2.3523,-2.3558,-2.3818,-2.451,-2.4002,-2.3675,-2.3675,-2.3787,-2.3953,-2.4176,-2.3181,-2.2896,-2.3465,-2.3217,-2.313,-2.3202,-2.3474,-2.3387,-2.3008,-2.3008,-2.3113,-1.9557,-2.0596,-2.1623,0.0,0.0,0.0,0.0,0.0,0.0,0.0,0.0,0.0,0.0,0.0,0.0,0.0,0.0,0.0,0.0,0.0,0.0,0.0,0.0,0.0,0.0,0.0,0.0,0.0,0.0,0.0,0.0,0.0,0.0,0.0,-3.328,-3.3299,-3.2718,-3.2432,-3.2298,-3.2317,-3.2031,-3.205,-3.2298,-3.1465,-3.1083,-3.1064,-3.0452,-3.0211,-3.0211,-3.0211,-3.0211,-3.0185,-3.0125,-3.0095,-3.008,-2.9876,-2.9808,-2.979,-2.9719,-2.9701,-2.9701,-2.9701,-2.9617,-2.9472,-2.9423,-2.9246,-2.9048,-2.8973,-2.8839,-2.87,-2.87,-2.865,-2.86,-2.86,-2.86,-2.86,-2.86,-2.8401,-2.7994,-2.7207,-2.6263,-2.5325,-2.4527,-2.3716,-2.3168,-2.3168,-2.3132,-2.3107,-2.3107,-2.3107,-2.3107,-2.3107,-2.3107,-2.3318,-2.3869,-2.3418,-2.3107,-2.3107,-2.331,-2.3528,-2.3718,-2.2693,-2.2423,-2.3031,-2.2704,-2.2606,-2.2732,-2.2907,-2.2805,-2.246,-2.2408,-2.2448,-1.9576,-2.1021,0.0,0.0,0.0,0.0,0.0,0.0,0.0,0.0,0.0,0.0,0.0,0.0,0.0,0.0,0.0,0.0,0.0,0.0,0.0,0.0,0.0,0.0,0.0,0.0,0.0,0.0,0.0,0.0,0.0,0.0,0.0,0.0,-3.2699,-3.2699,-3.268,-3.1821,-3.1419,-3.1484,-3.0605,-3.0643,-3.1465,-3.0586,-3.0211,-3.0211,-3.0211,-3.0211,-3.0211,-3.0211,-3.0211,-3.0185,-3.0125,-3.0095,-3.0061,-2.9876,-2.9808,-2.979,-2.9719,-2.9711,-2.9701,-2.9701,-2.9701,-2.9655,-2.9453,-2.9402,-2.9353,-2.9158,-2.9019,-2.8887,-2.8887,-2.8761,-2.86,-2.86,-2.86,-2.86,-2.86,-2.7966,-2.7368,-2.7214,-2.5943,-2.4823,-2.4617,-2.388,-2.3301,-2.3301,-2.3193,-2.3107,-2.3107,-2.3107,-2.3107,-2.3107,-2.3107,-2.3107,-2.3107,-2.3107,-2.3107,-2.3107,-2.3107,-2.2932,-2.2528,-2.2309,-2.2027,-2.162,-2.2118,-2.2037,-2.1309,-2.1841,-2.1759,-2.1087,-2.0893,-2.1206,-1.9726,0.0,0.0,0.0,0.0,0.0,0.0,0.0,0.0,0.0,0.0,0.0,0.0,0.0,0.0,0.0,0.0,0.0,0.0,0.0,0.0,0.0,0.0,0.0,0.0,0.0,0.0,0.0,0.0,0.0,0.0,0.0,0.0,0.0,-3.1615,-3.162,-3.0949,-3.0682,-3.0567,-3.0586,-3.0319,-3.0345,-3.0586,-3.0326,-3.0211,-3.0211,-3.0211,-3.0211,-3.0211,-3.0211,-2.9841,-2.9331,-2.9896,-2.9733,-2.9235,-2.9688,-2.9841,-2.9799,-2.9773,-2.9738,-2.9701,-2.9701,-2.9701,-2.9701,-2.9626,-2.9521,-2.9392,-2.9332,-2.9177,-2.9045,-2.9045,-2.8927,-2.8785,-2.8637,-2.86,-2.8437,-2.7876,-2.7568,-2.7043,-2.5817,-2.5141,-2.4516,-2.3809,-2.3394,-2.3168,-2.3168,-2.3132,-2.3107,-2.3107,-2.3107,-2.3107,-2.3107,-2.3107,-2.3107,-2.3107,-2.3107,-2.3107,-2.3107,-2.3107,-2.2977,-2.2725,-2.2655,-2.2508,-2.2234,-2.2396,-2.2351,-2.2132,-2.2308,-2.213,-2.1661,-2.16,-2.1547,-2.0608,0.0,0.0,0.0,0.0,0.0,0.0,0.0,0.0,0.0,0.0,0.0,0.0,0.0,0.0,0.0,0.0,0.0,0.0,0.0,0.0,0.0,0.0,0.0,0.0,0.0,0.0,0.0,0.0,0.0,0.0,0.0,0.0,0.0,-3.0858,-3.0835,-3.0253,-3.0234,-3.0061,-2.9688,-2.9688,-2.9516,-2.923,-2.9898,-3.0013,-2.9669,-2.9344,-2.9383,-2.9669,-2.9344,-2.8905,-2.8471,-2.8953,-2.8836,-2.846,-2.9198,-2.9415,-2.9397,-2.9703,-2.9765,-2.9701,-2.9701,-2.9701,-2.9645,-2.9288,-2.9102,-2.8932,-2.8614,-2.8619,-2.8727,-2.8635,-2.8768,-2.879,-2.8361,-2.8191,-2.7894,-2.7097,-2.6663,-2.6144,-2.5147,-2.4629,-2.4154,-2.3598,-2.3412,-2.333,-2.333,-2.3301,-2.3241,-2.3193,-2.318,-2.3168,-2.3107,-2.3107,-2.3107,-2.3107,-2.3107,-2.3107,-2.3107,-2.3107,-2.3057,-2.2914,-2.2842,-2.2712,-2.2501,-2.2501,-2.2501,-2.2501,-2.2412,-2.2257,-2.201,-2.1969,-2.1749,0.0,0.0,0.0,0.0,0.0,0.0,0.0,0.0,0.0,0.0,0.0,0.0,0.0,0.0,0.0,0.0,0.0,0.0,0.0,0.0,0.0,0.0,0.0,0.0,0.0,0.0,0.0,0.0,0.0,0.0,0.0,0.0,0.0,0.0,-3.0335,-3.0279,-3.0201,-3.0124,-2.9653,0.0,-2.8804,-2.8421,-2.7772,-2.9275,-2.9535,-2.8739,-2.802,-2.8115,-2.872,-2.8001,-2.7644,-2.7587,-2.7663,-2.7644,-2.7669,-2.8415,-2.8696,-2.8782,-2.9456,-2.9689,-2.9701,-2.9701,-2.9645,-2.9457,-2.8735,-2.8407,-2.8153,-2.7486,-2.7708,-2.807,-2.7871,-2.8265,-2.8489,-2.7684,-2.7432,-2.7152,-2.6276,-2.5516,-2.4972,-2.49,-2.4302,-2.3785,-2.3785,-2.3736,-2.3678,-2.3678,-2.3567,-2.3459,-2.3313,-2.3301,-2.3253,-2.3102,-2.3107,-2.3107,-2.3107,-2.3107,-2.3107,-2.3107,-2.3107,-2.3107,-2.3107,-2.2914,-2.2738,-2.2569,-2.2538,-2.2538,-2.2538,-2.2378,-2.2275,-2.2248,-2.2124,-2.1924,0.0,0.0,0.0,0.0,0.0,0.0,0.0,0.0,0.0,0.0,0.0,0.0,0.0,0.0,0.0,0.0,0.0,0.0,0.0,0.0,0.0,0.0,0.0,0.0,0.0,0.0,0.0,0.0,0.0,0.0,0.0,0.0,0.0,-3.0558,-2.9891,-2.9506,-2.944,-2.8755,-2.8315,0.0,-2.8121,-2.7997,-2.7787,-2.8096,-2.8141,-2.7943,-2.7778,-2.779,-2.7943,-2.7778,-2.73,-2.6746,-2.7434,-2.7281,-2.6778,-2.7572,-2.821,-2.8725,-2.8822,-2.9228,-2.9701,-2.9701,-2.9251,-2.8772,-2.927,-2.85,-2.7552,-2.8003,-2.7798,-2.737,-2.7242,-2.719,-2.6935,-2.6031,-2.6631,-2.7007,-2.557,-2.5117,-2.4809,-2.4176,-2.3876,-2.3714,-2.3714,-2.3623,-2.3533,-2.3533,-2.3528,-2.3459,-2.3313,-2.3301,-2.3253,-2.3102,-2.3107,-2.3107,-2.3107,-2.3107,-2.3107,-2.3107,-2.3107,-2.3107,-2.3107,-2.307,-2.302,-2.2982,-2.2982,-2.2982,-2.2982,-2.294,-2.282,-2.2664,-2.2642,-2.2508,0.0,0.0,0.0,0.0,0.0,0.0,0.0,0.0,0.0,0.0,0.0,0.0,0.0,0.0,0.0,0.0,0.0,0.0,0.0,0.0,0.0,0.0,0.0,0.0,0.0,0.0,0.0,0.0,0.0,0.0,0.0,-2.9467,-2.9433,-2.94,-2.895,-2.8686,-2.8627,-2.8178,-2.7716,-2.7277,-2.7277,-2.7065,-2.6669,-2.6941,-2.7319,-2.7663,-2.6842,-2.6708,-2.7052,-2.6651,-2.6236,-2.5873,-2.6332,-2.6236,-2.5925,-2.6734,-2.7231,-2.7616,-2.8372,-2.8839,-2.9073,-2.9073,-2.8772,-2.8341,-2.8012,-2.7326,-2.6631,-2.6633,-2.6622,-2.6597,-2.6421,-2.6591,-2.6559,-2.5628,-2.583,-2.5914,-2.4683,-2.4429,-2.4302,-2.3868,-2.3771,-2.3757,-2.3757,-2.3693,-2.3649,-2.3649,-2.3623,-2.3544,-2.3407,-2.3336,-2.3253,-2.3102,-2.3107,-2.3107,-2.3107,-2.3107,-2.3107,-2.3107,-2.3107,-2.3107,-2.3107,-2.3107,-2.3107,-2.3107,-2.3107,-2.3107,-2.3107,-2.3107,-2.3057,-2.2927,-2.2927,-2.2842,0.0,0.0,0.0,0.0,0.0,0.0,0.0,0.0,0.0,0.0,0.0,0.0,0.0,0.0,0.0,0.0,0.0,0.0,0.0,0.0,0.0,0.0,0.0,0.0,0.0,0.0,0.0,0.0,0.0,0.0,0.0,-2.81,-2.81,-2.81,-2.7968,-2.7867,-2.7811,-2.7656,-2.7202,-2.6431,-2.6423,-2.6051,-2.5443,-2.5992,-2.6617,-2.7211,-2.582,-2.5585,-2.6141,-2.5478,-2.5191,-2.5191,-2.5191,-2.5191,-2.5287,-2.5938,-2.6193,-2.6399,-2.7794,-2.8248,-2.8226,-2.8208,-2.8114,-2.7776,-2.6574,-2.6019,-2.5654,-2.5083,-2.5335,-2.5734,-2.5537,-2.5995,-2.6275,-2.5476,-2.5075,-2.4696,-2.4024,-2.3868,-2.3847,-2.3847,-2.3816,-2.3806,-2.3806,-2.3806,-2.3806,-2.3806,-2.375,-2.3678,-2.3544,-2.343,-2.3324,-2.3193,-2.3156,-2.3126,-2.3126,-2.3102,-2.3107,-2.3107,-2.3107,-2.3107,-2.3107,-2.3107,-2.3107,-2.3107,-2.3107,-2.3107,-2.3107,-2.3107,-2.3107,-2.3107,-2.3107,-2.302,0.0,0.0,0.0,0.0,0.0,0.0,0.0,0.0,0.0,0.0,0.0,0.0,0.0,0.0,0.0,0.0,0.0,0.0,0.0,0.0,0.0,0.0,0.0,0.0,0.0,0.0,0.0,0.0,0.0,0.0,-2.8065,-2.81,-2.81,-2.81,-2.7427,-2.7055,-2.7048,-2.6307,-2.5858,-2.5732,-2.5665,-2.5581,-2.5484,-2.5511,-2.5572,-2.5617,-2.5392,-2.531,-2.5344,-2.5249,-2.5191,-2.5191,-2.5191,-2.5191,-2.5205,-2.5253,-2.571,-2.6305,-2.6482,-2.6976,-2.7513,-2.7471,-2.6984,-2.6494,-2.691,-2.6022,-2.5008,-2.5654,-2.5372,-2.4845,-2.4696,-2.4737,-2.4759,-2.4515,-2.4432,-2.4358,-2.4257,-2.4134,-2.4064,-2.4064,-2.3917,-2.3806,-2.3806,-2.3806,-2.3806,-2.3806,-2.3785,-2.3761,-2.3689,-2.3656,-2.3589,-2.3453,-2.3336,-2.3277,-2.3277,-2.3168,-2.3107,-2.3107,-2.3107,-2.3107,-2.3107,-2.3107,-2.3107,-2.3107,-2.3107,-2.3107,-2.3107,-2.3107,-2.3107,-2.3107,-2.3107,-2.3095,0.0,0.0,0.0,0.0,0.0,0.0,0.0,0.0,0.0,0.0,0.0,0.0,0.0,0.0,0.0,0.0,0.0,0.0,0.0,0.0,0.0,0.0,0.0,0.0,0.0,0.0,0.0,0.0,0.0,0.0,-2.6686,-2.6705,-2.6705,-2.6705,-2.6359,-2.6164,-2.6164,-2.5795,-2.5601,-2.5601,-2.5577,-2.5567,-2.5564,-2.5524,-2.5441,-2.5361,-2.5361,-2.5317,-2.5258,-2.5258,-2.5231,-2.5191,-2.5191,-2.5191,-2.5205,-2.5175,-2.5361,-2.5685,-2.6101,-2.6437,-2.6658,-2.6638,-2.6362,-2.6003,-2.5842,-2.5281,-2.4782,-2.5158,-2.5008,-2.4692,-2.4637,-2.4602,-2.4613,-2.4547,-2.4512,-2.4512,-2.4512,-2.4366,-2.419,-2.4113,-2.4026,-2.3927,-2.3816,-2.3806,-2.3806,-2.3806,-2.3771,-2.3736,-2.37,-2.3634,-2.3533,-2.3395,-2.3336,-2.3265,-2.3193,-2.3126,-2.3107,-2.3107,-2.3107,-2.3107,-2.3107,-2.3107,-2.3107,-2.3107,-2.3107,-2.3107,-2.3107,-2.3107,-2.3107,-2.3107,-2.3107,-2.3107,0.0,0.0,0.0,0.0,0.0,0.0,0.0,0.0,0.0,0.0,0.0,0.0,0.0,0.0,0.0,0.0,0.0,0.0,0.0,0.0,0.0,0.0,0.0,0.0,0.0,0.0,0.0,0.0,0.0,-2.5601,-2.5601,-2.5601,-2.5601,-2.5601,-2.5601,-2.5601,-2.5601,-2.5601,-2.5601,-2.5601,-2.5601,-2.5601,-2.5601,-2.5601,-2.5541,-2.5456,-2.5421,-2.5393,-2.5322,-2.5322,-2.5311,-2.5253,-2.5231,-2.522,-2.522,-2.5216,-2.5175,-2.5203,-2.5812,-2.5949,-2.5852,-2.5815,-2.5763,-2.5596,-2.4903,-2.47,-2.47,-2.47,-2.47,-2.47,-2.47,-2.47,-2.47,-2.47,-2.47,-2.4692,-2.4668,-2.4486,-2.4312,-2.4181,-2.4152,-2.4095,-2.3939,-2.3919,-2.3919,-2.3919,-2.3863,-2.3807,-2.3807,-2.3678,-2.3544,-2.3435,-2.34,-2.3372,-2.3259,-2.3229,-2.3205,-2.3205,-2.318,-2.3156,-2.3156,-2.3132,-2.3107,-2.3107,-2.3107,-2.3107,-2.3107,-2.3107,-2.3107,-2.3107,-2.3107,-2.3107,0.0,0.0,0.0,0.0,0.0,0.0,0.0,0.0,0.0,0.0,0.0,0.0,0.0,0.0,0.0,0.0,0.0,0.0,0.0,0.0,0.0,0.0,0.0,0.0,0.0,0.0,0.0,0.0,0.0,-2.5601,-2.5601,-2.5601,-2.5601,-2.5601,-2.5601,-2.5601,-2.5601,-2.5601,-2.5601,-2.5601,-2.5601,-2.5601,-2.5601,-2.5601,-2.5598,-2.5589,-2.5517,-2.546,-2.5382,-2.5382,-2.5382,-2.5373,-2.5317,-2.5282,-2.5296,-2.522,-2.521,-2.5205,-2.5243,-2.5256,-2.5213,-2.5018,-2.4952,-2.4924,-2.4753,-2.47,-2.47,-2.47,-2.47,-2.47,-2.47,-2.47,-2.47,-2.47,-2.47,-2.4676,-2.4537,-2.4503,-2.4444,-2.4312,-2.4284,-2.4294,-2.4275,-2.4266,-2.4266,-2.4266,-2.4153,-2.4074,-2.4074,-2.3907,-2.3785,-2.3774,-2.3725,-2.3678,-2.3667,-2.3544,-2.3482,-2.3482,-2.336,-2.3289,-2.3289,-2.318,-2.3107,-2.3107,-2.3107,-2.3107,-2.3107,-2.3107,-2.3107,-2.3107,-2.3107,-2.3107,0.0,0.0,0.0,0.0,0.0,0.0,0.0,0.0,0.0,0.0,0.0,0.0,0.0,0.0,0.0,0.0,0.0,0.0,0.0,0.0,0.0,0.0,0.0,0.0,0.0,0.0,0.0,0.0,0.0,0.0,-2.5601,-2.5601,-2.5601,-2.5601,-2.5601,-2.5601,-2.5601,-2.5601,-2.5601,-2.5601,-2.5601,-2.5601,-2.5601,-2.5601,-2.5601,-2.5598,-2.556,-2.5524,-2.5468,-2.5468,-2.5444,-2.5406,-2.536,-2.537,-2.5365,-2.5341,-2.5297,-2.5269,-2.5269,-2.5208,-2.5114,-2.5044,-2.498,-2.4895,-2.484,-2.4825,-2.4825,-2.4825,-2.4801,-2.4757,-2.4757,-2.4738,-2.47,-2.47,-2.47,-2.4692,-2.4653,-2.4618,-2.4586,-2.4452,-2.4426,-2.4392,-2.4312,-2.4294,-2.4294,-2.4294,-2.4266,-2.4238,-2.4238,-2.4172,-2.4096,-2.4009,-2.3896,-2.3792,-2.3718,-2.3589,-2.3505,-2.3505,-2.3372,-2.3301,-2.3301,-2.3253,-2.3229,-2.3229,-2.3229,-2.3193,-2.3107,-2.3107,-2.3107,-2.3107,-2.3107,-2.3107,0.0,0.0,0.0,0.0,0.0,0.0,0.0,0.0,0.0,0.0,0.0,0.0,0.0,0.0,0.0,0.0,0.0,0.0,0.0,0.0,0.0,0.0,0.0,0.0,0.0,0.0,0.0,0.0,0.0,0.0,-2.5601,-2.5601,-2.5601,-2.5601,-2.5601,-2.5601,-2.5601,-2.5601,-2.5601,-2.5601,-2.5601,-2.5601,-2.5601,-2.5601,-2.5601,-2.5601,-2.5601,-2.556,-2.5527,-2.5527,-2.5506,-2.5453,-2.5448,-2.5421,-2.5436,-2.5419,-2.5379,-2.5332,-2.5332,-2.5255,-2.5162,-2.5138,-2.5063,-2.4954,-2.4908,-2.4881,-2.4861,-2.4861,-2.4823,-2.4776,-2.4776,-2.4719,-2.47,-2.47,-2.47,-2.47,-2.47,-2.47,-2.4657,-2.4578,-2.4561,-2.4537,-2.4454,-2.4436,-2.4436,-2.4436,-2.4401,-2.4375,-2.4375,-2.4284,-2.4201,-2.4115,-2.3968,-2.3827,-2.3735,-2.3653,-2.3594,-2.3594,-2.3499,-2.3441,-2.3441,-2.3383,-2.336,-2.336,-2.336,-2.3324,-2.3241,-2.3126,-2.3107,-2.3107,-2.3156,-2.3193,0.0,0.0,0.0,0.0,0.0,0.0,0.0,0.0,0.0,0.0,0.0,0.0,0.0,0.0,0.0,0.0,0.0,0.0,0.0,0.0,0.0,0.0,0.0,0.0,0.0,0.0,0.0,0.0,0.0,-2.5601,-2.5601,-2.5601,-2.5601,-2.5601,-2.5601,-2.5601,-2.5601,-2.5601,-2.5601,-2.5601,-2.5601,-2.5601,-2.5601,-2.5601,-2.5601,-2.5601,-2.5601,-2.5601,-2.5601,-2.5601,-2.5601,-2.5595,-2.5524,-2.5499,-2.5495,-2.5436,-2.5395,-2.5391,-2.5391,-2.5361,-2.5287,-2.5234,-2.5155,-2.5082,-2.4961,-2.4879,-2.4808,-2.4808,-2.4768,-2.4707,-2.47,-2.47,-2.47,-2.47,-2.47,-2.47,-2.47,-2.47,-2.47,-2.47,-2.47,-2.47,-2.47,-2.47,-2.47,-2.47,-2.4586,-2.4512,-2.4512,-2.4284,-2.4113,-2.4113,-2.3927,-2.3816,-2.3806,-2.3806,-2.3806,-2.3806,-2.3736,-2.37,-2.37,-2.3585,-2.3505,-2.3505,-2.3505,-2.3505,-2.3505,-2.3241,-2.3119,-2.3102,-2.3253,-2.3389,-1.5175,0.0,0.0,0.0,0.0,0.0,0.0,0.0,0.0,0.0,0.0,0.0,0.0,0.0,0.0,0.0,0.0,0.0,0.0,0.0,0.0,0.0,0.0,0.0,0.0,0.0,0.0,0.0,-2.5601,-2.5601,-2.5601,-2.5601,-2.5601,-2.5601,-2.5601,-2.5601,-2.5601,-2.5601,-2.5601,-2.5601,-2.5601,-2.5601,-2.5601,-2.5601,-2.5601,-2.5601,-2.5601,-2.5601,-2.5601,-2.5601,-2.5601,-2.5598,-2.5586,-2.558,-2.5577,-2.5544,-2.5513,-2.5472,-2.5472,-2.5436,-2.5374,-2.5346,-2.5327,-2.5303,-2.5269,-2.5185,-2.51,-2.51,-2.4934,-2.4749,-2.4715,-2.47,-2.47,-2.47,-2.47,-2.47,-2.47,-2.47,-2.47,-2.47,-2.47,-2.47,-2.47,-2.47,-2.47,-2.47,-2.4676,-2.4634,-2.4634,-2.4569,-2.4495,-2.44,-2.4248,-2.4115,-2.4026,-2.3886,-2.3806,-2.3806,-2.3736,-2.37,-2.37,-2.3656,-2.3645,-2.3645,-2.3645,-2.3645,-2.3645,-2.3464,-2.3383,-2.3383,-2.3436,-2.3453,0.0,0.0,0.0,0.0,0.0,0.0,0.0,0.0,0.0,0.0,0.0,0.0,0.0,0.0,0.0,0.0,0.0,0.0,0.0,0.0,0.0,0.0,0.0,0.0,0.0,0.0,0.0,-2.5601,-2.5601,-2.5601,-2.5601,-2.5601,-2.5601,-2.5601,-2.5601,-2.5601,-2.5601,-2.5601,-2.5601,-2.5601,-2.5601,-2.5601,-2.5601,-2.5601,-2.5601,-2.5601,-2.5601,-2.5601,-2.5601,-2.5601,-2.5601,-2.5601,-2.5601,-2.5601,-2.5601,-2.5601,-2.558,-2.5534,-2.5534,-2.5499,-2.5448,-2.5448,-2.5412,-2.541,-2.541,-2.5322,-2.5241,-2.5241,-2.5111,-2.4935,-2.4823,-2.4782,-2.4775,-2.4742,-2.4723,-2.47,-2.47,-2.47,-2.47,-2.47,-2.47,-2.47,-2.47,-2.47,-2.47,-2.47,-2.47,-2.47,-2.47,-2.4642,-2.4586,-2.4512,-2.4384,-2.4275,-2.419,-2.4085,-2.4018,-2.4018,-2.3968,-2.3945,-2.3945,-2.3945,-2.3945,-2.3945,-2.3945,-2.3945,-2.3945,-2.3645,-2.3539,-2.3578,-2.3578,-2.36,0.0,0.0,0.0,0.0,0.0,0.0,-2.1244,-2.0351,0.0,0.0,0.0,0.0,0.0,0.0,0.0,0.0,0.0,0.0,0.0,0.0,0.0,0.0,0.0,0.0,0.0,0.0,-2.5601,-2.5601,-2.5504,-2.5504,-2.5582,-2.551,-2.5493,-2.559,-2.559,-2.559,-2.559,-2.5604,-2.5601,-2.5601,-2.5601,-2.5601,-2.5601,-2.5601,-2.5601,-2.5601,-2.5601,-2.5601,-2.5601,-2.5601,-2.5601,-2.5601,-2.5601,-2.5601,-2.5601,-2.5601,-2.5601,-2.5601,-2.5601,-2.5551,-2.5506,-2.5506,-2.5476,-2.5412,-2.5412,-2.5369,-2.5317,-2.5284,-2.5238,-2.5143,-2.4968,-2.4916,-2.4884,-2.4837,-2.4749,-2.4715,-2.4715,-2.4707,-2.47,-2.47,-2.47,-2.47,-2.47,-2.47,-2.47,-2.47,-2.47,-2.47,-2.47,-2.4594,-2.452,-2.4503,-2.4383,-2.4312,-2.4294,-2.4294,-2.4294,-2.4294,-2.4294,-2.4294,-2.4294,-2.4294,-2.4294,-2.4294,-2.4294,-2.4294,-2.4294,-2.3821,-2.3656,-2.3775,-2.3775,-2.38,0.0,-2.0108,-2.0404,0.0,0.0,0.0,0.0,-1.8196,0.0,0.0,0.0,0.0,0.0,0.0,0.0,0.0,0.0,0.0,0.0,0.0,0.0,0.0,0.0,0.0,0.0,0.0,-2.5601,-2.5601,-2.4957,-2.486,-2.5562,-2.4924,-2.4886,-2.5587,-2.5607,-2.5607,-2.5607,-2.5604,-2.5601,-2.5601,-2.5601,-2.5601,-2.5601,-2.5601,-2.5601,-2.5601,-2.5601,-2.5601,-2.5601,-2.5601,-2.5601,-2.5601,-2.5601,-2.5601,-2.5601,-2.5601,-2.5601,-2.5601,-2.5601,-2.5595,-2.5586,-2.5586,-2.558,-2.5554,-2.5554,-2.5476,-2.5359,-2.5259,-2.5124,-2.503,-2.4987,-2.4949,-2.4908,-2.4881,-2.4837,-2.4772,-2.4772,-2.4746,-2.47,-2.47,-2.47,-2.47,-2.47,-2.47,-2.47,-2.47,-2.47,-2.47,-2.47,-2.4684,-2.461,-2.4512,-2.4478,-2.4428,-2.4303,-2.4294,-2.4294,-2.4294,-2.4294,-2.4294,-2.4294,-2.4294,-2.4294,-2.4294,-2.4294,-2.4294,-2.4294,-2.4191,-2.4163,-2.4182,-2.4182,-2.4191,0.0,0.0,-2.1803,-2.0962,0.0,0.0,0.0,0.0,0.0,0.0,0.0,0.0,0.0,0.0,0.0,0.0,0.0,0.0,0.0,0.0,0.0,0.0,0.0,0.0,0.0,0.0,-2.43,-2.43,-2.4297,-2.4483,-2.4922,-2.4947,-2.4966,-2.5002,-2.5003,-2.4779,-2.4312,-2.4737,-2.4946,-2.4957,-2.5385,-2.5601,-2.5601,-2.5601,-2.5601,-2.5601,-2.5601,-2.5601,-2.5601,-2.5601,-2.5601,-2.5601,-2.5601,-2.5601,-2.5601,-2.5601,-2.5601,-2.5601,-2.5601,-2.5601,-2.5601,-2.5601,-2.5601,-2.5601,-2.5601,-2.5551,-2.5476,-2.5336,-2.5269,-2.5239,-2.5134,-2.5031,-2.4942,-2.4915,-2.4811,-2.4768,-2.4787,-2.4753,-2.4715,-2.4734,-2.4761,-2.4746,-2.4707,-2.47,-2.47,-2.47,-2.47,-2.47,-2.47,-2.47,-2.4657,-2.4602,-2.4594,-2.4569,-2.4513,-2.4505,-2.4505,-2.4505,-2.4505,-2.4505,-2.4505,-2.4505,-2.4505,-2.4505,-2.4505,-2.4505,-2.4505,-2.4505,-2.4436,-2.4294,-2.4294,-2.4294,0.0,0.0,0.0,0.0,0.0,-2.0857,0.0,0.0,0.0,-2.047,0.0,0.0,0.0,0.0,0.0,0.0,0.0,0.0,0.0,0.0,0.0,0.0,0.0,0.0,0.0,-2.2867,-2.2829,-2.2981,-2.3358,-2.3711,-2.402,-2.4562,-2.4656,-2.4168,-2.4149,-2.3789,-2.3025,-2.3692,-2.4058,-2.4058,-2.4924,-2.5346,-2.5368,-2.5529,-2.559,-2.559,-2.559,-2.5593,-2.5596,-2.5604,-2.5604,-2.561,-2.5604,-2.5601,-2.5601,-2.5601,-2.5601,-2.5601,-2.5601,-2.5601,-2.5601,-2.5601,-2.5601,-2.5601,-2.5601,-2.5601,-2.5583,-2.5476,-2.5472,-2.5464,-2.5297,-2.5168,-2.5053,-2.5,-2.4888,-2.4823,-2.4856,-2.4801,-2.4772,-2.4816,-2.4823,-2.4794,-2.4738,-2.4723,-2.4723,-2.4723,-2.4723,-2.4723,-2.4723,-2.4719,-2.4727,-2.4723,-2.4723,-2.4715,-2.4707,-2.47,-2.47,-2.47,-2.47,-2.47,-2.47,-2.47,-2.47,-2.47,-2.47,-2.47,-2.47,-2.47,-2.4596,-2.4375,-2.4375,-2.4375,0.0,0.0,0.0,0.0,-2.304,0.0,0.0,0.0,-1.9601,-1.831,0.0,0.0,0.0,0.0,0.0,0.0,0.0,0.0,0.0,0.0,0.0,0.0,0.0,0.0,0.0,0.0,-2.2221,-2.2943,-2.1726,-2.1572,-2.3063,-2.2566,-2.2538,-2.3222,-2.3241,-2.3202,-2.3084,-2.3131,-2.3157,-2.3153,-2.4027,-2.4449,-2.4472,-2.524,-2.5603,-2.5603,-2.5603,-2.5595,-2.5591,-2.5604,-2.5599,-2.56,-2.5593,-2.5601,-2.5601,-2.5601,-2.5601,-2.5601,-2.5601,-2.5601,-2.5601,-2.5601,-2.5601,-2.5601,-2.5601,-2.5601,-2.5598,-2.5586,-2.5534,-2.5491,-2.5472,-2.5404,-2.5341,-2.5276,-2.5247,-2.519,-2.5095,-2.5013,-2.4943,-2.4908,-2.4888,-2.4861,-2.4794,-2.4779,-2.4779,-2.4779,-2.4779,-2.4779,-2.4779,-2.4832,-2.4847,-2.4794,-2.4779,-2.4757,-2.4707,-2.47,-2.47,-2.47,-2.47,-2.47,-2.47,-2.47,-2.47,-2.47,-2.47,-2.47,-2.47,-2.47,-2.4684,-2.466,-2.466,-2.466,0.0,0.0,0.0,0.0,0.0,0.0,0.0,0.0,-2.0036,0.0,0.0,0.0,0.0,0.0,0.0,0.0,0.0,0.0,0.0,0.0,0.0,0.0,0.0,0.0,0.0,0.0,0.0,0.0,0.0,-2.1039,-2.2246,-2.2453,-2.2519,-2.2418,-2.2378,-2.2107,-2.1601,-2.2067,-2.2309,-2.2306,-2.3186,-2.3871,-2.4365,-2.4745,-2.5161,-2.5609,-2.5609,-2.5593,-2.56,-2.56,-2.5591,-2.5608,-2.5595,-2.5599,-2.5601,-2.5601,-2.5601,-2.5601,-2.5601,-2.5601,-2.5601,-2.5601,-2.5601,-2.5601,-2.5601,-2.5601,-2.5595,-2.5544,-2.5517,-2.5491,-2.5456,-2.5387,-2.5332,-2.5317,-2.5278,-2.5233,-2.5215,-2.5168,-2.5113,-2.5132,-2.5126,-2.5103,-2.5044,-2.4941,-2.4854,-2.4854,-2.4854,-2.4854,-2.4854,-2.4881,-2.4888,-2.4854,-2.4823,-2.4779,-2.4749,-2.473,-2.47,-2.47,-2.47,-2.47,-2.47,-2.4746,-2.4768,-2.4768,-2.4768,-2.4768,-2.4768,-2.4768,-2.4746,-2.47,-2.47,-2.47,-2.3995,0.0,0.0,0.0,0.0,0.0,0.0,0.0,0.0,0.0,0.0,0.0,0.0,0.0,0.0,0.0,0.0,0.0,0.0,0.0,0.0,0.0,0.0,0.0,0.0,0.0,0.0,0.0,0.0,0.0,-2.1383,-2.2046,-2.2129,-2.1526,-2.1464,-2.1138,-2.0503,-2.113,-2.1445,-2.1455,-2.2322,-2.3206,-2.4032,-2.403,-2.4498,-2.5258,-2.5023,-2.5046,-2.5264,-2.5247,-2.5399,-2.5636,-2.5604,-2.5595,-2.5605,-2.5593,-2.5601,-2.5601,-2.5601,-2.5601,-2.5601,-2.5601,-2.5601,-2.5601,-2.5601,-2.5601,-2.5592,-2.5534,-2.552,-2.5513,-2.5472,-2.5417,-2.5382,-2.5364,-2.5331,-2.5317,-2.5313,-2.5298,-2.5293,-2.5327,-2.5332,-2.5313,-2.5262,-2.5128,-2.5006,-2.4981,-2.4974,-2.4974,-2.4974,-2.4987,-2.4974,-2.4954,-2.4919,-2.487,-2.483,-2.4787,-2.4749,-2.4749,-2.4749,-2.4749,-2.4749,-2.4801,-2.483,-2.483,-2.483,-2.483,-2.483,-2.483,-2.4801,-2.4749,-2.4749,-2.4742,0.0,0.0,0.0,-2.2115,0.0,0.0,0.0,0.0,-2.1134,0.0,0.0,0.0,0.0,0.0,0.0,0.0,0.0,0.0,0.0,0.0,0.0,0.0,0.0,0.0,0.0,0.0,0.0,0.0,0.0,0.0,-2.0443,-2.0566,-2.0561,-2.0558,-2.0537,-2.0538,-2.0499,-2.0537,-2.0543,-2.0544,-2.1438,-2.23,-2.3137,-2.3149,-2.3616,-2.4399,-2.3557,-2.3663,-2.4433,-2.4364,-2.4884,-2.5683,-2.5634,-2.5603,-2.5602,-2.5603,-2.5601,-2.5601,-2.5601,-2.5601,-2.5601,-2.5601,-2.5601,-2.5601,-2.5601,-2.5601,-2.5601,-2.5598,-2.5598,-2.5598,-2.5595,-2.5595,-2.556,-2.5506,-2.5534,-2.5548,-2.5417,-2.5452,-2.5476,-2.5419,-2.5406,-2.5406,-2.5387,-2.5337,-2.5273,-2.5198,-2.5187,-2.5187,-2.5187,-2.5184,-2.5175,-2.5108,-2.5095,-2.505,-2.4908,-2.4895,-2.4895,-2.4895,-2.4895,-2.4895,-2.4895,-2.4902,-2.4902,-2.4902,-2.4902,-2.4902,-2.4902,-2.4902,-2.4902,-2.4895,-2.4895,-2.4854,0.0,0.0,-2.4393,-2.3377,0.0,0.0,0.0,0.0,0.0,0.0,0.0,0.0,0.0,0.0,0.0,0.0,0.0,0.0,0.0,0.0,0.0,0.0,0.0,0.0,0.0,0.0,0.0,0.0,0.0,0.0,0.0,-2.05,-2.0507,-2.0502,-2.0508,-2.0496,-2.049,-2.0497,-2.0506,-2.0494,-2.0797,-2.1406,-2.2245,-2.2245,-2.2713,-2.3514,-2.3221,-2.3593,-2.4394,-2.4372,-2.4899,-2.5701,-2.5678,-2.5636,-2.5592,-2.5591,-2.56,-2.5597,-2.5609,-2.5595,-2.5601,-2.5601,-2.5601,-2.5601,-2.5601,-2.5601,-2.5601,-2.5601,-2.5601,-2.5601,-2.5601,-2.5601,-2.5595,-2.558,-2.5586,-2.5592,-2.5538,-2.5544,-2.557,-2.5534,-2.5531,-2.5517,-2.5476,-2.5472,-2.5457,-2.5346,-2.5327,-2.5327,-2.5327,-2.5322,-2.5327,-2.5307,-2.5271,-2.5198,-2.5099,-2.4974,-2.4902,-2.4902,-2.4902,-2.4902,-2.4902,-2.4986,-2.5031,-2.5031,-2.5031,-2.5031,-2.5031,-2.5031,-2.4986,-2.4908,-2.5044,-2.5019,-2.3331,-2.3805,0.0,-2.3348,-2.3253,0.0,-2.1752,0.0,0.0,0.0,0.0,0.0,0.0,0.0,0.0,0.0,0.0,0.0,0.0,0.0,0.0,0.0,0.0,0.0,0.0,0.0,-1.8086,-1.9551,0.0,0.0,0.0,0.0,-2.0505,-2.0505,-2.0508,-2.0492,-2.0506,-2.0501,-2.0506,-2.0499,-2.0505,-2.0963,-2.1791,-2.1481,-2.1814,-2.2615,-2.2302,-2.2673,-2.3474,-2.3475,-2.4178,-2.5233,-2.5234,-2.539,-2.5625,-2.5618,-2.5591,-2.5607,-2.5609,-2.5605,-2.5598,-2.56,-2.5593,-2.5609,-2.5607,-2.5601,-2.5601,-2.5601,-2.5601,-2.5601,-2.5601,-2.5601,-2.5601,-2.5601,-2.5601,-2.5601,-2.5601,-2.5601,-2.5601,-2.5601,-2.5601,-2.5589,-2.5534,-2.5577,-2.5554,-2.5456,-2.5444,-2.5444,-2.5444,-2.5404,-2.541,-2.541,-2.536,-2.5317,-2.5273,-2.5143,-2.5086,-2.5086,-2.5086,-2.5086,-2.5086,-2.5159,-2.522,-2.522,-2.522,-2.522,-2.522,-2.522,-2.5159,-2.5086,-2.5209,-2.5204]},{"header":{"parameterUnit":"m.s-1","parameterCategory":1,"la1":30.6,"la2":29.2853,"lo1":-89.7004,"lo2":-87.6739,"dy":0.0162,"dx":0.0183,"nx":112,"ny":82,"refTime":"2024-07-09T06:00:00:Z","depth":0,"parameterNumber":3,"parameterNumberName":"V-component_of_WINDS"},"data":[0.0,0.0,0.0,0.0,0.0,0.0,0.0,0.0,0.0,0.0,0.0,0.0,0.0,0.0,0.0,0.0,0.0,0.0,0.0,0.0,0.0,0.0,0.0,0.0,0.0,0.0,0.0,0.0,0.0,0.0,0.0,0.0,0.0,0.0,0.0,0.0,0.0,0.0,0.0,0.0,0.0,0.0,0.0,0.0,0.0,0.0,0.0,0.0,0.0,0.0,0.0,0.0,0.0,0.0,0.0,0.0,0.0,0.0,0.0,0.0,0.0,0.0,0.0,0.0,0.0,0.0,0.0,0.0,0.0,0.0,0.0,0.0,0.0,0.0,0.0,0.0,0.0,0.0,0.0,0.0,0.0,0.0,0.0,0.0,0.0,0.0,0.0,0.0,0.0,0.0,0.0,-1.3372,-1.4638,-1.543,-1.5487,-1.5865,-1.5201,-1.3042,0.0,0.0,0.0,0.0,0.0,0.0,0.0,0.0,0.0,0.0,0.0,0.0,0.0,0.0,0.0,0.0,0.0,0.0,0.0,0.0,0.0,0.0,0.0,0.0,0.0,0.0,0.0,0.0,0.0,0.0,0.0,0.0,0.0,0.0,0.0,0.0,0.0,0.0,0.0,0.0,0.0,0.0,0.0,0.0,0.0,0.0,0.0,0.0,0.0,0.0,0.0,0.0,0.0,0.0,0.0,0.0,0.0,0.0,0.0,0.0,0.0,0.0,0.0,0.0,0.0,0.0,0.0,0.0,0.0,0.0,0.0,0.0,0.0,0.0,0.0,0.0,0.0,0.0,0.0,0.0,0.0,0.0,0.0,0.0,0.0,0.0,0.0,0.0,0.0,0.0,0.0,0.0,0.0,0.0,0.0,0.0,0.0,0.0,0.0,0.0,0.0,0.0,0.0,0.0,-1.2815,-1.4901,-1.5043,-1.5119,-1.5468,-1.5673,-1.496,-1.3023,0.0,0.0,0.0,0.0,0.0,0.0,0.0,0.0,0.0,0.0,0.0,0.0,0.0,0.0,0.0,0.0,0.0,0.0,0.0,0.0,0.0,0.0,0.0,0.0,0.0,0.0,0.0,0.0,0.0,0.0,0.0,0.0,0.0,0.0,0.0,0.0,0.0,0.0,0.0,0.0,0.0,0.0,0.0,0.0,0.0,0.0,0.0,0.0,0.0,0.0,0.0,0.0,0.0,0.0,0.0,0.0,0.0,0.0,0.0,0.0,0.0,0.0,0.0,0.0,0.0,0.0,0.0,0.0,0.0,0.0,0.0,0.0,0.0,0.0,0.0,0.0,0.0,0.0,0.0,0.0,0.0,0.0,0.0,0.0,0.0,0.0,0.0,0.0,0.0,0.0,0.0,0.0,0.0,0.0,0.0,0.0,0.0,0.0,0.0,0.0,0.0,0.0,0.0,-1.29,-1.3838,-1.5449,-1.5664,-1.58,-1.5969,-1.6054,-1.5276,-1.3387,-1.2672,0.0,0.0,0.0,0.0,0.0,0.0,0.0,0.0,0.0,0.0,0.0,0.0,0.0,0.0,0.0,0.0,0.0,0.0,0.0,0.0,0.0,0.0,0.0,0.0,0.0,0.0,0.0,0.0,0.0,0.0,0.0,0.0,0.0,0.0,0.0,0.0,0.0,0.0,0.0,0.0,0.0,0.0,0.0,0.0,0.0,0.0,0.0,0.0,0.0,0.0,0.0,0.0,0.0,0.0,0.0,0.0,0.0,0.0,0.0,0.0,0.0,0.0,0.0,0.0,0.0,0.0,0.0,0.0,0.0,0.0,0.0,0.0,0.0,0.0,0.0,0.0,0.0,0.0,0.0,0.0,0.0,0.0,0.0,0.0,0.0,0.0,0.0,0.0,0.0,0.0,0.0,0.0,0.0,0.0,0.0,0.0,0.0,0.0,0.0,0.0,0.0,0.0,-1.448,-1.5061,-1.5803,-1.6202,-1.6413,-1.6413,-1.6112,-1.5245,-1.3714,-1.2461,0.0,0.0,0.0,0.0,0.0,0.0,0.0,0.0,0.0,0.0,0.0,0.0,0.0,0.0,0.0,0.0,0.0,0.0,0.0,0.0,0.0,0.0,0.0,0.0,0.0,0.0,0.0,0.0,0.0,0.0,0.0,0.0,0.0,0.0,0.0,0.0,0.0,0.0,0.0,0.0,0.0,0.0,0.0,0.0,0.0,0.0,0.0,0.0,0.0,0.0,0.0,0.0,0.0,0.0,0.0,0.0,0.0,0.0,0.0,0.0,0.0,0.0,0.0,0.0,0.0,0.0,0.0,0.0,0.0,0.0,0.0,0.0,0.0,0.0,0.0,0.0,0.0,0.0,0.0,0.0,0.0,0.0,0.0,0.0,0.0,0.0,0.0,0.0,0.0,0.0,0.0,0.0,0.0,0.0,0.0,0.0,0.0,0.0,0.0,0.0,0.0,0.0,-1.5008,-1.627,-1.6335,-1.6374,-1.6413,-1.6413,-1.5194,-1.421,-1.3628,-1.1551,0.0,0.0,0.0,0.0,0.0,0.0,0.0,0.0,0.0,0.0,0.0,0.0,0.0,0.0,0.0,0.0,0.0,0.0,0.0,0.0,0.0,0.0,0.0,0.0,0.0,0.0,0.0,0.0,0.0,0.0,0.0,0.0,0.0,0.0,0.0,0.0,0.0,0.0,0.0,0.0,0.0,0.0,0.0,0.0,0.0,0.0,0.0,0.0,0.0,0.0,0.0,0.0,0.0,0.0,0.0,0.0,0.0,0.0,0.0,0.0,0.0,0.0,0.0,0.0,0.0,0.0,0.0,0.0,0.0,0.0,0.0,0.0,0.0,0.0,0.0,0.0,0.0,0.0,0.0,0.0,0.0,0.0,0.0,0.0,0.0,0.0,0.0,0.0,0.0,0.0,0.0,0.0,0.0,0.0,0.0,0.0,0.0,0.0,0.0,0.0,0.0,0.0,-1.4229,-1.5421,0.0,-1.6413,-1.6413,-1.6413,-1.5639,-1.4604,-1.3245,0.0,0.0,0.0,0.0,0.0,0.0,0.0,0.0,0.0,0.0,0.0,0.0,0.0,0.0,0.0,0.0,0.0,0.0,0.0,0.0,0.0,0.0,0.0,0.0,0.0,0.0,0.0,0.0,0.0,0.0,0.0,0.0,0.0,0.0,0.0,0.0,0.0,0.0,0.0,0.0,0.0,0.0,0.0,0.0,0.0,0.0,0.0,0.0,0.0,0.0,0.0,0.0,0.0,0.0,0.0,0.0,0.0,0.0,0.0,0.0,0.0,0.0,0.0,0.0,0.0,0.0,0.0,0.0,0.0,0.0,0.0,0.0,0.0,0.0,0.0,0.0,0.0,0.0,0.0,0.0,0.0,0.0,0.0,0.0,0.0,0.0,0.0,0.0,0.0,0.0,0.0,0.0,0.0,0.0,0.0,0.0,0.0,0.0,0.0,0.0,0.0,0.0,-1.2708,-1.3969,-1.5163,0.0,-1.6413,-1.6413,-1.6413,-1.5546,-1.4428,-1.2987,0.0,0.0,0.0,0.0,0.0,0.0,0.0,0.0,0.0,0.0,0.0,0.0,0.0,0.0,0.0,0.0,0.0,0.0,0.0,0.0,0.0,0.0,0.0,0.0,0.0,0.0,0.0,0.0,0.0,0.0,0.0,0.0,0.0,0.0,0.0,0.0,0.0,0.0,0.0,0.0,0.0,0.0,0.0,0.0,0.0,0.0,0.0,0.0,0.0,0.0,0.0,0.0,0.0,0.0,0.0,0.0,0.0,0.0,0.0,0.0,0.0,0.0,0.0,0.0,0.0,0.0,0.0,0.0,0.0,0.0,0.0,0.0,0.0,0.0,0.0,0.0,0.0,0.0,0.0,0.0,0.0,0.0,0.0,0.0,0.0,0.0,0.0,0.0,0.0,0.0,0.0,0.0,0.0,0.0,0.0,0.0,0.0,0.0,0.0,0.0,0.0,0.0,-1.2781,-1.4531,-1.5856,-1.6361,-1.6413,-1.6413,-1.6402,-1.4687,-1.34,0.0,0.0,0.0,0.0,0.0,0.0,0.0,0.0,0.0,0.0,0.0,0.0,0.0,0.0,0.0,0.0,0.0,0.0,0.0,0.0,0.0,0.0,0.0,0.0,0.0,0.0,0.0,0.0,0.0,0.0,0.0,0.0,0.0,0.0,0.0,0.0,0.0,0.0,0.0,0.0,0.0,0.0,0.0,0.0,0.0,0.0,0.0,0.0,0.0,0.0,0.0,0.0,0.0,0.0,0.0,0.0,0.0,0.0,0.0,0.0,0.0,0.0,0.0,0.0,0.0,0.0,0.0,0.0,0.0,0.0,0.0,0.0,0.0,0.0,0.0,0.0,0.0,0.0,0.0,0.0,0.0,0.0,0.0,0.0,0.0,0.0,0.0,0.0,0.0,0.0,0.0,0.0,0.0,0.0,0.0,0.0,0.0,0.0,0.0,0.0,0.0,0.0,0.0,-1.2359,-1.4066,-1.5504,-1.6291,-1.6413,-1.6278,-1.5918,-1.509,-1.3838,-1.2078,0.0,0.0,0.0,0.0,0.0,0.0,0.0,0.0,0.0,0.0,0.0,0.0,0.0,0.0,0.0,0.0,0.0,0.0,0.0,0.0,0.0,0.0,0.0,0.0,0.0,0.0,0.0,0.0,0.0,0.0,0.0,0.0,0.0,0.0,0.0,0.0,0.0,0.0,0.0,0.0,0.0,0.0,0.0,0.0,0.0,0.0,0.0,0.0,0.0,0.0,0.0,0.0,0.0,0.0,0.0,0.0,0.0,0.0,0.0,0.0,0.0,0.0,0.0,0.0,0.0,0.0,0.0,0.0,0.0,0.0,0.0,0.0,0.0,0.0,0.0,0.0,0.0,0.0,0.0,0.0,0.0,0.0,0.0,0.0,0.0,0.0,0.0,0.0,0.0,0.0,0.0,0.0,0.0,0.0,0.0,0.0,0.0,0.0,0.0,0.0,0.0,0.0,-1.2411,-1.3972,-1.5359,-1.6309,-1.6413,-1.6216,-1.5732,-1.5266,-1.4121,-1.2017,0.0,0.0,0.0,0.0,0.0,0.0,0.0,0.0,0.0,0.0,0.0,0.0,0.0,0.0,0.0,0.0,0.0,0.0,0.0,0.0,0.0,0.0,0.0,0.0,0.0,0.0,0.0,0.0,0.0,0.0,0.0,0.0,0.0,0.0,0.0,0.0,0.0,0.0,0.0,0.0,0.0,0.0,0.0,0.0,0.0,0.0,0.0,0.0,0.0,0.0,0.0,0.0,0.0,0.0,0.0,0.0,0.0,0.0,0.0,0.0,0.0,0.0,0.0,0.0,0.0,0.0,0.0,0.0,0.0,0.0,0.0,0.0,0.0,0.0,0.0,0.0,0.0,0.0,0.0,0.0,0.0,0.0,0.0,0.0,0.0,0.0,0.0,0.0,0.0,0.0,0.0,0.0,0.0,0.0,0.0,0.0,0.0,0.0,0.0,0.0,0.0,0.0,-1.2729,-1.4138,-1.5359,-1.6309,-1.6413,-1.6205,-1.567,-1.5235,-1.4235,-1.24,0.0,0.0,0.0,0.0,0.0,0.0,0.0,0.0,0.0,0.0,0.0,0.0,0.0,0.0,0.0,0.0,0.0,0.0,0.0,0.0,0.0,0.0,0.0,0.0,0.0,0.0,0.0,0.0,0.0,0.0,0.0,0.0,0.0,0.0,0.0,0.0,0.0,0.0,0.0,0.0,0.0,0.0,0.0,0.0,0.0,0.0,0.0,0.0,0.0,0.0,0.0,0.0,0.0,0.0,0.0,0.0,0.0,0.0,0.0,0.0,-0.8151,0.0,0.0,0.0,0.0,0.0,0.0,0.0,0.0,0.0,0.0,0.0,0.0,0.0,0.0,0.0,0.0,0.0,0.0,0.0,0.0,0.0,0.0,0.0,0.0,0.0,0.0,0.0,0.0,0.0,0.0,0.0,0.0,0.0,0.0,0.0,0.0,0.0,0.0,0.0,0.0,0.0,-1.2729,-1.4138,-1.5359,-1.6309,-1.6413,-1.607,-1.5214,-1.5059,-1.4235,-1.24,0.0,0.0,0.0,0.0,0.0,0.0,0.0,0.0,0.0,0.0,0.0,0.0,0.0,0.0,0.0,0.0,0.0,0.0,0.0,0.0,0.0,0.0,0.0,0.0,0.0,0.0,0.0,0.0,0.0,0.0,0.0,0.0,0.0,0.0,0.0,0.0,0.0,0.0,0.0,0.0,0.0,0.0,0.0,0.0,0.0,0.0,0.0,0.0,0.0,0.0,0.0,0.0,0.0,0.0,0.0,0.0,0.0,0.0,0.0,0.0,0.0,-0.8743,0.0,0.0,0.0,0.0,0.0,0.0,0.0,0.0,0.0,0.0,0.0,0.0,0.0,0.0,0.0,0.0,0.0,0.0,0.0,0.0,0.0,0.0,0.0,0.0,0.0,0.0,0.0,0.0,0.0,0.0,0.0,0.0,0.0,0.0,0.0,0.0,0.0,0.0,0.0,0.0,-1.3338,-1.4417,-1.5359,-1.6309,-1.6205,-1.5763,-1.5059,-1.479,-1.4076,-1.2668,-1.2182,0.0,0.0,0.0,0.0,0.0,0.0,0.0,0.0,0.0,0.0,0.0,0.0,0.0,0.0,0.0,0.0,0.0,0.0,0.0,0.0,0.0,0.0,0.0,0.0,0.0,0.0,0.0,0.0,0.0,0.0,0.0,0.0,0.0,0.0,0.0,0.0,0.0,0.0,0.0,0.0,0.0,0.0,0.0,0.0,0.0,0.0,0.0,0.0,0.0,0.0,0.0,0.0,0.0,-1.0965,-1.1538,-1.2504,-1.2028,-1.1926,-1.2003,-1.0507,-1.0036,-1.0207,0.0,0.0,0.0,0.0,0.0,0.0,0.0,0.0,0.0,0.0,0.0,0.0,0.0,0.0,0.0,0.0,0.0,0.0,0.0,0.0,0.0,0.0,0.0,0.0,0.0,-1.3741,-1.351,0.0,0.0,0.0,0.0,0.0,0.0,0.0,0.0,0.0,0.0,0.0,0.0,-1.4035,-1.4707,-1.5359,-1.6309,-1.5998,-1.5504,-1.5038,-1.4573,-1.3927,-1.308,-1.2627,-1.2027,0.0,0.0,0.0,0.0,0.0,0.0,0.0,0.0,0.0,0.0,0.0,0.0,0.0,0.0,0.0,0.0,0.0,0.0,0.0,0.0,0.0,0.0,0.0,0.0,0.0,0.0,0.0,0.0,0.0,0.0,0.0,0.0,-0.5072,-0.5507,0.0,0.0,0.0,0.0,0.0,0.0,0.0,0.0,0.0,0.0,0.0,0.0,0.0,0.0,-1.066,-1.1178,-1.1568,-1.1822,-1.2404,-1.2628,-1.2499,-1.2723,-1.2687,-1.2426,-1.2489,0.0,-1.0946,-1.0507,0.0,0.0,0.0,0.0,0.0,0.0,0.0,0.0,0.0,0.0,0.0,0.0,0.0,0.0,0.0,0.0,0.0,0.0,0.0,0.0,0.0,0.0,-1.4264,-1.3854,-1.432,-1.4769,0.0,-1.323,-1.1975,-1.1509,0.0,0.0,0.0,0.0,0.0,0.0,0.0,0.0,-1.4117,-1.4707,-1.5359,-1.6309,-1.5998,-1.5504,-1.5038,-1.4573,-1.4076,-1.3535,-1.307,-1.2694,-1.2404,-1.1606,0.0,0.0,0.0,0.0,0.0,0.0,0.0,0.0,0.0,0.0,0.0,0.0,0.0,0.0,0.0,0.0,0.0,0.0,0.0,0.0,0.0,0.0,0.0,0.0,0.0,0.0,0.0,0.0,0.0,-0.5104,-0.5512,-0.583,-0.59,-0.5863,0.0,0.0,0.0,0.0,0.0,0.0,0.0,0.0,0.0,-0.9482,-0.9698,-1.0328,-1.1478,-1.1742,-1.2191,-1.2855,-1.3148,-1.3397,-1.3616,-1.3572,-1.3477,-1.3331,-1.3104,-1.2687,-1.2109,-1.1445,-1.0814,-1.0219,0.0,0.0,0.0,0.0,-0.9358,-0.9533,-0.9926,-1.0058,0.0,0.0,0.0,0.0,0.0,0.0,0.0,0.0,0.0,0.0,0.0,0.0,0.0,-1.5048,-1.5356,-1.5581,-1.5442,-1.4774,-1.3924,0.0,-1.2565,-1.2109,-1.1157,0.0,0.0,0.0,0.0,0.0,-1.449,-1.4873,-1.5256,-1.5918,-1.5577,-1.5111,-1.4645,-1.4313,-1.4041,-1.3831,-1.3784,-1.3591,-1.3227,-1.269,-1.1903,0.0,0.0,0.0,0.0,0.0,0.0,0.0,0.0,0.0,0.0,0.0,0.0,0.0,0.0,0.0,0.0,0.0,0.0,0.0,0.0,0.0,0.0,0.0,0.0,0.0,0.0,0.0,0.0,-0.5582,-0.597,-0.6261,-0.6514,-0.6568,0.0,0.0,0.0,0.0,0.0,0.0,-0.8118,-0.8589,-0.9306,-1.0373,-1.0571,-1.119,-1.232,-1.2356,-1.2796,-1.3748,-1.3828,-1.4077,-1.4504,-1.4296,-1.4136,-1.3998,-1.3558,-1.3287,-1.3067,-1.2208,-1.1643,-1.1275,-1.0785,-1.0383,-1.0142,-1.0485,-1.0594,-1.0675,-1.1245,-1.1392,-1.1336,-1.1382,0.0,-1.0727,-1.0743,0.0,0.0,0.0,0.0,-1.3977,-1.47,-1.5036,-1.5379,-1.5928,-1.6124,-1.6118,-1.5911,-1.5773,-1.5349,0.0,-1.3972,-1.3641,-1.2649,0.0,0.0,0.0,0.0,-1.3209,-1.479,-1.4894,-1.509,-1.5784,-1.5235,-1.4754,-1.4601,-1.4229,-1.402,-1.4114,-1.4291,-1.4266,-1.3961,-1.3605,-1.2984,-1.211,0.0,0.0,0.0,0.0,0.0,0.0,0.0,0.0,0.0,0.0,0.0,0.0,0.0,0.0,0.0,0.0,0.0,0.0,0.0,0.0,0.0,0.0,0.0,0.0,0.0,0.0,0.0,0.0,0.0,-0.6977,-0.7219,0.0,0.0,0.0,0.0,-0.805,-0.8126,-0.8419,-0.9093,-0.9165,-0.9824,-1.1195,-1.0964,-1.1764,-1.3776,-1.379,-1.4027,-1.446,-1.4721,-1.4728,-1.4518,-1.4765,-1.4521,-1.4034,-1.4313,-1.404,-1.3418,-1.2753,-1.2251,-1.1952,-1.1916,-1.1743,-1.1533,-1.1784,-1.1908,-1.1952,-1.2295,-1.2215,-1.1952,-1.197,-1.1569,-1.1197,-1.1748,-1.2105,0.0,0.0,-1.381,-1.4712,-1.4566,-1.5187,-1.5855,-1.5904,-1.6144,-1.6374,-1.6381,-1.6029,-1.5535,0.0,-1.4925,-1.4904,-1.4831,0.0,-1.4179,-1.42,-1.3828,-1.39,-1.4873,-1.4614,-1.4852,-1.6236,-1.5142,-1.4612,-1.5303,-1.4506,-1.4114,-1.4361,-1.4384,-1.4489,-1.464,-1.4205,-1.3615,-1.2846,-1.179,0.0,0.0,0.0,0.0,0.0,0.0,0.0,0.0,0.0,0.0,0.0,0.0,0.0,0.0,0.0,0.0,0.0,0.0,0.0,0.0,0.0,0.0,0.0,0.0,0.0,0.0,0.0,0.0,-0.7744,-0.8149,0.0,0.0,-0.814,-0.8365,-0.8619,-0.8776,-0.9141,-0.9868,-1.012,-1.0749,-1.1846,-1.246,-1.3226,-1.4158,-1.4418,-1.464,-1.4772,-1.4684,-1.4582,-1.4511,-1.4589,-1.4509,-1.4342,-1.446,-1.4372,-1.4144,-1.3872,-1.3331,-1.2602,-1.2397,-1.2244,-1.2197,-1.2273,-1.2317,-1.2332,-1.2448,-1.2412,-1.228,-1.2069,-1.2163,-1.2321,-1.2309,-1.2995,-1.3776,-1.392,-1.4541,-1.5196,-1.5274,-1.5527,-1.5817,-1.598,-1.6124,-1.6239,-1.6374,-1.6278,-1.6112,-1.5918,-1.5401,-1.4997,-1.4997,-1.4863,-1.4749,-1.4749,-1.4614,-1.4728,-1.5359,-1.5297,-1.539,-1.5915,-1.5225,-1.4799,-1.4927,-1.4516,-1.4361,-1.4593,-1.4766,-1.488,-1.4949,-1.4505,-1.3967,-1.3371,-1.2348,-1.1136,0.0,0.0,0.0,0.0,0.0,0.0,0.0,0.0,0.0,0.0,0.0,0.0,0.0,0.0,0.0,0.0,0.0,0.0,0.0,0.0,0.0,0.0,0.0,0.0,0.0,0.0,-0.7833,-0.8257,-0.8722,-0.8921,-0.8764,-0.8964,-0.9241,-0.9443,-0.9604,-0.9933,-1.0498,-1.0762,-1.1249,-1.2095,-1.2854,-1.3596,-1.4321,-1.4586,-1.4849,-1.5061,-1.4889,-1.4794,-1.4794,-1.4794,-1.4735,-1.4626,-1.4626,-1.4509,-1.435,-1.446,-1.4026,-1.3316,-1.3097,-1.295,-1.2848,-1.2848,-1.2848,-1.2848,-1.2848,-1.2775,-1.2616,-1.2397,-1.2542,-1.2888,-1.3123,-1.3839,-1.4597,-1.4812,-1.5234,-1.5605,-1.5457,-1.5606,-1.5817,-1.598,-1.6124,-1.6239,-1.6374,-1.6413,-1.6413,-1.6413,-1.5915,-1.5463,-1.5463,-1.5339,-1.5235,-1.5235,-1.5101,-1.5163,-1.5628,-1.5546,-1.5577,-1.5887,-1.537,-1.4977,-1.4927,-1.4763,-1.4642,-1.4685,-1.4949,-1.5108,-1.5108,-1.4649,-1.4153,-1.3624,-1.2613,-1.167,-1.0763,0.0,0.0,0.0,0.0,0.0,0.0,0.0,0.0,0.0,0.0,0.0,0.0,0.0,0.0,0.0,0.0,0.0,0.0,0.0,0.0,0.0,0.0,0.0,-0.7144,-0.776,-0.8306,-0.8517,-0.8958,-0.9238,-0.9238,-0.9464,-0.9895,-1.0544,-1.0597,-1.0735,-1.0972,-1.1024,-1.1322,-1.2005,-1.2088,-1.2833,-1.4419,-1.4454,-1.4755,-1.5403,-1.5389,-1.5389,-1.5389,-1.5389,-1.5214,-1.4922,-1.4922,-1.4596,-1.404,-1.4394,-1.4328,-1.3982,-1.3982,-1.3784,-1.3506,-1.3499,-1.3492,-1.3492,-1.3492,-1.3287,-1.3023,-1.3009,-1.2797,-1.2796,-1.4172,-1.4591,-1.4722,-1.5362,-1.5817,-1.5872,-1.5109,-1.5404,-1.5885,-1.5914,-1.6144,-1.6413,-1.6413,-1.6413,-1.6413,-1.6413,-1.6413,-1.6413,-1.6413,-1.6011,-1.5711,-1.5711,-1.5328,0.0,-1.5649,-1.5318,-1.5407,-1.6309,-1.5573,-1.5117,-1.5392,-1.5207,-1.4982,-1.4707,-1.4949,-1.5108,-1.5108,-1.4649,-1.4153,-1.3624,-1.2624,-1.1815,-1.1169,0.0,0.0,0.0,0.0,0.0,0.0,0.0,0.0,0.0,0.0,0.0,0.0,0.0,0.0,0.0,0.0,0.0,0.0,0.0,0.0,0.0,0.0,-0.7884,-0.7884,-0.8501,-0.9007,-0.926,-0.9707,-0.9997,-0.9997,-1.0207,-1.0388,-1.0581,-1.0597,-1.0735,-1.0972,-1.1441,-1.1983,-1.2472,-1.3527,-1.4396,-1.499,-1.5318,-1.5561,-1.5782,-1.5498,-1.5389,-1.5389,-1.5389,-1.5338,-1.525,-1.525,-1.5017,-1.4645,-1.4732,-1.4487,-1.3982,-1.3982,-1.3923,-1.3821,-1.3587,-1.3492,-1.3492,-1.3492,-1.344,-1.3323,-1.3082,-1.3249,-1.3595,-1.3748,-1.4139,-1.4516,-1.4467,-1.4805,-1.5176,-1.496,-1.541,-1.5972,-1.6202,-1.6316,-1.6413,-1.6413,-1.6413,-1.6413,-1.6413,-1.6413,-1.6413,-1.6413,-1.6299,-1.6216,-1.6216,-1.6112,0.0,-1.6205,-1.6073,-1.6206,-1.6645,-1.5859,-1.5392,-1.5665,-1.5147,-1.4783,-1.4685,-1.4949,-1.5108,-1.5108,-1.4649,-1.4153,-1.3624,-1.2992,-1.27,0.0,0.0,0.0,0.0,0.0,0.0,0.0,0.0,0.0,0.0,0.0,0.0,0.0,0.0,0.0,0.0,0.0,0.0,0.0,0.0,0.0,0.0,-0.8155,-0.8663,-0.8765,-0.9138,-0.9491,-0.9836,-1.0126,-1.0369,-1.0562,-1.0702,-1.078,-1.0887,-1.0984,-1.1101,-1.1139,-1.1864,-1.2515,-1.2965,-1.4101,-1.4869,-1.5266,-1.554,-1.5673,-1.5709,-1.5476,-1.5389,-1.5389,-1.5389,-1.5389,0.0,-1.5389,-1.5199,-1.49,-1.49,-1.464,0.0,0.0,0.0,0.0,0.0,-1.3492,-1.3492,-1.3492,-1.3492,-1.3462,-1.3272,-1.3456,-1.3792,-1.3931,-1.414,-1.4288,-1.4106,-1.4298,-1.4568,-1.452,-1.5006,-1.5594,-1.6087,-1.6288,-1.6413,-1.6413,-1.6413,-1.6413,-1.6413,0.0,0.0,-1.6413,-1.6413,-1.6413,-1.6413,-1.6413,-1.6413,-1.6413,-1.6413,-1.6459,-1.663,-1.5957,-1.5511,-1.5465,-1.5091,0.0,0.0,0.0,-1.5016,-1.4809,-1.4534,0.0,0.0,0.0,0.0,0.0,0.0,0.0,0.0,-1.4515,-1.4773,0.0,0.0,0.0,0.0,0.0,0.0,0.0,0.0,0.0,0.0,0.0,0.0,0.0,0.0,0.0,0.0,-0.8873,-0.9362,-0.9588,-0.9642,-0.9814,-1.0245,-1.0315,-1.0503,-1.0939,-1.1031,-1.1155,-1.1332,-1.1607,-1.1645,-1.1396,0.0,0.0,0.0,0.0,-1.467,-1.5365,-1.5365,-1.5393,-1.5447,-1.5447,-1.5425,-1.5389,-1.5389,-1.5389,-1.5389,-1.5389,-1.5199,-1.49,-1.49,-1.4735,-1.4423,-1.4137,-1.3784,-1.3492,-1.3492,-1.3492,-1.3492,-1.3492,0.0,0.0,-1.3492,-1.3492,-1.363,-1.4294,-1.4257,-1.3965,-1.3926,-1.3942,-1.3987,-1.3985,-1.4414,-1.504,-1.573,-1.6144,-1.6374,-1.6374,-1.6374,-1.6413,-1.6413,-1.6413,-1.6413,-1.6413,-1.6413,-1.6413,-1.6413,-1.6413,-1.6413,-1.6413,-1.6413,-1.6392,-1.6358,0.0,0.0,-1.5018,-1.5071,-1.4921,-1.4429,-1.4834,-1.4913,-1.4488,-1.4465,-1.4465,-1.4465,-1.4465,-1.5091,-1.6286,-1.6786,-1.7446,-1.8244,-1.6637,-1.6428,0.0,0.0,0.0,0.0,0.0,0.0,0.0,0.0,0.0,0.0,0.0,0.0,0.0,0.0,0.0,-0.8915,-0.9437,-0.9798,-0.9846,-1.003,-1.0191,-1.0283,-1.0455,-1.0681,-1.0955,-1.1332,-1.158,-1.1628,-1.1894,-1.2008,-1.1959,-1.2632,0.0,-1.3171,-1.383,-1.4491,-1.5249,-1.5249,-1.5444,-1.5783,0.0,0.0,-1.5389,-1.5389,-1.5389,-1.5389,-1.5389,-1.5199,-1.49,-1.49,-1.4596,-1.407,-1.4042,-1.3784,-1.3492,-1.3492,-1.3492,-1.3492,-1.3492,-1.3492,-1.3492,-1.3492,-1.3492,-1.3535,-1.3674,-1.3472,0.0,-1.2885,-1.3009,-1.329,-1.3665,-1.4237,-1.4913,-1.5701,-1.6019,-1.6153,-1.6153,-1.6278,-1.6413,-1.6413,-1.6413,-1.6413,-1.6413,-1.6413,-1.6413,-1.6413,-1.6413,-1.6413,-1.6413,-1.6413,-1.6342,-1.6176,-1.6039,-1.5638,-1.4889,-1.5159,-1.5065,-1.4429,-1.4834,-1.5062,-1.497,-1.497,-1.497,-1.497,-1.497,-1.5597,-1.686,-1.6946,-1.7859,-1.946,-1.8623,-1.8362,0.0,0.0,0.0,0.0,0.0,0.0,0.0,0.0,0.0,0.0,0.0,-0.7793,0.0,0.0,-0.898,-0.9335,-0.9793,-1.0105,-1.0105,-1.0315,-1.0466,-1.0466,-1.0528,-1.0649,-1.0783,-1.1352,-1.1609,-1.1387,-1.1895,-1.2224,-1.21,-1.2848,-1.3181,-1.3099,-1.4122,-1.4834,-1.5191,-1.5599,-1.5812,-1.5913,-1.5913,-1.5703,-1.5389,-1.5389,-1.5389,-1.5389,-1.5389,-1.5294,-1.5119,-1.4838,-1.4421,-1.3967,-1.3806,-1.3638,-1.3492,-1.3492,-1.3492,-1.3492,-1.3492,-1.3492,-1.3492,-1.3492,-1.3492,-1.3492,-1.3492,-1.3265,-1.2943,-1.258,-1.2509,-1.2678,-1.3405,-1.3906,-1.4481,-1.5643,-1.599,-1.6114,-1.622,-1.6345,-1.6413,-1.6413,-1.6413,-1.6413,-1.6413,-1.6413,-1.6413,-1.6413,-1.6413,-1.6413,-1.6413,-1.6413,-1.6376,-1.6276,-1.5997,-1.5753,-1.5472,-1.5452,-1.5357,-1.517,-1.5119,-1.5108,-1.5108,-1.5108,-1.5108,-1.5108,-1.5255,-1.5766,-1.6603,-1.7339,-1.8274,-1.9368,-1.9666,-1.981,0.0,0.0,0.0,0.0,0.0,0.0,0.0,0.0,-0.6814,-0.7375,-0.8033,-0.8576,-0.8965,-0.9227,-0.948,-0.9685,-1.0116,-1.0412,-1.0369,-1.0557,-1.0662,-1.0662,-1.0662,-1.0662,-1.06,-1.1326,-1.1634,-1.123,-1.1977,-1.2398,-1.224,-1.2877,-1.3222,-1.3072,-1.428,-1.5006,-1.5187,-1.596,-1.6263,-1.6096,-1.6038,-1.5833,-1.5476,-1.5418,-1.5389,-1.5389,-1.5389,-1.5389,-1.5338,-1.4735,-1.435,-1.4078,-1.3653,-1.3492,-1.3492,-1.3492,-1.3492,-1.3492,-1.3492,-1.3492,-1.3492,-1.3492,-1.3492,-1.3484,-1.3418,-1.317,-1.2848,-1.2485,-1.2164,-1.2131,-1.3061,-1.3485,-1.3986,-1.5342,-1.5865,-1.6124,-1.6316,-1.6374,-1.6413,-1.6413,-1.6413,-1.6413,-1.6413,-1.6413,-1.6413,-1.6413,-1.6413,-1.6413,-1.6413,-1.6413,-1.6381,-1.6278,-1.6019,-1.5921,-1.6159,-1.5752,-1.5614,-1.5876,-1.5406,-1.5108,-1.5108,-1.5108,-1.5108,-1.5108,-1.5379,-1.5832,-1.653,-1.7729,-1.8623,-1.9264,-2.0242,-2.0699,-0.3088,-0.3494,0.0,-0.5261,-0.5908,-0.6621,0.0,0.0,-0.8388,-0.8874,-0.9208,-0.9473,-0.9527,-0.9868,-1.018,-1.0207,-1.0606,-1.0832,-1.0587,-1.0799,-1.0945,-1.0945,-1.0945,-1.0879,-1.0611,-1.1468,-1.2005,-1.1965,-1.2452,-1.2759,-1.2732,-1.2802,-1.2856,-1.2828,-1.3628,-1.4386,-1.5098,-1.5853,-1.6408,-1.6793,-1.6499,-1.6162,-1.5848,-1.552,-1.5389,-1.5389,-1.5389,-1.5389,-1.5338,-1.4735,-1.4489,-1.4394,-1.3733,-1.3492,-1.3492,-1.3492,-1.3492,-1.3492,-1.3492,-1.3492,-1.3492,-1.3492,-1.3492,-1.344,-1.3148,-1.2833,-1.2477,-1.2149,-1.186,-1.1784,-1.2436,-1.307,-1.3743,-1.4627,-1.54,-1.5961,-1.6095,-1.6278,-1.6413,-1.6413,-1.6413,-1.6413,-1.6413,-1.6413,-1.6413,-1.6413,-1.6413,-1.6413,-1.6413,-1.6413,-1.6247,-1.5804,-1.6084,-1.635,-1.645,-1.5867,-1.5602,-1.5889,-1.5406,-1.5108,-1.5108,-1.5108,-1.5108,-1.5108,-1.5131,-1.6007,-1.7721,-1.7892,-1.8826,-2.0515,-2.0646,-2.0699,-0.4166,0.0,0.0,0.0,-0.7042,-0.7598,-0.8179,-0.8414,-0.8646,-0.9109,-0.9405,-0.962,-0.975,-1.0062,-1.0293,0.0,-1.0681,-1.095,-1.0853,-1.0923,-1.0899,-1.0653,-1.0815,-1.0905,-1.0616,-1.1373,-1.1671,-1.1257,-1.2083,-1.2523,-1.2365,-1.2613,-1.2813,-1.2813,-1.3956,-1.4765,-1.5099,-1.6237,-1.684,-1.6903,-1.6763,-1.6529,-1.617,-1.5855,-1.5564,-1.5389,-1.5389,-1.5389,-1.5338,-1.4735,-1.4511,-1.4445,-1.3748,-1.3492,-1.3492,-1.3492,-1.3492,-1.3492,-1.3492,-1.3492,-1.3492,-1.3492,-1.3492,-1.347,-1.3331,-1.3192,-1.298,-1.2434,-1.2226,-1.2191,-1.2437,-1.3009,-1.3713,-1.4599,-1.5362,-1.5972,-1.622,-1.6345,-1.6413,-1.6413,-1.6413,-1.6413,-1.6413,-1.6413,-1.6413,-1.6413,-1.6413,-1.6413,-1.6413,-1.6413,-1.633,-1.6143,-1.6189,-1.6246,-1.6251,-1.5791,-1.5554,-1.565,-1.5325,-1.5108,-1.5108,-1.5108,-1.5108,-1.5108,-1.5289,-1.6049,-1.7376,-1.7922,-1.8882,-2.019,-2.053,-2.0699,-0.4864,0.0,0.0,-0.712,-0.7777,-0.8245,-0.8375,-0.8517,-0.8743,-0.9211,-0.9453,-0.9647,-0.9879,-1.0126,0.0,-1.0374,-1.0724,-1.1004,-1.1074,-1.1025,-1.0884,-1.0615,-1.069,-1.0736,-1.0616,-1.1157,-1.1301,-1.0884,-1.1661,-1.2225,-1.2214,-1.2565,-1.2813,-1.2813,-1.4292,-1.5099,-1.5099,-1.6567,-1.7216,-1.7027,-1.6947,-1.6778,-1.6536,-1.6096,-1.5738,-1.5389,-1.5389,-1.5389,-1.5345,-1.4831,-1.4585,-1.4452,-1.385,-1.3579,-1.3492,-1.3492,-1.3492,-1.3492,-1.3492,-1.3492,-1.3492,-1.3492,-1.3492,-1.3477,-1.3389,-1.336,-1.3221,-1.2536,-1.2353,-1.2354,-1.2274,-1.2734,-1.3433,-1.4264,-1.505,-1.572,-1.6116,-1.6316,-1.6413,-1.6413,-1.6413,-1.6413,-1.6413,-1.6413,-1.6413,-1.6413,-1.6413,-1.6413,-1.6413,-1.6413,-1.6361,-1.6236,-1.6153,-1.6132,-1.624,-1.5777,-1.5643,-1.5998,-1.5588,-1.5326,-1.5326,-1.5326,-1.5257,-1.5108,-1.5345,-1.6047,-1.7265,-1.7931,-1.8891,-2.0048,-2.0491,-2.0699,0.0,0.0,-0.5976,-0.7021,-0.7757,-0.8332,-0.8765,-0.8879,-0.9025,-0.9506,-0.9608,-0.9647,-0.9879,-1.0126,-1.0369,-1.0549,-1.0826,-1.1069,-1.1262,-1.1133,-1.1074,-1.1268,-1.0704,-1.0398,0.0,-1.0848,-1.1121,-1.1344,-1.1609,-1.2024,-1.2748,-1.2813,-1.2813,-1.2813,-1.4292,-1.5099,-1.5099,-1.6567,-1.7279,-1.7264,-1.7004,-1.6895,-1.6866,-1.6199,-1.5738,-1.5389,-1.5389,-1.5389,-1.536,-1.5024,-1.4743,-1.4474,-1.4137,-1.3777,-1.3492,-1.3492,-1.3492,-1.3492,-1.3492,-1.3492,-1.3492,-1.3492,-1.3492,-1.3433,-1.3119,-1.3023,-1.2884,-1.22,-1.2018,-1.197,-1.1672,-1.2066,-1.2665,-1.323,-1.4154,-1.507,-1.5604,-1.6087,-1.6413,-1.6413,-1.6413,-1.6413,-1.6413,-1.6413,-1.6413,-1.6413,-1.6413,-1.6413,-1.6413,-1.6413,-1.6236,-1.5753,-1.5953,-1.624,-1.6546,-1.5903,-1.6045,-1.7266,-1.6417,-1.5889,-1.5889,-1.5889,-1.5636,-1.5119,-1.5108,-1.6031,-1.7869,-1.7905,-1.8865,-2.0673,-2.0699,-2.0699,0.0,0.0,-0.6934,-0.7701,-0.8143,-0.8436,-0.8597,-0.863,-0.8721,-0.9073,-0.9138,-0.9208,-0.94,-0.9776,-1.0126,-1.0369,-1.0735,-1.1069,-1.1273,-1.1139,-1.0931,-1.0673,-1.0447,0.0,0.0,0.0,0.0,-1.0629,-1.1436,-1.1989,-1.1992,-1.2533,-1.2813,-1.2813,-1.4292,-1.5099,-1.5099,-1.6567,-1.7279,-1.7279,-1.7223,-1.6945,-1.6573,-1.6316,-1.5928,-1.5389,-1.5389,-1.5389,-1.536,-1.5039,-1.4757,-1.4474,-1.4144,-1.3784,-1.3492,-1.3492,-1.3492,-1.3492,-1.3492,-1.3492,-1.3492,-1.3492,-1.3492,-1.3477,-1.3367,-1.3331,-1.3192,-1.2507,-1.2324,-1.2233,-1.1731,-1.2035,-1.2634,-1.3169,-1.3885,-1.4658,-1.5517,-1.5827,-1.6029,-1.6345,-1.6413,-1.6413,-1.6413,-1.6413,-1.6413,-1.6413,-1.6413,-1.6413,-1.6413,-1.6413,-1.6236,-1.5742,-1.5492,-1.549,-1.5768,-1.517,-1.5319,-1.6579,-1.6196,-1.605,-1.6346,-1.6358,-1.6277,-1.6094,-1.6094,-1.671,-1.7967,-1.8228,-1.8996,-2.0245,-2.0536,-2.0699,0.0,-0.6699,-0.7491,-0.8265,-0.8458,-0.8538,-0.8619,-0.8576,-0.856,-0.8705,-0.8771,-0.8807,-0.9039,-0.9335,-0.9707,-1.0213,-1.0546,-1.0912,-1.1359,-1.1192,-1.0995,-1.0949,-1.0487,0.0,0.0,0.0,0.0,-1.0367,-1.1349,-1.1999,-1.2045,-1.2539,-1.2813,-1.2813,-1.4292,-1.5099,-1.5099,-1.6567,-1.7274,-1.7157,-1.7157,-1.6828,-1.6206,-1.6206,-1.5921,-1.5389,-1.5389,-1.5389,-1.5374,-1.5163,-1.486,-1.4489,-1.4276,-1.3887,-1.3492,-1.3492,-1.3492,-1.3492,-1.3492,-1.3492,-1.3492,-1.3492,-1.3492,-1.3492,-1.3492,-1.3411,-1.3214,-1.2638,-1.2404,-1.2193,-1.1731,-1.1888,-1.2313,-1.2873,-1.3472,-1.4103,-1.499,-1.5439,-1.5798,-1.6087,-1.6298,-1.6413,-1.6413,-1.6413,-1.6413,-1.6413,-1.6413,-1.6413,-1.6413,-1.6413,-1.6236,-1.5742,-1.5421,-1.5332,-1.5532,-1.5162,-1.541,-1.6613,-1.6528,-1.6568,-1.6876,-1.6899,-1.6807,-1.6598,-1.6748,-1.7292,-1.822,-1.8647,-1.9333,-2.0271,-2.0574,-2.0699,-0.6705,-0.7135,-0.7621,-0.8648,-0.87,-0.8592,-0.8846,-0.8673,-0.8495,-0.8495,-0.8484,-0.8549,0.0,0.0,-0.9203,-1.0105,-1.0288,-1.0638,-1.1569,-1.1305,-1.1278,0.0,0.0,0.0,0.0,0.0,0.0,-1.064,0.0,-1.1971,-1.2684,-1.271,-1.2716,-1.2764,-1.419,-1.5051,-1.5099,-1.6567,-1.7179,-1.6925,-1.691,-1.658,-1.5943,-1.5921,-1.5738,-1.5389,-1.5389,-1.5389,-1.5389,-1.5374,-1.5035,-1.4511,-1.4489,-1.4093,-1.3492,-1.3492,-1.3492,-1.3492,-1.3492,-1.3492,-1.3492,-1.3492,-1.3492,-1.3492,-1.3492,-1.3265,-1.2943,-1.258,-1.2251,-1.193,-1.1672,-1.1591,-1.1747,-1.2359,-1.2881,-1.342,-1.407,-1.4961,-1.5614,-1.5643,-1.6058,-1.6384,-1.6413,-1.6413,-1.6413,-1.6413,-1.6413,-1.6413,-1.6413,-1.6413,-1.6236,-1.5742,-1.5691,-1.5737,-1.5844,-1.5829,-1.6269,-1.7381,-1.7419,-1.7419,-1.7442,-1.7442,-1.7197,-1.669,-1.7139,-1.7786,-1.8609,-1.9107,-1.9781,-2.0649,-2.0687,-2.0699,-0.7137,-0.7845,-0.8539,-0.8834,-0.8852,-0.8825,-0.8884,-0.8576,-0.8274,-0.8274,-0.8133,-0.8,-0.8059,0.0,0.0,-0.9663,-1.0207,0.0,-1.1591,-1.1596,0.0,0.0,0.0,-1.0319,-1.0107,-1.0054,0.0,0.0,-1.0758,-1.1101,-1.1297,-1.1502,-1.178,-1.2175,-1.313,-1.4082,-1.5099,-1.6567,-1.7289,-1.7208,-1.7013,-1.669,-1.6243,-1.6016,-1.5738,-1.5389,-1.5389,-1.5389,-1.5367,-1.5126,-1.4831,-1.4482,-1.424,-1.3857,-1.3492,-1.3492,-1.3492,-1.3492,-1.3492,-1.3492,-1.3492,-1.3492,-1.3492,-1.3492,-1.3492,-1.3265,-1.2943,-1.258,-1.2251,-1.193,-1.1672,-1.1591,-1.1747,-1.2359,-1.2605,-1.2972,-1.3971,-1.4398,-1.4695,-1.5049,-1.5517,-1.6,-1.6345,-1.6413,-1.6413,-1.6413,-1.6413,-1.6413,-1.6413,-1.6413,-1.6236,-1.5742,-1.5691,-1.5884,-1.6372,-1.6037,-1.6413,-1.7832,-1.7588,-1.7553,-1.7905,-1.7917,-1.7859,-1.7733,-1.8184,-1.8544,-1.8742,-1.947,-1.994,-2.0182,-2.0549,-2.0699,-0.7705,-0.8301,-0.8922,-0.9025,-0.8971,-0.8895,-0.8895,-0.8522,-0.8122,-0.7881,-0.7736,0.0,0.0,0.0,0.0,0.0,0.0,0.0,-1.1429,-1.1634,-1.1648,0.0,-1.0993,0.0,-1.0178,-0.9992,-0.9858,0.0,-1.0536,-1.0975,-1.0975,-1.1132,-1.1345,-1.1634,-1.2349,-1.3547,-1.5229,-1.6285,-1.6854,-1.6901,-1.6771,-1.6448,-1.595,-1.5782,-1.5564,-1.5389,0.0,-1.5309,-1.5163,-1.498,-1.467,-1.4276,-1.4055,-1.3784,-1.3492,-1.3492,-1.3492,-1.3492,-1.3492,-1.3492,-1.3492,-1.3492,-1.3492,-1.3492,-1.3492,-1.3265,-1.2943,-1.258,-1.2251,-1.193,-1.1672,-1.1591,-1.1716,-1.2212,-1.2336,-1.2574,-1.3498,-1.3851,-1.4151,-1.4775,-1.5342,-1.5788,-1.6058,-1.6259,-1.6413,-1.6413,-1.6413,-1.6413,-1.6413,-1.6413,-1.6309,-1.605,-1.6019,-1.6157,-1.652,-1.647,-1.6809,-1.7729,-1.7748,-1.7813,-1.81,-1.8084,-1.8084,-1.8084,-1.8556,-1.8798,-1.8798,-1.9434,-1.9824,-2.0016,-2.0271,-2.0511,-0.8225,-0.8555,-0.8944,-0.9109,-0.9046,-0.889,-0.8857,-0.8479,-0.8009,-0.7514,0.0,0.0,-0.7346,0.0,-0.8097,-0.9012,0.0,-1.0184,-1.1166,-1.1465,-1.1605,-1.1691,-1.1153,-1.0663,-1.0542,-0.9969,-0.9579,-0.9579,-1.0458,-1.0998,-1.0998,-1.0998,-1.0998,-1.1096,-1.196,-1.3247,-1.5073,-1.5812,-1.6192,-1.6292,-1.6345,-1.6023,-1.5455,-1.5411,-1.5389,-1.5389,0.0,0.0,-1.49,-1.4856,-1.4523,-1.402,-1.3931,-1.374,-1.3492,-1.3492,-1.3492,-1.3492,-1.3492,-1.3492,-1.3492,-1.3492,-1.3492,-1.3492,-1.3492,-1.3265,-1.2943,-1.258,-1.2251,-1.193,-1.1672,-1.1591,-1.1685,-1.2027,-1.2096,-1.2282,-1.2867,-1.3338,-1.3932,-1.4745,-1.5284,-1.5643,-1.5769,-1.6144,-1.6413,-1.6413,-1.6413,-1.6413,-1.6413,-1.6413,-1.6413,-1.6413,-1.6413,-1.6434,-1.6521,-1.695,-1.7291,-1.7428,-1.7871,-1.8084,-1.8084,-1.8084,-1.8084,-1.8084,-1.8556,-1.8798,-1.8798,-1.921,-1.9591,-1.9927,-1.9927,-2.0169,-0.8452,-0.8684,-0.8906,-0.8944,-0.8927,-0.8846,-0.8619,-0.8204,0.0,0.0,0.0,-0.7149,-0.7149,-0.7505,0.0,-0.8836,0.0,0.0,0.0,0.0,-1.1328,0.0,0.0,0.0,0.0,0.0,0.0,0.0,0.0,0.0,-0.9871,-0.9871,-1.0068,-1.0511,-1.2106,-1.3119,-1.3499,-1.5044,-1.5805,-1.5832,-1.5928,-1.5935,-1.5783,-1.5513,-1.5389,-1.5389,0.0,0.0,-1.4878,-1.4655,-1.4326,-1.3953,-1.3682,-1.3543,-1.3492,-1.3492,-1.3492,-1.3492,-1.3492,-1.3492,-1.3492,-1.3492,-1.3492,-1.3492,-1.3492,-1.3265,-1.2943,-1.258,-1.2251,-1.193,-1.1672,-1.1591,-1.1685,-1.2027,-1.2096,-1.2282,-1.2867,-1.3277,-1.3812,-1.4715,-1.4981,-1.5313,-1.6144,-1.6355,-1.6413,-1.6413,-1.6413,-1.6413,-1.6413,-1.6413,-1.6413,-1.6413,-1.6413,-1.6485,-1.6729,-1.7084,-1.7401,-1.7643,-1.7929,-1.8084,-1.8084,-1.8084,-1.8084,-1.8084,-1.8556,-1.8798,-1.8798,-1.921,-1.9447,-1.9486,-1.9486,-1.9734,-0.8479,-0.8684,-0.8895,-0.8895,-0.8809,-0.8619,-0.8409,0.0,0.0,0.0,0.0,-0.7112,-0.7112,0.0,0.0,0.0,0.0,0.0,0.0,0.0,0.0,0.0,0.0,0.0,0.0,0.0,0.0,0.0,0.0,0.0,-0.9579,-0.9579,-0.9727,-0.9969,-1.0979,-1.1879,-1.2501,-1.3525,-1.4287,-1.4789,-1.5168,-1.5297,-1.5135,-1.5329,-1.5389,-1.5389,-1.5389,0.0,-1.4684,-1.4531,-1.4218,-1.3711,-1.3558,-1.3492,-1.3492,-1.3492,-1.3492,-1.347,-1.3301,-1.3353,-1.347,-1.3294,-1.336,-1.3492,-1.3492,-1.3265,-1.2943,-1.258,-1.2251,-1.193,-1.1672,-1.1591,-1.1654,-1.1809,-1.1965,-1.222,-1.2644,-1.3208,-1.3782,-1.4419,-1.4961,-1.5459,-1.5933,-1.623,-1.6413,-1.6413,-1.6413,-1.6413,-1.6413,-1.6413,-1.6413,-1.6413,-1.6413,-1.6412,-1.6439,-1.6583,-1.6858,-1.7292,-1.7454,-1.7702,-1.8073,-1.8084,-1.8084,-1.8084,-1.8329,-1.8449,-1.8449,-1.8625,-1.8839,-1.909,-1.909,-1.9303,-0.8522,-0.8759,-0.896,-0.8911,-0.8689,-0.8436,-0.8171,-0.7752,0.0,0.0,0.0,-0.7112,-0.7112,0.0,0.0,0.0,0.0,0.0,0.0,0.0,0.0,0.0,0.0,0.0,0.0,0.0,0.0,0.0,0.0,0.0,-0.9571,-0.9567,-0.9551,-0.9514,-0.9848,-1.057,-1.1702,-1.2162,-1.2804,-1.3636,-1.4269,-1.4503,-1.4398,-1.479,-1.5048,-1.5166,-1.5101,0.0,0.0,-1.4314,-1.3943,-1.3309,-1.3455,-1.3492,-1.3492,-1.3492,-1.3492,-1.3455,-1.3206,-1.3236,-1.3353,-1.3097,-1.3228,-1.3492,-1.3492,-1.3316,-1.3031,-1.2594,-1.2302,-1.2018,-1.1694,-1.1591,-1.1591,-1.1591,-1.1903,-1.2243,-1.2451,-1.3117,-1.3782,-1.427,-1.499,-1.5585,-1.5817,-1.6144,-1.6413,-1.6413,-1.6413,-1.6413,-1.6413,-1.6319,-1.6257,-1.6257,-1.635,-1.63,-1.6039,-1.6132,-1.6347,-1.6725,-1.6856,-1.724,-1.7928,-1.7951,-1.8008,-1.8084,-1.8084,-1.8084,-1.8084,-1.8084,-1.8275,-1.8637,-1.8637,-1.8866,-0.8803,-0.9001,-0.912,-0.8949,-0.8689,-0.8393,-0.7935,0.0,0.0,0.0,-0.7112,-0.7112,-0.7112,0.0,0.0,0.0,0.0,0.0,0.0,0.0,0.0,0.0,0.0,0.0,0.0,0.0,0.0,0.0,0.0,0.0,0.0,-0.9429,-0.9355,-0.9149,-0.9639,-1.0189,-1.0737,-1.1597,-1.2314,-1.2821,-1.3286,-1.3841,-1.4398,-1.3815,-1.3942,-1.4461,-1.4186,0.0,0.0,-1.3669,-1.3508,-1.2746,-1.3309,-1.3492,-1.3492,-1.3492,-1.3492,-1.3492,-1.3462,-1.3272,-1.3045,-1.3016,-1.3228,-1.3492,-1.3492,-1.3477,-1.3323,-1.2694,-1.247,-1.2336,-1.1753,-1.1591,-1.1591,-1.1591,-1.205,-1.2459,-1.2482,-1.3025,-1.3782,-1.4647,-1.4922,-1.5245,-1.6173,-1.6384,-1.6413,-1.6413,-1.6413,-1.6413,-1.6413,-1.6039,-1.5753,-1.5753,-1.6153,-1.6216,-1.5776,-1.6186,-1.6302,-1.5931,-1.6353,-1.6896,-1.7453,-1.7476,-1.7668,-1.8084,-1.8084,-1.8084,-1.8084,-1.8084,-1.8111,-1.8166,-1.8166,-1.841,-0.8403,-0.8641,-0.877,-0.8678,-0.8366,-0.8032,-0.7844,0.0,0.0,-0.7106,-0.7112,-0.7112,-0.7112,-0.7112,-0.7177,0.0,0.0,0.0,0.0,0.0,0.0,0.0,0.0,0.0,0.0,0.0,0.0,0.0,0.0,0.0,0.0,-0.9347,-0.9322,-0.9104,-0.9171,-0.9474,-0.9926,-1.0524,-1.103,-1.1462,-1.2367,-1.296,-1.3209,-1.3349,-1.3464,-1.3533,-1.3415,0.0,0.0,-1.2754,-1.2572,-1.2114,-1.2709,-1.2973,-1.301,-1.3382,-1.3492,-1.347,-1.3272,-1.3119,-1.298,-1.2747,-1.2936,-1.3206,-1.3206,-1.3206,-1.3104,-1.2616,-1.2346,-1.2123,-1.1709,-1.1591,-1.1654,-1.184,-1.2089,-1.2367,-1.2736,-1.3246,-1.3782,-1.4359,-1.4715,-1.5128,-1.5846,-1.5972,-1.6058,-1.6345,-1.6413,-1.6413,-1.6413,-1.6247,-1.6133,-1.6133,-1.5773,-1.5359,-1.4894,-1.5198,-1.5419,-1.5389,-1.5724,-1.6382,-1.7373,-1.7082,-1.7163,-1.7668,-1.7679,-1.7679,-1.7679,-1.7962,-1.8084,-1.8084,-1.8084,-1.8193,-0.8117,-0.8409,-0.8587,-0.8441,-0.8151,-0.7865,0.0,0.0,-0.7112,-0.7112,-0.7112,-0.7112,-0.7112,-0.7112,-0.7112,0.0,-0.7144,-0.7419,-0.812,0.0,0.0,0.0,0.0,0.0,0.0,0.0,0.0,0.0,0.0,0.0,0.0,-0.9129,-0.9116,-0.8946,-0.8816,-0.8967,-0.9455,-0.9802,-1.0207,-1.0593,-1.1591,-1.2198,-1.2406,-1.2668,-1.2728,-1.2706,0.0,0.0,0.0,-1.1923,-1.1922,-1.1744,-1.2378,-1.2709,-1.2936,-1.3346,-1.3492,-1.3462,-1.3228,-1.3023,-1.2826,-1.2592,-1.258,-1.2682,-1.2682,-1.2855,-1.2943,-1.258,-1.2186,-1.1838,-1.165,-1.1591,-1.1685,-1.2027,-1.2151,-1.2367,-1.2897,-1.3338,-1.3752,-1.413,-1.4458,-1.4863,-1.5371,-1.5469,-1.5585,-1.5904,-1.6087,-1.6151,-1.5989,-1.5997,-1.5918,-1.5784,-1.5059,-1.4573,-1.4511,-1.4738,-1.4946,-1.4969,-1.5359,-1.6009,-1.7,-1.6692,-1.6694,-1.7151,-1.7151,-1.7258,-1.7407,-1.7737,-1.7962,-1.8084,-1.8084,-1.8084,-0.8117,-0.8528,-0.8782,-0.8332,-0.8207,-0.8052,0.0,-0.7235,-0.7112,-0.7112,-0.7112,-0.7112,-0.7112,-0.7112,-0.7112,-0.7112,-0.7262,0.0,0.0,0.0,0.0,0.0,0.0,0.0,0.0,0.0,0.0,0.0,0.0,0.0,0.0,-0.8824,-0.8747,-0.862,-0.8616,-0.8832,-0.9305,-0.9781,-1.0207,-1.0593,-1.1084,-1.1688,-1.2363,-1.1645,-1.1555,0.0,0.0,0.0,0.0,-1.1307,-1.1706,-1.1744,-1.2378,-1.2973,-1.3492,-1.3492,-1.3492,-1.3492,-1.3492,-1.3067,-1.2492,-1.2485,-1.2273,-1.201,-1.201,-1.2463,-1.2943,-1.258,-1.2065,-1.1599,-1.1591,-1.1591,-1.1685,-1.2027,-1.2305,-1.2574,-1.292,-1.3246,-1.3631,-1.41,-1.4189,-1.4369,-1.4834,-1.4922,-1.4922,-1.4922,-1.5371,-1.5542,-1.5077,-1.5019,-1.4831,-1.4376,-1.391,-1.4003,-1.4914,-1.5237,-1.5201,-1.4729,-1.5315,-1.5855,-1.6207,-1.6207,-1.6334,-1.661,-1.661,-1.6876,-1.7407,-1.7407,-1.7645,-1.8084,-1.8084,-1.8084,-0.7607,-0.7898,-0.8097,-0.7976,-0.779,-0.7605,-0.7431,-0.7235,-0.7112,-0.7112,-0.7112,-0.7112,-0.7112,-0.7112,-0.7192,-0.7521,0.0,0.0,0.0,0.0,0.0,0.0,0.0,0.0,0.0,0.0,0.0,0.0,0.0,0.0,0.0,-0.882,-0.8743,-0.8616,-0.8612,-0.8656,-0.8828,-0.9607,-1.0081,-1.0207,-1.0954,-1.1219,-1.1011,-1.0805,0.0,0.0,0.0,0.0,0.0,-0.9954,-1.0475,-1.1111,-1.1298,-1.2003,-1.2872,-1.2626,-1.2934,-1.3462,-1.3243,-1.2884,-1.2485,-1.2485,-1.2266,-1.2003,-1.2003,-1.2302,-1.2606,-1.2251,-1.1889,-1.1591,-1.1591,-1.1591,-1.1685,-1.2027,-1.2151,-1.2367,-1.2897,-1.3072,-1.3285,-1.3662,-1.3731,-1.3872,-1.433,-1.4419,-1.4538,-1.4863,-1.504,-1.5129,-1.5012,-1.4999,-1.4938,-1.4806,-1.4366,-1.4076,-1.4055,-1.43,-1.4368,-1.423,-1.4731,-1.5395,-1.6213,-1.5741,-1.5976,-1.7117,-1.6795,-1.6876,-1.7407,-1.7725,-1.7951,-1.8084,-1.8084,-1.8084,0.0,-0.7321,-0.7532,-0.7532,-0.746,-0.7346,-0.717,-0.7128,-0.7058,-0.6972,-0.7026,-0.7112,-0.7112,-0.7112,-0.7209,-0.7483,0.0,0.0,0.0,0.0,0.0,0.0,0.0,0.0,0.0,0.0,0.0,0.0,0.0,0.0,0.0,0.0,-0.8678,-0.8616,-0.8612,-0.8612,-0.8612,-0.9345,-0.9738,-0.9733,-1.0477,-1.0578,-1.0154,-1.0154,0.0,0.0,0.0,0.0,0.0,-0.9473,-1.003,-1.0812,-1.0812,-1.1347,-1.2118,-1.1901,-1.2274,-1.282,-1.262,-1.2443,-1.2302,-1.2302,-1.2083,-1.186,-1.186,-1.208,-1.2237,-1.1948,-1.1714,-1.1591,-1.1591,-1.1591,-1.1685,-1.2027,-1.2182,-1.2398,-1.2897,-1.3103,-1.3246,-1.345,-1.3511,-1.3601,-1.3881,-1.3941,-1.4031,-1.4321,-1.44,-1.4391,-1.4267,-1.4268,-1.4264,-1.4256,-1.3976,-1.375,-1.3617,-1.393,-1.4166,-1.4262,-1.4701,-1.5353,-1.6224,-1.5773,-1.6008,-1.7071,-1.6759,-1.6876,-1.7407,-1.7859,-1.8084,-1.8084,-1.8084,-1.8084,0.0,-0.6853,-0.7063,-0.7063,-0.7181,-0.7202,-0.679,-0.688,0.0,-0.6731,-0.6896,-0.7063,-0.7106,-0.7112,-0.7128,-0.7177,0.0,0.0,0.0,0.0,0.0,0.0,0.0,0.0,0.0,0.0,0.0,0.0,0.0,0.0,0.0,0.0,-0.8592,-0.8592,-0.858,-0.8584,-0.8612,-0.9043,-0.9297,-0.9283,-0.9758,-0.9857,-0.9606,-0.9648,0.0,0.0,0.0,0.0,0.0,-0.9695,-1.0218,-1.0812,-1.0738,-1.1003,-1.1397,-1.1323,-1.1508,-1.1772,-1.173,-1.1792,-1.1898,-1.1909,-1.1738,-1.156,-1.1591,-1.1765,-1.1908,-1.1672,-1.1591,-1.1591,-1.1591,-1.1591,-1.1685,-1.1996,-1.2274,-1.2552,-1.2889,-1.3216,-1.348,-1.3511,-1.3511,-1.3511,-1.3511,-1.3511,-1.3502,-1.3476,-1.3559,-1.3463,-1.3013,-1.3033,-1.3068,-1.3017,-1.304,-1.3184,-1.3573,-1.4014,-1.4362,-1.4606,-1.5069,-1.5592,-1.6157,-1.6182,-1.6356,-1.6701,-1.6713,-1.6942,-1.7453,-1.7882,-1.8084,-1.8084,-1.8084,-1.8084,-0.6087,0.0,-0.6557,-0.6557,-0.66,-0.6616,0.0,-0.6519,-0.6541,0.0,0.0,0.0,0.0,0.0,0.0,0.0,0.0,0.0,0.0,0.0,0.0,0.0,0.0,0.0,0.0,0.0,0.0,0.0,0.0,0.0,0.0,0.0,-0.8357,-0.8357,-0.8219,-0.828,-0.8608,-0.9043,-0.9226,-0.9071,-0.9549,-0.9401,-0.8805,-0.9091,0.0,0.0,0.0,0.0,-0.9322,-0.9397,-0.9992,-1.0738,-1.0293,-1.074,-1.1524,-1.0645,-1.0831,-1.1422,-1.0973,-1.083,-1.087,-1.1042,-1.1052,-1.1059,-1.1466,-1.1643,-1.1687,-1.1613,-1.1591,-1.1591,-1.1591,-1.1591,-1.1622,-1.1685,-1.1965,-1.2274,-1.2552,-1.2889,-1.3186,-1.345,-1.3511,-1.3511,-1.3511,-1.3511,-1.3417,-1.3172,-1.3148,-1.3007,-1.2591,-1.2813,-1.3033,-1.2992,-1.329,-1.3491,-1.3586,-1.369,-1.3786,-1.3848,-1.4493,-1.5193,-1.5931,-1.6131,-1.6683,-1.7718,-1.7756,-1.7813,-1.7939,-1.8054,-1.8084,-1.8084,-1.8084,-1.8084,-0.583,-0.6126,-0.6423,-0.6525,-0.6425,-0.6299,-0.6197,0.0,0.0,0.0,0.0,0.0,0.0,0.0,0.0,0.0,0.0,0.0,0.0,0.0,0.0,0.0,0.0,0.0,0.0,0.0,0.0,0.0,0.0,0.0,0.0,0.0,-0.8162,-0.8162,-0.8065,-0.8109,-0.8312,-0.8568,-0.8636,-0.8534,-0.8789,-0.8677,-0.8193,-0.8392,-0.8247,0.0,0.0,0.0,-0.8789,-0.9354,-0.969,-0.9825,-0.9766,-0.9985,-1.0197,-0.9672,-0.989,-1.0371,-1.0069,-1.0088,-1.029,-1.0397,-1.044,-1.0541,-1.1083,-1.1216,-1.1279,-1.1529,-1.1591,-1.1591,-1.1591,-1.1591,-1.1654,-1.1778,-1.2058,-1.2367,-1.2674,-1.2972,-1.3277,-1.345,-1.3511,-1.3459,-1.3297,-1.3271,-1.3134,-1.2766,-1.2569,-1.2441,-1.2412,-1.2463,-1.2623,-1.2963,-1.3184,-1.3396,-1.3586,-1.3807,-1.3955,-1.4087,-1.4486,-1.5146,-1.6136,-1.6402,-1.7021,-1.8073,-1.8084,-1.8084,-1.8084,-1.8084,-1.8084,-1.8084,-1.8084,-1.8084,-0.5744,-0.6056,-0.6433,-0.6564,-0.6411,-0.6151,-0.5897,0.0,0.0,0.0,0.0,0.0,0.0,0.0,0.0,0.0,0.0,0.0,0.0,0.0,0.0,0.0,0.0,0.0,0.0,0.0,0.0,0.0,0.0,0.0,0.0,0.0,0.0,-0.7975,-0.7947,-0.7931,-0.7931,-0.7983,-0.8,-0.7975,-0.7975,-0.7886,-0.7759,-0.7838,-0.7735,0.0,0.0,0.0,-0.8203,-0.921,-0.9248,-0.8665,-0.9191,-0.9036,-0.8554,-0.8743,-0.8964,-0.9165,-0.9157,-0.9428,-0.9799,-0.9862,-0.9894,-1.0028,-1.0611,-1.0807,-1.0902,-1.1435,-1.1591,-1.1591,-1.1591,-1.1591,-1.1654,-1.1972,-1.2243,-1.2521,-1.2797,-1.3155,-1.342,-1.342,-1.345,-1.3399,-1.3069,-1.3009,-1.2826,-1.2372,-1.2011,-1.1886,-1.22,-1.205,-1.216,-1.2837,-1.2969,-1.3193,-1.3672,-1.4055,-1.4474,-1.4835,-1.4845,-1.5369,-1.6563,-1.6917,-1.7386,-1.8084,-1.8084,-1.8084,-1.8084,-1.8084,-1.8084,-1.8084,-1.8084,-1.8084,-0.5916,-0.6175,-0.6353,-0.6151,-0.6243,-0.6235,0.0,0.0,0.0,0.0,0.0,0.0,0.0,0.0,0.0,0.0,0.0,0.0,0.0,0.0,0.0,0.0,0.0,0.0,0.0,0.0,0.0,0.0,0.0,0.0,0.0,0.0,0.0,-0.7837,-0.7646,-0.7565,-0.7565,-0.7862,-0.7943,-0.7837,-0.7837,-0.7743,-0.7563,-0.7915,-0.7964,0.0,0.0,-0.8349,-0.8184,-0.8394,-0.8394,-0.8286,-0.8395,-0.8361,-0.8272,-0.8357,-0.842,-0.8464,-0.8576,-0.8673,-0.8797,-0.9274,-0.9396,-0.9588,-1.0516,-1.0807,-1.0902,-1.1435,-1.1591,-1.1591,-1.1591,-1.1591,-1.1622,-1.1654,-1.1903,-1.2182,-1.2212,-1.2674,-1.3072,-1.3072,-1.3307,-1.3399,-1.3069,-1.3009,-1.274,-1.2003,-1.1849,-1.1721,-1.1498,-1.1713,-1.2045,-1.2456,-1.281,-1.332,-1.4116,-1.4268,-1.4653,-1.5479,-1.5565,-1.6001,-1.7059,-1.7632,-1.7977,-1.8084,-1.8084,-1.8084,-1.8084,-1.8084,-1.8084,-1.8084,-1.8084,-1.8084,-0.5809,-0.611,-0.6369,-0.625,-0.6364,-0.6441,0.0,0.0,0.0,0.0,0.0,0.0,0.0,0.0,0.0,0.0,0.0,0.0,0.0,0.0,0.0,0.0,0.0,0.0,0.0,0.0,0.0,0.0,0.0,0.0,0.0,0.0,0.0,0.0,-0.7567,-0.7484,-0.7484,-0.7642,-0.7687,-0.7649,-0.7649,-0.7604,-0.7518,-0.758,-0.7563,-0.7512,0.0,-0.7821,-0.7588,-0.8014,-0.7943,-0.758,-0.7857,-0.785,-0.7683,-0.8014,-0.8134,-0.8184,-0.8419,-0.8517,-0.8544,-0.8797,-0.9055,-0.9428,-1.0155,-1.0573,-1.0902,-1.1435,-1.1591,-1.1591,-1.1591,-1.1591,-1.1654,-1.184,-1.1996,-1.2151,-1.2274,-1.2521,-1.2767,-1.295,-1.2967,-1.2886,-1.2695,-1.25,-1.2148,-1.1619,-1.1533,-1.155,-1.162,-1.1803,-1.204,-1.2415,-1.2782,-1.3083,-1.3304,-1.3736,-1.4461,-1.5632,-1.5691,-1.6081,-1.6955,-1.6743,-1.7044,-1.7865,-1.7632,-1.7702,-1.8084,-1.8084,-1.8084,-1.8084,-1.8084,-1.8084,-0.575,-0.603,-0.6312,-0.6297,0.0,-0.6511,0.0,0.0,0.0,0.0,0.0,0.0,0.0,0.0,0.0,0.0,0.0,0.0,0.0,0.0,0.0,0.0,0.0,0.0,0.0,0.0,0.0,0.0,0.0,0.0,0.0,0.0,0.0,0.0,-0.7484,-0.7484,-0.7484,-0.7443,-0.7443,-0.7484,-0.7443,-0.7423,-0.7415,-0.724,-0.7139,-0.7094,-0.7313,-0.7188,-0.6896,-0.7525,-0.742,-0.6884,-0.7325,-0.7398,-0.7342,-0.7818,-0.8052,-0.8149,-0.8414,-0.8517,-0.8517,-0.8517,-0.877,-0.9242,-0.9831,-1.0281,-1.0737,-1.1404,-1.1591,-1.1591,-1.1591,-1.1591,-1.1654,-1.1903,-1.1972,-1.2027,-1.2243,-1.2367,-1.249,-1.2828,-1.2685,-1.2468,-1.2402,-1.2062,-1.1686,-1.1353,-1.1301,-1.1418,-1.1728,-1.1753,-1.1913,-1.2289,-1.2556,-1.27,-1.2648,-1.3306,-1.415,-1.5185,-1.5325,-1.567,-1.6328,-1.5775,-1.6075,-1.7342,-1.7202,-1.7296,-1.7756,-1.7882,-1.7871,-1.7756,-1.7756,-1.7825,-0.5851,-0.5996,-0.6013,-0.594,0.0,0.0,0.0,0.0,0.0,0.0,0.0,0.0,0.0,0.0,0.0,0.0,0.0,0.0,0.0,0.0,0.0,0.0,0.0,0.0,0.0,0.0,0.0,0.0,0.0,0.0,0.0,0.0,0.0,0.0,0.0,-0.7484,-0.7484,-0.7326,-0.7326,-0.748,-0.7322,-0.7207,-0.7203,-0.7094,-0.6922,-0.6733,-0.6755,-0.6649,-0.6457,-0.6523,-0.649,-0.6457,-0.6478,-0.6894,-0.7512,-0.7862,-0.8182,-0.8484,-0.8484,-0.8517,-0.8517,-0.8517,-0.8517,-0.8738,-0.9703,-1.0015,-1.0275,-1.1303,-1.1591,-1.1591,-1.1591,-1.1591,-1.1622,-1.1622,-1.1622,-1.1654,-1.1654,-1.1903,-1.2212,-1.2482,-1.2506,-1.2468,-1.2402,-1.2062,-1.1686,-1.1353,-1.1301,-1.1318,-1.1352,-1.1352,-1.1455,-1.1817,-1.1877,-1.2201,-1.2978,-1.351,-1.3827,-1.3936,-1.423,-1.4596,-1.5017,-1.545,-1.5913,-1.6398,-1.7034,-1.7163,-1.6713,-1.7209,-1.7186,-1.6713,-1.6713,-1.6979,-0.5717,-0.5911,-0.603,-0.6169,0.0,0.0,0.0,0.0,0.0,0.0,0.0,0.0,0.0,0.0,0.0,0.0,0.0,0.0,0.0,0.0,0.0,0.0,0.0,0.0,0.0,0.0,0.0,0.0,0.0,0.0,0.0,0.0,0.0,0.0,0.0,-0.7269,-0.7192,-0.7122,-0.7122,-0.7188,-0.7122,-0.7094,-0.7086,-0.691,-0.6757,-0.6688,-0.6574,-0.6481,-0.6387,-0.6387,-0.6387,-0.642,-0.6618,-0.6876,-0.7204,-0.7792,-0.8084,-0.822,-0.8414,-0.8517,-0.8517,-0.8517,-0.8738,-0.9055,-0.946,-0.9996,-1.0573,-1.0989,-1.1341,-1.1591,-1.1591,-1.1591,-1.1591,-1.1591,-1.1591,-1.1591,-1.1591,-1.1685,-1.1873,-1.2137,-1.1998,-1.1845,-1.2007,-1.1738,-1.1439,-1.1318,-1.1301,-1.1301,-1.1301,-1.1301,-1.1353,-1.1473,-1.149,-1.1714,-1.2254,-1.2263,-1.2259,-1.2259,-1.3084,-1.3864,-1.4562,-1.4205,-1.4551,-1.5716,-1.5771,-1.5897,-1.6171,-1.6361,-1.6452,-1.6412,-1.6412,-1.6601,-0.5631,-0.5906,-0.6149,0.0,0.0,0.0,0.0,0.0,0.0,0.0,0.0,0.0,0.0,0.0,0.0,0.0,0.0,0.0,0.0,0.0,0.0,0.0,0.0,0.0,0.0,0.0,0.0,0.0,0.0,0.0,0.0,0.0,0.0,0.0,-0.7074,-0.7078,-0.6992,-0.6931,-0.6902,-0.6906,-0.6845,-0.6849,-0.6902,-0.6688,-0.6607,-0.6603,-0.6473,-0.6387,-0.6387,-0.6387,-0.6387,-0.6416,-0.6782,-0.6913,-0.6979,-0.7727,-0.7987,-0.8052,-0.8382,-0.8517,-0.8517,-0.8517,-0.8738,-0.9081,-0.9242,-0.9786,-1.0358,-1.051,-1.0926,-1.1341,-1.1341,-1.1466,-1.1591,-1.1591,-1.1591,-1.1591,-1.1591,-1.1511,-1.1524,-1.183,-1.1454,-1.1209,-1.1502,-1.1344,-1.1175,-1.1175,-1.1251,-1.1301,-1.1301,-1.1301,-1.1301,-1.1301,-1.1301,-1.1404,-1.161,-1.1422,-1.1301,-1.1301,-1.207,-1.2908,-1.3763,-1.3234,-1.3573,-1.4921,-1.4921,-1.5069,-1.5441,-1.567,-1.5784,-1.58,-1.5873,-1.6086,-0.5636,-0.6052,0.0,0.0,0.0,0.0,0.0,0.0,0.0,0.0,0.0,0.0,0.0,0.0,0.0,0.0,0.0,0.0,0.0,0.0,0.0,0.0,0.0,0.0,0.0,0.0,0.0,0.0,0.0,0.0,0.0,0.0,0.0,0.0,-0.6988,-0.6988,-0.6984,-0.68,-0.6714,-0.6692,-0.6505,-0.6513,-0.6688,-0.6501,-0.6387,-0.6387,-0.6387,-0.6387,-0.6387,-0.6387,-0.6387,-0.6416,-0.6782,-0.6913,-0.6975,-0.7727,-0.7987,-0.8052,-0.8382,-0.8484,-0.8517,-0.8517,-0.8517,-0.8608,-0.9145,-0.9306,-0.9396,-0.9862,-1.0383,-1.08,-1.08,-1.1185,-1.1591,-1.1591,-1.1591,-1.1591,-1.1591,-1.1335,-1.1197,-1.1517,-1.1012,-1.0601,-1.0928,-1.0946,-1.0896,-1.0896,-1.1124,-1.1301,-1.1301,-1.1301,-1.1301,-1.1301,-1.1301,-1.1301,-1.1301,-1.1301,-1.1301,-1.1301,-1.1301,-1.1653,-1.2455,-1.2686,-1.317,-1.3973,-1.4709,-1.4864,-1.4373,-1.5117,-1.5201,-1.4697,-1.4971,-1.5372,-0.568,0.0,0.0,0.0,0.0,0.0,0.0,0.0,0.0,0.0,0.0,0.0,0.0,0.0,0.0,0.0,0.0,0.0,0.0,0.0,0.0,0.0,0.0,0.0,0.0,0.0,0.0,0.0,0.0,0.0,0.0,0.0,0.0,0.0,-0.6145,-0.6325,-0.6578,-0.6522,-0.6497,-0.6501,-0.6444,-0.6415,-0.6501,-0.6411,-0.6387,-0.6387,-0.6387,-0.6387,-0.6387,-0.6387,-0.6343,-0.6301,-0.6731,-0.683,-0.6817,-0.7437,-0.7787,-0.8019,-0.8117,-0.8317,-0.8517,-0.8517,-0.8517,-0.8517,-0.8705,-0.899,-0.9338,-0.946,-0.9869,-1.025,-1.025,-1.0636,-1.1122,-1.1498,-1.1591,-1.1525,-1.1298,-1.1173,-1.1064,-1.0859,-1.0801,-1.0819,-1.0913,-1.1065,-1.1175,-1.1175,-1.1251,-1.1301,-1.1301,-1.1301,-1.1301,-1.1301,-1.1301,-1.1301,-1.1301,-1.1301,-1.1301,-1.1301,-1.1301,-1.1519,-1.2051,-1.2141,-1.2412,-1.2934,-1.316,-1.3199,-1.3069,-1.3272,-1.3528,-1.38,-1.386,-1.4228,-0.5934,0.0,0.0,0.0,0.0,0.0,0.0,0.0,0.0,0.0,0.0,0.0,0.0,0.0,0.0,0.0,0.0,0.0,0.0,0.0,0.0,0.0,0.0,0.0,0.0,0.0,0.0,0.0,0.0,0.0,0.0,0.0,0.0,0.0,-0.5406,-0.5645,-0.6086,-0.6083,-0.615,-0.631,-0.631,-0.6274,-0.6213,-0.6355,-0.6379,-0.6306,-0.6237,-0.6245,-0.6306,-0.6237,-0.6144,-0.6117,-0.6386,-0.6459,-0.644,-0.6976,-0.7402,-0.7705,-0.7924,-0.822,-0.8517,-0.8517,-0.8517,-0.8501,-0.8398,-0.862,-0.8845,-0.8748,-0.9127,-0.9612,-0.9825,-1.0329,-1.0836,-1.1029,-1.1247,-1.1305,-1.0982,-1.0806,-1.0629,-1.0384,-1.0359,-1.0377,-1.0383,-1.0608,-1.0786,-1.0786,-1.0896,-1.1023,-1.1124,-1.115,-1.1175,-1.1301,-1.1301,-1.1301,-1.1301,-1.1301,-1.1301,-1.1301,-1.1301,-1.1402,-1.1644,-1.1828,-1.2076,-1.2505,-1.2505,-1.2505,-1.2505,-1.2584,-1.2817,-1.316,-1.3266,-1.3624,0.0,0.0,0.0,0.0,0.0,0.0,0.0,0.0,0.0,0.0,0.0,0.0,0.0,0.0,0.0,0.0,0.0,0.0,0.0,0.0,0.0,0.0,0.0,0.0,0.0,0.0,0.0,0.0,0.0,0.0,0.0,0.0,0.0,0.0,-0.4737,-0.4965,-0.5529,-0.5515,-0.5697,0.0,-0.6057,-0.5976,-0.584,-0.6189,-0.6278,-0.6174,-0.5988,-0.6008,-0.617,-0.5984,-0.5876,-0.5864,-0.588,-0.5876,-0.5944,-0.6462,-0.6889,-0.7276,-0.779,-0.8199,-0.8517,-0.8517,-0.8501,-0.8447,-0.8274,-0.8213,-0.8106,-0.7881,-0.8306,-0.8918,-0.9461,-1.0113,-1.0581,-1.0282,-1.0668,-1.1004,-1.0616,-1.0309,-1.0089,-1.006,-0.9819,-0.964,-0.964,-0.9862,-1.0051,-1.0051,-1.0308,-1.0598,-1.0871,-1.0896,-1.0998,-1.1267,-1.1301,-1.1301,-1.1301,-1.1301,-1.1301,-1.1301,-1.1301,-1.1301,-1.1301,-1.1644,-1.2026,-1.2382,-1.2397,-1.2397,-1.2397,-1.2564,-1.2667,-1.2716,-1.2967,-1.3304,0.0,0.0,0.0,0.0,0.0,0.0,0.0,0.0,0.0,0.0,0.0,0.0,0.0,0.0,0.0,0.0,0.0,0.0,0.0,0.0,0.0,0.0,0.0,0.0,0.0,0.0,0.0,0.0,0.0,0.0,0.0,0.0,0.0,-0.4159,-0.4134,-0.4344,-0.4894,-0.4844,-0.4865,0.0,-0.4958,-0.5094,-0.537,-0.5812,-0.5982,-0.5971,-0.5904,-0.5939,-0.5971,-0.5904,-0.5803,-0.5685,-0.5831,-0.5799,-0.5722,-0.6207,-0.674,-0.7262,-0.7588,-0.8037,-0.8517,-0.8517,-0.8388,-0.8284,-0.8393,-0.8172,-0.7933,-0.8063,-0.8069,-0.814,-0.8557,-0.9098,-0.9538,-0.9571,-1.0356,-1.0946,-1.0331,-1.0148,-1.0024,-0.9768,-0.9829,-0.9914,-0.9914,-1.018,-1.0385,-1.0385,-1.0445,-1.0598,-1.0871,-1.0896,-1.0998,-1.1267,-1.1301,-1.1301,-1.1301,-1.1301,-1.1301,-1.1301,-1.1301,-1.1301,-1.1301,-1.1377,-1.1477,-1.1553,-1.1553,-1.1553,-1.1553,-1.1594,-1.1785,-1.2082,-1.2166,-1.2412,0.0,0.0,0.0,0.0,0.0,0.0,0.0,0.0,0.0,0.0,0.0,0.0,0.0,0.0,0.0,0.0,0.0,0.0,0.0,0.0,0.0,0.0,0.0,0.0,0.0,0.0,0.0,0.0,0.0,0.0,0.0,-0.3097,-0.3223,-0.3512,-0.3491,-0.3713,-0.4278,-0.4243,-0.4297,-0.4442,-0.4442,-0.4529,-0.4643,-0.542,-0.5807,-0.588,-0.5705,-0.5677,-0.575,-0.5665,-0.5547,-0.547,-0.5567,-0.5547,-0.551,-0.5835,-0.6381,-0.6949,-0.7304,-0.7829,-0.8371,-0.8371,-0.8284,-0.816,-0.8032,-0.7803,-0.7605,-0.7668,-0.7634,-0.7721,-0.8172,-0.8608,-0.8951,-0.9075,-0.9883,-1.047,-0.9972,-0.987,-0.9819,-0.9643,-0.9725,-0.981,-0.981,-0.9966,-1.0069,-1.0069,-1.018,-1.036,-1.0667,-1.082,-1.0998,-1.1267,-1.1301,-1.1301,-1.1301,-1.1301,-1.1301,-1.1301,-1.1301,-1.1301,-1.1301,-1.1301,-1.1301,-1.1301,-1.1301,-1.1301,-1.1301,-1.1301,-1.1402,-1.1619,-1.1619,-1.1828,0.0,0.0,0.0,0.0,0.0,0.0,0.0,0.0,0.0,0.0,0.0,0.0,0.0,0.0,0.0,0.0,0.0,0.0,0.0,0.0,0.0,0.0,0.0,0.0,0.0,0.0,0.0,0.0,0.0,0.0,0.0,-0.3015,-0.3015,-0.3015,-0.297,-0.3175,-0.3631,-0.361,-0.3762,-0.4039,-0.4096,-0.4068,-0.3916,-0.4876,-0.5445,-0.566,-0.5341,-0.5322,-0.5527,-0.5357,-0.5297,-0.5297,-0.5297,-0.5297,-0.5317,-0.5543,-0.6017,-0.6582,-0.6962,-0.747,-0.7994,-0.8055,-0.8028,-0.7932,-0.7589,-0.7399,-0.7326,-0.7192,-0.7235,-0.747,-0.7991,-0.829,-0.8506,-0.8679,-0.9282,-0.9728,-0.9463,-0.9432,-0.9484,-0.9484,-0.9562,-0.9588,-0.9588,-0.9588,-0.9588,-0.9588,-0.9777,-1.0051,-1.036,-1.0616,-1.0845,-1.1124,-1.12,-1.1217,-1.1217,-1.1267,-1.1301,-1.1301,-1.1301,-1.1301,-1.1301,-1.1301,-1.1301,-1.1301,-1.1301,-1.1301,-1.1301,-1.1301,-1.1301,-1.1301,-1.1301,-1.1477,0.0,0.0,0.0,0.0,0.0,0.0,0.0,0.0,0.0,0.0,0.0,0.0,0.0,0.0,0.0,0.0,0.0,0.0,0.0,0.0,0.0,0.0,0.0,0.0,0.0,0.0,0.0,0.0,0.0,0.0,-0.2981,-0.3015,-0.3015,-0.3015,-0.2883,-0.2873,-0.2932,-0.2881,-0.286,-0.2932,-0.3322,-0.351,-0.3497,-0.3984,-0.4452,-0.4863,-0.4792,-0.5006,-0.5329,-0.5309,-0.5297,-0.5297,-0.5297,-0.5297,-0.5329,-0.5656,-0.5936,-0.6224,-0.6572,-0.6851,-0.7115,-0.7425,-0.7357,-0.7223,-0.7621,-0.7462,-0.7171,-0.7326,-0.7245,-0.7242,-0.7668,-0.78,-0.7925,-0.8352,-0.8532,-0.8625,-0.856,-0.8844,-0.9087,-0.9087,-0.9361,-0.9588,-0.9588,-0.9588,-0.9588,-0.9588,-0.964,-0.9751,-1.0025,-1.0102,-1.0257,-1.0565,-1.082,-1.0947,-1.0947,-1.1175,-1.1301,-1.1301,-1.1301,-1.1301,-1.1301,-1.1301,-1.1301,-1.1301,-1.1301,-1.1301,-1.1301,-1.1301,-1.1301,-1.1301,-1.1301,-1.1326,0.0,0.0,0.0,0.0,0.0,0.0,0.0,0.0,0.0,0.0,0.0,0.0,0.0,0.0,0.0,0.0,0.0,0.0,0.0,0.0,0.0,0.0,0.0,0.0,0.0,0.0,0.0,0.0,0.0,0.0,-0.2834,-0.2836,-0.2836,-0.2836,-0.277,-0.275,-0.275,-0.2711,-0.2691,-0.2691,-0.2914,-0.2998,-0.3026,-0.319,-0.366,-0.4301,-0.4301,-0.455,-0.4967,-0.4967,-0.5105,-0.5297,-0.5297,-0.5297,-0.5329,-0.5466,-0.571,-0.5959,-0.6236,-0.6591,-0.6987,-0.7138,-0.7187,-0.7242,-0.738,-0.7279,-0.7106,-0.7214,-0.7171,-0.7139,-0.7327,-0.7375,-0.7408,-0.7622,-0.767,-0.767,-0.767,-0.8182,-0.8745,-0.8956,-0.9133,-0.9335,-0.9562,-0.9588,-0.9588,-0.9588,-0.9725,-0.9862,-0.9999,-1.0154,-1.0385,-1.0693,-1.082,-1.0972,-1.1124,-1.1217,-1.1301,-1.1301,-1.1301,-1.1301,-1.1301,-1.1301,-1.1301,-1.1301,-1.1301,-1.1301,-1.1301,-1.1301,-1.1301,-1.1301,-1.1301,-1.1301,0.0,0.0,0.0,0.0,0.0,0.0,0.0,0.0,0.0,0.0,0.0,0.0,0.0,0.0,0.0,0.0,0.0,0.0,0.0,0.0,0.0,0.0,0.0,0.0,0.0,0.0,0.0,0.0,0.0,-0.2691,-0.2691,-0.2691,-0.2691,-0.2691,-0.2691,-0.2691,-0.2691,-0.2691,-0.2691,-0.2691,-0.2691,-0.2691,-0.2691,-0.2691,-0.3051,-0.3691,-0.3799,-0.4107,-0.4522,-0.4522,-0.4691,-0.4994,-0.5105,-0.516,-0.516,-0.5274,-0.5466,-0.5703,-0.5841,-0.62,-0.6595,-0.6736,-0.6933,-0.7099,-0.7111,-0.7112,-0.7112,-0.7112,-0.7112,-0.7112,-0.7112,-0.7112,-0.7112,-0.7112,-0.7112,-0.7139,-0.7219,-0.775,-0.8342,-0.8771,-0.885,-0.8949,-0.9249,-0.9302,-0.9302,-0.9302,-0.955,-0.974,-0.974,-1.0051,-1.036,-1.0557,-1.0633,-1.0744,-1.0939,-1.1049,-1.1099,-1.1099,-1.115,-1.12,-1.12,-1.1251,-1.1301,-1.1301,-1.1301,-1.1301,-1.1301,-1.1301,-1.1301,-1.1301,-1.1301,-1.1301,0.0,0.0,0.0,0.0,0.0,0.0,0.0,0.0,0.0,0.0,0.0,0.0,0.0,0.0,0.0,0.0,0.0,0.0,0.0,0.0,0.0,0.0,0.0,0.0,0.0,0.0,0.0,0.0,0.0,-0.2691,-0.2691,-0.2691,-0.2691,-0.2691,-0.2691,-0.2691,-0.2691,-0.2691,-0.2691,-0.2691,-0.2691,-0.2691,-0.2691,-0.2691,-0.2719,-0.2802,-0.3246,-0.3663,-0.4049,-0.4049,-0.4049,-0.4104,-0.455,-0.4743,-0.4774,-0.516,-0.5301,-0.5329,-0.5337,-0.5368,-0.5474,-0.6064,-0.625,-0.6359,-0.6923,-0.7112,-0.7112,-0.7112,-0.7112,-0.7112,-0.7112,-0.7112,-0.7112,-0.7112,-0.7112,-0.7192,-0.7589,-0.7696,-0.7883,-0.8342,-0.8421,-0.8454,-0.8448,-0.8474,-0.8474,-0.8474,-0.8791,-0.9061,-0.9061,-0.9387,-0.964,-0.9666,-0.9888,-1.0051,-1.0076,-1.036,-1.0547,-1.0547,-1.0769,-1.0922,-1.0922,-1.115,-1.1301,-1.1301,-1.1301,-1.1301,-1.1301,-1.1301,-1.1301,-1.1301,-1.1301,-1.1301,0.0,0.0,0.0,0.0,0.0,0.0,0.0,0.0,0.0,0.0,0.0,0.0,0.0,0.0,0.0,0.0,0.0,0.0,0.0,0.0,0.0,0.0,0.0,0.0,0.0,0.0,0.0,0.0,0.0,0.0,-0.2691,-0.2691,-0.2691,-0.2691,-0.2691,-0.2691,-0.2691,-0.2691,-0.2691,-0.2691,-0.2691,-0.2691,-0.2691,-0.2691,-0.2691,-0.2719,-0.2884,-0.319,-0.3608,-0.3608,-0.3774,-0.4024,-0.4187,-0.4245,-0.4273,-0.4411,-0.466,-0.4912,-0.4912,-0.5215,-0.5654,-0.5868,-0.6055,-0.6236,-0.6453,-0.6507,-0.6507,-0.6507,-0.6674,-0.6837,-0.6837,-0.6977,-0.7112,-0.7112,-0.7112,-0.7139,-0.7273,-0.7321,-0.7429,-0.7857,-0.7937,-0.8043,-0.8342,-0.8395,-0.8395,-0.8395,-0.8533,-0.8613,-0.8613,-0.8738,-0.889,-0.9066,-0.9413,-0.9673,-0.9855,-1.0257,-1.0496,-1.0496,-1.0744,-1.0896,-1.0896,-1.0998,-1.1049,-1.1049,-1.1049,-1.1124,-1.1301,-1.1301,-1.1301,-1.1301,-1.1301,-1.1301,0.0,0.0,0.0,0.0,0.0,0.0,0.0,0.0,0.0,0.0,0.0,0.0,0.0,0.0,0.0,0.0,0.0,0.0,0.0,0.0,0.0,0.0,0.0,0.0,0.0,0.0,0.0,0.0,0.0,0.0,-0.2691,-0.2691,-0.2691,-0.2691,-0.2691,-0.2691,-0.2691,-0.2691,-0.2691,-0.2691,-0.2691,-0.2691,-0.2691,-0.2691,-0.2691,-0.2691,-0.2691,-0.2884,-0.3163,-0.3163,-0.333,-0.3577,-0.3747,-0.3799,-0.383,-0.3941,-0.419,-0.4467,-0.4467,-0.4881,-0.5434,-0.5544,-0.5786,-0.6077,-0.6182,-0.629,-0.6372,-0.6372,-0.6593,-0.6842,-0.6842,-0.6972,-0.7112,-0.7112,-0.7112,-0.7112,-0.7112,-0.7112,-0.7187,-0.7456,-0.7509,-0.7589,-0.7916,-0.7969,-0.7969,-0.7969,-0.8076,-0.8156,-0.8156,-0.8421,-0.8659,-0.8837,-0.923,-0.9536,-0.971,-1.001,-1.0198,-1.0198,-1.0462,-1.059,-1.059,-1.0718,-1.0769,-1.0769,-1.0769,-1.0845,-1.1023,-1.1217,-1.1301,-1.1301,-1.12,-1.1124,0.0,0.0,0.0,0.0,0.0,0.0,0.0,0.0,0.0,0.0,0.0,0.0,0.0,0.0,0.0,0.0,0.0,0.0,0.0,0.0,0.0,0.0,0.0,0.0,0.0,0.0,0.0,0.0,0.0,-0.2691,-0.2691,-0.2691,-0.2691,-0.2691,-0.2691,-0.2691,-0.2691,-0.2691,-0.2691,-0.2691,-0.2691,-0.2691,-0.2691,-0.2691,-0.2691,-0.2691,-0.2691,-0.2691,-0.2691,-0.2691,-0.2691,-0.2747,-0.319,-0.3385,-0.3413,-0.383,-0.3965,-0.3993,-0.3993,-0.4301,-0.4715,-0.4991,-0.5375,-0.5791,-0.605,-0.6376,-0.6647,-0.6647,-0.6869,-0.7085,-0.7112,-0.7112,-0.7112,-0.7112,-0.7112,-0.7112,-0.7112,-0.7112,-0.7112,-0.7112,-0.7112,-0.7112,-0.7112,-0.7112,-0.7112,-0.7112,-0.7429,-0.767,-0.767,-0.8421,-0.8956,-0.8956,-0.9335,-0.9562,-0.9588,-0.9588,-0.9588,-0.9588,-0.9862,-0.9999,-0.9999,-1.0316,-1.0496,-1.0496,-1.0496,-1.0496,-1.0496,-1.1023,-1.1276,-1.1267,-1.0998,-1.0752,-0.3556,0.0,0.0,0.0,0.0,0.0,0.0,0.0,0.0,0.0,0.0,0.0,0.0,0.0,0.0,0.0,0.0,0.0,0.0,0.0,0.0,0.0,0.0,0.0,0.0,0.0,0.0,0.0,-0.2691,-0.2691,-0.2691,-0.2691,-0.2691,-0.2691,-0.2691,-0.2691,-0.2691,-0.2691,-0.2691,-0.2691,-0.2691,-0.2691,-0.2691,-0.2691,-0.2691,-0.2691,-0.2691,-0.2691,-0.2691,-0.2691,-0.2691,-0.2719,-0.283,-0.2886,-0.2914,-0.3023,-0.3274,-0.358,-0.358,-0.383,-0.4218,-0.427,-0.438,-0.4519,-0.4598,-0.5038,-0.5536,-0.5536,-0.6159,-0.6864,-0.7058,-0.7112,-0.7112,-0.7112,-0.7112,-0.7112,-0.7112,-0.7112,-0.7112,-0.7112,-0.7112,-0.7112,-0.7112,-0.7112,-0.7112,-0.7112,-0.7192,-0.7268,-0.7268,-0.7482,-0.7723,-0.8017,-0.8468,-0.8837,-0.9133,-0.9439,-0.9588,-0.9588,-0.9862,-0.9999,-0.9999,-1.0102,-1.0128,-1.0128,-1.0128,-1.0128,-1.0128,-1.0539,-1.0718,-1.0718,-1.065,-1.0565,0.0,0.0,0.0,0.0,0.0,0.0,0.0,0.0,0.0,0.0,0.0,0.0,0.0,0.0,0.0,0.0,0.0,0.0,0.0,0.0,0.0,0.0,0.0,0.0,0.0,0.0,0.0,-0.2691,-0.2691,-0.2691,-0.2691,-0.2691,-0.2691,-0.2691,-0.2691,-0.2691,-0.2691,-0.2691,-0.2691,-0.2691,-0.2691,-0.2691,-0.2691,-0.2691,-0.2691,-0.2691,-0.2691,-0.2691,-0.2691,-0.2691,-0.2691,-0.2691,-0.2691,-0.2691,-0.2691,-0.2691,-0.2886,-0.3107,-0.3107,-0.3385,-0.3747,-0.3747,-0.3855,-0.3996,-0.3996,-0.4408,-0.4849,-0.4849,-0.5395,-0.6073,-0.6593,-0.6669,-0.6696,-0.6891,-0.7031,-0.7112,-0.7112,-0.7112,-0.7112,-0.7112,-0.7112,-0.7112,-0.7112,-0.7112,-0.7112,-0.7112,-0.7112,-0.7112,-0.7112,-0.7241,-0.7429,-0.767,-0.8129,-0.8507,-0.8745,-0.8975,-0.9099,-0.9099,-0.923,-0.9342,-0.9342,-0.9342,-0.9342,-0.9342,-0.9342,-0.9342,-0.9342,-1.0128,-1.0419,-1.0283,-1.0283,-1.0231,0.0,0.0,0.0,0.0,0.0,0.0,-0.4516,-0.4303,0.0,0.0,0.0,0.0,0.0,0.0,0.0,0.0,0.0,0.0,0.0,0.0,0.0,0.0,0.0,0.0,0.0,0.0,-0.2691,-0.2691,-0.2681,-0.2681,-0.2689,-0.2625,-0.2595,-0.2605,-0.2605,-0.2605,-0.2605,-0.2663,-0.2691,-0.2691,-0.2691,-0.2691,-0.2691,-0.2691,-0.2691,-0.2691,-0.2691,-0.2691,-0.2691,-0.2691,-0.2691,-0.2691,-0.2691,-0.2691,-0.2691,-0.2691,-0.2691,-0.2691,-0.2691,-0.2968,-0.333,-0.333,-0.3552,-0.3855,-0.3855,-0.4132,-0.4436,-0.4515,-0.4763,-0.5144,-0.5937,-0.6068,-0.6118,-0.6539,-0.6864,-0.7058,-0.7058,-0.7085,-0.7112,-0.7112,-0.7112,-0.7112,-0.7112,-0.7112,-0.7112,-0.7112,-0.7112,-0.7112,-0.7112,-0.7402,-0.7643,-0.7696,-0.807,-0.8342,-0.8395,-0.8395,-0.8395,-0.8395,-0.8395,-0.8395,-0.8395,-0.8395,-0.8395,-0.8395,-0.8395,-0.8395,-0.8395,-0.9655,-1.0102,-0.9818,-0.9818,-0.9706,0.0,-0.432,-0.4337,0.0,0.0,0.0,0.0,-0.3826,0.0,0.0,0.0,0.0,0.0,0.0,0.0,0.0,0.0,0.0,0.0,0.0,0.0,0.0,0.0,0.0,0.0,0.0,-0.2691,-0.2691,-0.2651,-0.264,-0.2687,-0.2181,-0.1931,-0.1986,-0.1987,-0.1987,-0.1987,-0.2465,-0.2691,-0.2691,-0.2691,-0.2691,-0.2691,-0.2691,-0.2691,-0.2691,-0.2691,-0.2691,-0.2691,-0.2691,-0.2691,-0.2691,-0.2691,-0.2691,-0.2691,-0.2691,-0.2691,-0.2691,-0.2691,-0.2747,-0.283,-0.283,-0.2886,-0.294,-0.294,-0.3411,-0.4073,-0.4653,-0.514,-0.5492,-0.5683,-0.5932,-0.6182,-0.629,-0.6539,-0.6783,-0.6783,-0.695,-0.7112,-0.7112,-0.7112,-0.7112,-0.7112,-0.7112,-0.7112,-0.7112,-0.7112,-0.7112,-0.7112,-0.7166,-0.7348,-0.767,-0.7777,-0.7996,-0.8368,-0.8395,-0.8395,-0.8395,-0.8395,-0.8395,-0.8395,-0.8395,-0.8395,-0.8395,-0.8395,-0.8395,-0.8395,-0.8685,-0.8765,-0.8712,-0.8712,-0.8685,0.0,0.0,-0.461,-0.4432,0.0,0.0,0.0,0.0,0.0,0.0,0.0,0.0,0.0,0.0,0.0,0.0,0.0,0.0,0.0,0.0,0.0,0.0,0.0,0.0,0.0,0.0,-0.2554,-0.2554,-0.2581,-0.2492,-0.2208,-0.1909,-0.1636,-0.1365,-0.1338,-0.1488,-0.1753,-0.2083,-0.2375,-0.2651,-0.2696,-0.2691,-0.2691,-0.2691,-0.2691,-0.2691,-0.2691,-0.2691,-0.2691,-0.2691,-0.2691,-0.2691,-0.2691,-0.2691,-0.2691,-0.2691,-0.2691,-0.2691,-0.2691,-0.2691,-0.2691,-0.2691,-0.2691,-0.2691,-0.2691,-0.2968,-0.3411,-0.4211,-0.4484,-0.4649,-0.5285,-0.5664,-0.5959,-0.6154,-0.6561,-0.6869,-0.6729,-0.6923,-0.7058,-0.6918,-0.6896,-0.695,-0.7085,-0.7112,-0.7112,-0.7112,-0.7112,-0.7112,-0.7112,-0.7112,-0.7187,-0.7375,-0.7402,-0.7482,-0.7729,-0.7756,-0.7756,-0.7756,-0.7756,-0.7756,-0.7756,-0.7756,-0.7756,-0.7756,-0.7756,-0.7756,-0.7756,-0.7756,-0.7969,-0.8395,-0.8395,-0.8395,0.0,0.0,0.0,0.0,0.0,-0.4457,0.0,0.0,0.0,-0.4304,0.0,0.0,0.0,0.0,0.0,0.0,0.0,0.0,0.0,0.0,0.0,0.0,0.0,0.0,0.0,-0.2353,-0.2349,-0.239,-0.2352,-0.2153,-0.1732,-0.1529,-0.1238,-0.0765,-0.0738,-0.0961,-0.1383,-0.1657,-0.1999,-0.2423,-0.2592,-0.2692,-0.2666,-0.2627,-0.2605,-0.2605,-0.2605,-0.2577,-0.2549,-0.2663,-0.2663,-0.2607,-0.2663,-0.2691,-0.2691,-0.2691,-0.2691,-0.2691,-0.2691,-0.2691,-0.2691,-0.2691,-0.2691,-0.2691,-0.2691,-0.2691,-0.2858,-0.3552,-0.358,-0.3635,-0.466,-0.512,-0.5382,-0.58,-0.6263,-0.6593,-0.6544,-0.6674,-0.6783,-0.662,-0.6593,-0.6701,-0.6977,-0.7031,-0.7031,-0.7031,-0.7031,-0.7031,-0.7031,-0.6972,-0.6945,-0.7031,-0.7031,-0.7058,-0.7085,-0.7112,-0.7112,-0.7112,-0.7112,-0.7112,-0.7112,-0.7112,-0.7112,-0.7112,-0.7112,-0.7112,-0.7112,-0.7112,-0.7461,-0.8156,-0.8156,-0.8156,0.0,0.0,0.0,0.0,-0.4897,0.0,0.0,0.0,-0.4166,-0.385,0.0,0.0,0.0,0.0,0.0,0.0,0.0,0.0,0.0,0.0,0.0,0.0,0.0,0.0,0.0,0.0,-0.214,-0.2386,-0.1758,-0.1461,-0.1689,-0.0739,-0.0197,-0.0203,-0.0203,-0.0228,-0.0277,-0.1238,-0.1746,-0.1797,-0.234,-0.2624,-0.2599,-0.2375,-0.2268,-0.2268,-0.2268,-0.2127,-0.193,-0.2465,-0.2521,-0.2296,-0.2577,-0.2691,-0.2691,-0.2691,-0.2691,-0.2691,-0.2691,-0.2691,-0.2691,-0.2691,-0.2691,-0.2691,-0.2691,-0.2691,-0.2719,-0.283,-0.3107,-0.3441,-0.358,-0.391,-0.4298,-0.477,-0.4822,-0.5011,-0.5736,-0.5832,-0.5873,-0.6182,-0.6263,-0.6372,-0.6701,-0.6756,-0.6756,-0.6756,-0.6756,-0.6756,-0.6756,-0.648,-0.6426,-0.6701,-0.6756,-0.6837,-0.7085,-0.7112,-0.7112,-0.7112,-0.7112,-0.7112,-0.7112,-0.7112,-0.7112,-0.7112,-0.7112,-0.7112,-0.7112,-0.7112,-0.7166,-0.7246,-0.7246,-0.7246,0.0,0.0,0.0,0.0,0.0,0.0,0.0,0.0,-0.4282,0.0,0.0,0.0,0.0,0.0,0.0,0.0,0.0,0.0,0.0,0.0,0.0,0.0,0.0,0.0,0.0,0.0,0.0,0.0,0.0,-0.1517,-0.0923,-0.0612,-0.0197,0.0416,0.0464,0.0338,0.0071,-0.0361,-0.0828,-0.1291,-0.1621,-0.1879,-0.2078,-0.1975,-0.1925,-0.1959,-0.1959,-0.1902,-0.1818,-0.2071,-0.2183,-0.2212,-0.2352,-0.2521,-0.2691,-0.2691,-0.2691,-0.2691,-0.2691,-0.2691,-0.2691,-0.2691,-0.2691,-0.2691,-0.2691,-0.2691,-0.2747,-0.3023,-0.3246,-0.3441,-0.3691,-0.4021,-0.4353,-0.455,-0.4656,-0.4791,-0.4987,-0.512,-0.5195,-0.5199,-0.5226,-0.5336,-0.5696,-0.6132,-0.6399,-0.6399,-0.6399,-0.6399,-0.6399,-0.629,-0.6263,-0.6399,-0.6593,-0.6756,-0.6864,-0.7004,-0.7112,-0.7112,-0.7112,-0.7112,-0.7112,-0.695,-0.6869,-0.6869,-0.6869,-0.6869,-0.6869,-0.6869,-0.695,-0.7112,-0.7112,-0.7112,-0.4909,0.0,0.0,0.0,0.0,0.0,0.0,0.0,0.0,0.0,0.0,0.0,0.0,0.0,0.0,0.0,0.0,0.0,0.0,0.0,0.0,0.0,0.0,0.0,0.0,0.0,0.0,0.0,0.0,0.0,-0.0397,-0.0457,-0.0097,0.0846,0.0937,0.0784,0.0447,0.0323,-0.0047,-0.0632,-0.0975,-0.1292,-0.1549,-0.1575,-0.1606,-0.1656,-0.1667,-0.1614,-0.1573,-0.1821,-0.1887,-0.1849,-0.2015,-0.2127,-0.224,-0.2577,-0.2691,-0.2691,-0.2691,-0.2691,-0.2691,-0.2691,-0.2691,-0.2691,-0.2691,-0.2691,-0.2775,-0.3107,-0.3218,-0.3274,-0.358,-0.3827,-0.4049,-0.4159,-0.4239,-0.4322,-0.4349,-0.4432,-0.446,-0.438,-0.4353,-0.4463,-0.4739,-0.5312,-0.5773,-0.5882,-0.5909,-0.5909,-0.5909,-0.5941,-0.5996,-0.6077,-0.63,-0.649,-0.6566,-0.6729,-0.6864,-0.6864,-0.6864,-0.6864,-0.6864,-0.6674,-0.6566,-0.6566,-0.6566,-0.6566,-0.6566,-0.6566,-0.6674,-0.6864,-0.6864,-0.6891,0.0,0.0,0.0,-0.455,0.0,0.0,0.0,0.0,-0.4468,0.0,0.0,0.0,0.0,0.0,0.0,0.0,0.0,0.0,0.0,0.0,0.0,0.0,0.0,0.0,0.0,0.0,0.0,0.0,0.0,0.0,-0.0491,-0.0067,0.0449,0.1077,0.1099,0.1076,0.1074,0.0627,0.0381,0.0336,-0.0561,-0.1047,-0.1111,-0.1264,-0.1315,-0.1305,-0.1312,-0.1162,-0.0987,-0.1837,-0.1686,-0.1009,-0.1596,-0.1454,-0.109,-0.2268,-0.2691,-0.2691,-0.2691,-0.2691,-0.2691,-0.2691,-0.2691,-0.2691,-0.2691,-0.2691,-0.2691,-0.2719,-0.2719,-0.2719,-0.2747,-0.2747,-0.2884,-0.333,-0.3107,-0.2996,-0.3827,-0.3719,-0.3552,-0.3941,-0.4024,-0.4024,-0.4021,-0.4325,-0.4684,-0.5069,-0.5124,-0.5124,-0.5124,-0.5238,-0.5466,-0.5768,-0.5822,-0.5927,-0.6182,-0.6236,-0.6236,-0.6236,-0.6236,-0.6236,-0.6236,-0.6209,-0.6209,-0.6209,-0.6209,-0.6209,-0.6209,-0.6209,-0.6209,-0.6236,-0.6236,-0.6399,0.0,0.0,-0.3103,-0.3964,0.0,0.0,0.0,0.0,0.0,0.0,0.0,0.0,0.0,0.0,0.0,0.0,0.0,0.0,0.0,0.0,0.0,0.0,0.0,0.0,0.0,0.0,0.0,0.0,0.0,0.0,0.0,-0.0582,-0.0112,0.0492,0.0895,0.1141,0.1231,0.1119,0.094,0.0738,0.0408,0.0117,-0.017,-0.0218,-0.0248,-0.0231,-0.0253,-0.0154,-0.0053,-0.0346,-0.0407,-0.0336,-0.0532,-0.0671,-0.0838,-0.1313,-0.151,-0.1566,-0.1959,-0.2352,-0.2691,-0.2691,-0.2691,-0.2691,-0.2691,-0.2691,-0.2691,-0.2691,-0.2691,-0.2691,-0.2691,-0.2691,-0.2747,-0.2886,-0.283,-0.2775,-0.3079,-0.3023,-0.297,-0.3107,-0.3135,-0.3246,-0.3552,-0.3438,-0.3549,-0.427,-0.438,-0.438,-0.438,-0.4408,-0.4494,-0.4605,-0.4798,-0.5069,-0.5449,-0.5909,-0.6209,-0.6209,-0.6209,-0.6209,-0.6209,-0.6028,-0.5923,-0.5923,-0.5923,-0.5923,-0.5923,-0.5923,-0.6028,-0.6182,-0.5782,-0.5891,-0.2607,-0.2397,0.0,-0.3255,-0.3087,0.0,-0.3616,0.0,0.0,0.0,0.0,0.0,0.0,0.0,0.0,0.0,0.0,0.0,0.0,0.0,0.0,0.0,0.0,0.0,0.0,0.0,-0.1185,-0.1517,0.0,0.0,0.0,0.0,-0.0313,0.0358,0.0895,0.1208,0.1299,0.1366,0.1299,0.1074,0.0962,0.0755,0.0499,0.0398,0.0333,0.0296,0.0316,0.0346,0.0359,0.0256,0.0237,0.0275,0.0193,0.0083,-0.0056,-0.0615,-0.0866,-0.095,-0.1342,-0.1734,-0.2099,-0.2296,-0.238,-0.241,-0.2635,-0.2691,-0.2691,-0.2691,-0.2691,-0.2691,-0.2691,-0.2691,-0.2691,-0.2691,-0.2691,-0.2691,-0.2691,-0.2691,-0.2691,-0.2691,-0.2691,-0.2802,-0.3107,-0.2914,-0.294,-0.3691,-0.3774,-0.3774,-0.3774,-0.391,-0.3996,-0.3996,-0.4187,-0.4436,-0.4684,-0.5144,-0.5418,-0.5418,-0.5418,-0.5418,-0.5418,-0.5262,-0.516,-0.516,-0.516,-0.516,-0.516,-0.516,-0.5262,-0.5418,-0.5014,-0.5042]}]]